[[{"header":{"parameterUnit":"m.s-1","parameterCategory":1,"la1":30.6,"la2":28.766,"lo1":-90.7593,"lo2":-88.6598,"dy":0.0162,"dx":0.0183,"nx":116,"ny":114,"refTime":"2023-03-26T06:00:00:Z","depth":0,"parameterNumber":2,"parameterNumberName":"U-component_of_WINDS"},"data":[0.0,0.0,0.0,0.0,0.0,0.0,0.0,0.0,0.0,0.0,0.0,0.0,0.0,0.0,0.0,0.0,0.0,0.0,0.0,0.0,0.0,0.0,0.0,0.0,0.0,0.0,0.0,0.0,0.0,0.0,0.0,0.0,0.0,0.0,0.0,0.0,0.0,0.0,0.0,0.0,0.0,0.0,0.0,0.0,0.0,0.0,0.0,0.0,0.0,0.0,0.0,0.0,0.0,0.0,0.0,0.0,0.0,0.0,0.0,0.0,0.0,0.0,0.0,0.0,0.0,0.0,0.0,0.0,0.0,0.0,0.0,0.0,0.0,0.0,0.0,0.0,0.0,0.0,0.0,0.0,0.0,0.0,0.0,0.0,0.0,0.0,0.0,0.0,0.0,0.0,0.0,0.0,0.0,0.0,0.0,0.0,0.0,0.0,0.0,0.0,0.0,0.0,0.0,0.0,0.0,0.0,0.0,0.0,0.0,0.0,0.0,0.0,0.0,0.0,0.0,0.0,0.0,0.0,0.0,0.0,0.0,0.0,0.0,0.0,0.0,0.0,0.0,0.0,0.0,0.0,0.0,0.0,0.0,0.0,0.0,0.0,0.0,0.0,0.0,0.0,0.0,0.0,0.0,0.0,0.0,0.0,0.0,0.0,0.0,0.0,0.0,0.0,0.0,0.0,0.0,0.0,0.0,0.0,0.0,0.0,0.0,0.0,0.0,0.0,0.0,0.0,0.0,0.0,0.0,0.0,0.0,0.0,0.0,0.0,0.0,0.0,0.0,0.0,0.0,0.0,0.0,0.0,0.0,0.0,0.0,0.0,0.0,0.0,0.0,0.0,0.0,0.0,0.0,0.0,0.0,0.0,0.0,0.0,0.0,0.0,0.0,0.0,0.0,0.0,0.0,0.0,0.0,0.0,0.0,0.0,0.0,0.0,0.0,0.0,0.0,0.0,0.0,0.0,0.0,0.0,0.0,0.0,0.0,0.0,0.0,0.0,0.0,0.0,0.0,0.0,0.0,0.0,0.0,0.0,0.0,0.0,0.0,0.0,0.0,0.0,0.0,0.0,0.0,0.0,0.0,0.0,0.0,0.0,0.0,0.0,0.0,0.0,0.0,0.0,0.0,0.0,0.0,0.0,0.0,0.0,0.0,0.0,0.0,0.0,0.0,0.0,0.0,0.0,0.0,0.0,0.0,0.0,0.0,0.0,0.0,0.0,0.0,0.0,0.0,0.0,0.0,0.0,0.0,0.0,0.0,0.0,0.0,0.0,0.0,0.0,0.0,0.0,0.0,0.0,0.0,0.0,0.0,0.0,0.0,0.0,0.0,0.0,0.0,0.0,0.0,0.0,0.0,0.0,0.0,0.0,0.0,0.0,0.0,0.0,0.0,0.0,0.0,0.0,0.0,0.0,0.0,0.0,0.0,0.0,0.0,0.0,0.0,0.0,0.0,0.0,0.0,0.0,0.0,0.0,0.0,0.0,0.0,0.0,0.0,0.0,0.0,0.0,0.0,0.0,0.0,0.0,0.0,0.0,0.0,0.0,0.0,0.0,0.0,0.0,0.0,0.0,0.0,0.0,0.0,0.0,0.0,0.0,0.0,0.0,0.0,0.0,0.0,0.0,0.0,0.0,0.0,0.0,0.0,0.0,0.0,0.0,0.0,0.0,0.0,0.0,0.0,0.0,0.0,0.0,0.0,0.0,0.0,0.0,0.0,0.0,0.0,0.0,0.0,0.0,0.0,0.0,0.0,0.0,0.0,0.0,0.0,0.0,0.0,0.0,0.0,0.0,0.0,0.0,0.0,0.0,0.0,0.0,0.0,0.0,0.0,0.0,0.0,0.0,0.0,0.0,0.0,0.0,0.0,0.0,0.0,0.0,0.0,0.0,0.0,0.0,0.0,0.0,0.0,0.0,0.0,0.0,0.0,0.0,0.0,0.0,0.0,0.0,0.0,0.0,0.0,0.0,0.0,0.0,0.0,0.0,0.0,0.0,0.0,0.0,0.0,0.0,0.0,0.0,0.0,0.0,0.0,0.0,0.0,0.0,0.0,0.0,0.0,0.0,0.0,0.0,0.0,0.0,0.0,0.0,0.0,0.0,0.0,0.0,0.0,0.0,0.0,0.0,0.0,0.0,0.0,0.0,0.0,0.0,0.0,0.0,0.0,0.0,0.0,0.0,0.0,0.0,0.0,0.0,0.0,0.0,0.0,0.0,0.0,0.0,0.0,0.0,0.0,0.0,0.0,0.0,0.0,0.0,0.0,0.0,0.0,0.0,0.0,0.0,0.0,0.0,0.0,0.0,0.0,0.0,0.0,0.0,0.0,0.0,0.0,0.0,0.0,0.0,0.0,0.0,0.0,0.0,0.0,0.0,0.0,0.0,0.0,0.0,0.0,0.0,0.0,0.0,0.0,0.0,0.0,0.0,0.0,0.0,0.0,0.0,0.0,0.0,0.0,0.0,0.0,0.0,0.0,0.0,0.0,0.0,0.0,0.0,0.0,0.0,0.0,0.0,0.0,0.0,0.0,0.0,0.0,0.0,0.0,0.0,0.0,0.0,0.0,0.0,0.0,0.0,0.0,0.0,0.0,0.0,0.0,0.0,0.0,0.0,0.0,0.0,0.0,0.0,0.0,0.0,0.0,0.0,0.0,0.0,0.0,0.0,0.0,0.0,0.0,0.0,0.0,0.0,0.0,0.0,0.0,0.0,0.0,0.0,0.0,0.0,0.0,0.0,0.0,0.0,0.0,0.0,0.0,0.0,0.0,0.0,0.0,0.0,0.0,0.0,0.0,0.0,0.0,0.0,0.0,0.0,0.0,0.0,0.0,0.0,0.0,0.0,0.0,0.0,0.0,0.0,0.0,0.0,0.0,0.0,0.0,0.0,0.0,0.0,0.0,0.0,0.0,0.0,0.0,0.0,0.0,0.0,0.0,0.0,0.0,0.0,0.0,0.0,0.0,0.0,0.0,0.0,0.0,0.0,0.0,0.0,0.0,0.0,0.0,0.0,0.0,0.0,0.0,0.0,0.0,0.0,0.0,0.0,0.0,0.0,0.0,0.0,0.0,0.0,0.0,0.0,0.0,0.0,0.0,0.0,0.0,0.0,0.0,0.0,0.0,0.0,0.0,0.0,0.0,0.0,0.0,0.0,0.0,0.0,0.0,0.0,0.0,0.0,0.0,0.0,0.0,0.0,0.0,0.0,0.0,0.0,0.0,0.0,0.0,0.0,0.0,0.0,0.0,0.0,0.0,0.0,0.0,0.0,0.0,0.0,0.0,0.0,0.0,0.0,0.0,0.0,0.0,0.0,0.0,0.0,0.0,0.0,0.0,0.0,0.0,0.0,0.0,0.0,0.0,0.0,0.0,0.0,0.0,0.0,0.0,0.0,0.0,0.0,0.0,0.0,0.0,0.0,0.0,0.0,0.0,0.0,0.0,0.0,0.0,0.0,0.0,0.0,0.0,0.0,0.0,0.0,0.0,0.0,0.0,0.0,0.0,0.0,0.0,0.0,0.0,0.0,0.0,0.0,0.0,0.0,0.0,0.0,0.0,0.0,0.0,0.0,0.0,0.0,0.0,0.0,0.0,0.0,0.0,0.0,0.0,0.0,0.0,0.0,0.0,0.0,0.0,0.0,0.0,0.0,0.0,0.0,0.0,0.0,0.0,0.0,0.0,0.0,0.0,0.0,0.0,0.0,0.0,0.0,0.0,0.0,0.0,0.0,0.0,0.0,0.0,0.0,0.0,0.0,0.0,0.0,0.0,0.0,0.0,0.0,0.0,0.0,0.0,0.0,0.0,0.0,0.0,0.0,0.0,0.0,0.0,0.0,0.0,0.0,0.0,0.0,0.0,0.0,0.0,0.0,0.0,0.0,0.0,0.0,0.0,0.0,0.0,0.0,0.0,0.0,0.0,0.0,0.0,0.0,0.0,0.0,0.0,0.0,0.0,0.0,0.0,0.0,0.0,0.0,0.0,0.0,0.0,0.0,0.0,0.0,0.0,0.0,0.0,0.0,0.0,0.0,0.0,0.0,0.0,0.0,0.0,0.0,0.0,0.0,0.0,0.0,0.0,0.0,0.0,0.0,0.0,0.0,0.0,0.0,0.0,0.0,0.0,0.0,0.0,0.0,0.0,0.0,0.0,0.0,0.0,0.0,0.0,0.0,0.0,0.0,0.0,0.0,0.0,0.0,0.0,0.0,0.0,0.0,0.0,0.0,0.0,0.0,0.0,0.0,0.0,0.0,0.0,0.0,0.0,0.0,0.0,0.0,0.0,0.0,0.0,0.0,0.0,0.0,0.0,0.0,0.0,0.0,0.0,0.0,0.0,0.0,0.0,0.0,0.0,0.0,0.0,0.0,0.0,0.0,0.0,0.0,0.0,0.0,0.0,0.0,0.0,0.0,0.0,0.0,0.0,0.0,0.0,0.0,0.0,0.0,0.0,0.0,0.0,0.0,0.0,0.0,0.0,0.0,0.0,0.0,0.0,0.0,0.0,0.0,0.0,0.0,0.0,0.0,0.0,0.0,0.0,0.0,0.0,0.0,0.0,0.0,0.0,0.0,0.0,0.0,0.0,0.0,0.0,0.0,0.0,0.0,0.0,0.0,0.0,0.0,0.0,0.0,0.0,0.0,0.0,0.0,0.0,0.0,0.0,0.0,0.0,0.0,0.0,0.0,0.0,0.0,0.0,0.0,0.0,0.0,0.0,0.0,0.0,0.0,0.0,0.0,0.0,0.0,0.0,0.0,0.0,0.0,0.0,0.0,0.0,0.0,0.0,0.0,0.0,0.0,0.0,0.0,0.0,0.0,0.0,0.0,0.0,0.0,0.0,0.0,0.0,0.0,0.0,0.0,0.0,0.0,0.0,0.0,0.0,0.0,0.0,0.0,0.0,0.0,0.0,0.0,0.0,0.0,0.0,0.0,0.0,0.0,0.0,0.0,0.0,0.0,0.0,0.0,0.0,0.0,0.0,0.0,0.0,0.0,0.0,0.0,0.0,0.0,0.0,0.0,0.0,0.0,0.0,0.0,0.0,0.0,0.0,0.0,0.0,0.0,0.0,0.0,0.0,0.0,0.0,0.0,0.0,0.0,0.0,0.0,0.0,0.0,0.0,0.0,0.0,0.0,0.0,0.0,0.0,0.0,0.0,0.0,0.0,0.0,0.0,0.0,0.0,0.0,0.0,0.0,0.0,0.0,0.0,0.0,0.0,0.0,0.0,0.0,0.0,0.0,0.0,0.0,0.0,0.0,0.0,0.0,0.0,0.0,0.0,0.0,0.0,0.0,0.0,0.0,0.0,0.0,0.0,0.0,0.0,0.0,0.0,0.0,0.0,0.0,0.0,0.0,0.0,0.0,0.0,0.0,0.0,0.0,0.0,0.0,0.0,0.0,0.0,0.0,0.0,0.0,0.0,0.0,0.0,0.0,0.0,0.0,0.0,0.0,0.0,0.0,0.0,0.0,0.0,0.0,0.0,0.0,0.0,0.0,0.0,0.0,0.0,0.0,0.0,0.0,0.0,0.0,0.0,0.0,0.0,0.0,0.0,0.0,0.0,0.0,0.0,0.0,0.0,0.0,0.0,0.0,0.0,0.0,0.0,0.0,0.0,0.0,0.0,0.0,0.0,0.0,0.0,0.0,0.0,0.0,0.0,0.0,0.0,0.0,0.0,0.0,0.0,0.0,0.0,0.0,0.0,0.0,0.0,0.0,0.0,0.0,0.0,0.0,0.0,0.0,0.0,0.0,0.0,0.0,0.0,0.0,0.0,0.0,0.0,0.0,0.0,0.0,0.0,0.0,0.0,0.0,0.0,0.0,0.0,0.0,0.0,0.0,0.0,0.0,0.0,0.0,0.0,0.0,0.0,0.0,0.0,0.0,0.0,0.0,0.0,0.0,0.0,0.0,0.0,0.0,0.0,0.0,0.0,0.0,0.0,0.0,0.0,0.0,0.0,0.0,0.0,0.0,0.0,0.0,0.0,0.0,0.0,0.0,0.0,0.0,0.0,0.0,0.0,0.0,0.0,0.0,0.0,0.0,0.0,0.0,0.0,0.0,0.0,0.0,0.0,0.0,0.0,0.0,0.0,0.0,-3.2655,-3.3111,0.0,0.0,0.0,0.0,0.0,0.0,0.0,0.0,0.0,0.0,0.0,0.0,0.0,0.0,0.0,0.0,0.0,0.0,0.0,0.0,0.0,0.0,0.0,0.0,0.0,0.0,0.0,0.0,0.0,0.0,0.0,0.0,0.0,0.0,0.0,0.0,0.0,0.0,-3.3212,-3.3212,-3.3212,-3.3212,-3.3923,-3.5288,0.0,0.0,0.0,0.0,0.0,0.0,0.0,0.0,0.0,0.0,0.0,0.0,0.0,0.0,0.0,0.0,0.0,0.0,0.0,0.0,0.0,0.0,0.0,0.0,0.0,0.0,0.0,0.0,0.0,0.0,0.0,0.0,0.0,0.0,0.0,0.0,0.0,0.0,0.0,0.0,0.0,0.0,0.0,0.0,0.0,0.0,0.0,0.0,0.0,0.0,0.0,0.0,0.0,0.0,0.0,0.0,0.0,0.0,0.0,0.0,0.0,0.0,0.0,0.0,0.0,0.0,0.0,0.0,0.0,0.0,-3.1645,-3.2525,0.0,0.0,0.0,0.0,0.0,0.0,0.0,0.0,0.0,0.0,0.0,0.0,0.0,0.0,0.0,0.0,0.0,0.0,0.0,0.0,0.0,0.0,0.0,0.0,-3.4013,-3.2815,-3.2701,-3.2701,0.0,0.0,0.0,0.0,0.0,0.0,0.0,-3.0898,-3.0898,-3.0898,-3.0898,-3.0898,-3.0898,-3.0898,-3.2207,-3.4481,-3.3247,0.0,0.0,0.0,0.0,0.0,0.0,0.0,0.0,0.0,0.0,0.0,0.0,0.0,0.0,0.0,0.0,0.0,0.0,0.0,0.0,0.0,0.0,0.0,0.0,0.0,0.0,0.0,0.0,0.0,0.0,0.0,0.0,0.0,0.0,0.0,0.0,0.0,0.0,0.0,0.0,0.0,0.0,0.0,0.0,0.0,0.0,0.0,0.0,0.0,0.0,0.0,0.0,0.0,0.0,0.0,0.0,0.0,0.0,0.0,0.0,0.0,0.0,0.0,-3.0984,-3.0896,-3.0763,-2.9987,-2.9526,-2.9318,-3.0285,-3.1362,-3.2394,-3.1311,0.0,0.0,0.0,0.0,0.0,0.0,0.0,0.0,0.0,0.0,0.0,0.0,0.0,0.0,0.0,0.0,0.0,0.0,0.0,0.0,0.0,-3.1383,-3.1383,-3.1228,-3.117,-3.117,-3.117,0.0,0.0,0.0,0.0,0.0,-3.0898,-3.0898,-3.0898,-3.0898,-3.0898,-3.0898,-3.0898,-3.0898,-3.1112,-3.1441,-3.1286,-3.1131,-3.1052,0.0,0.0,0.0,0.0,0.0,0.0,0.0,0.0,0.0,0.0,0.0,0.0,0.0,0.0,0.0,0.0,0.0,0.0,0.0,0.0,0.0,0.0,0.0,0.0,0.0,0.0,0.0,0.0,0.0,0.0,0.0,0.0,0.0,0.0,0.0,0.0,0.0,0.0,0.0,0.0,0.0,-2.9049,-2.8986,0.0,0.0,0.0,0.0,0.0,0.0,0.0,0.0,0.0,0.0,0.0,0.0,0.0,-2.9396,-2.9396,-2.9555,-2.9804,-3.0163,-3.0163,-2.9774,-2.9125,-3.0097,-2.9952,-2.888,-2.8673,0.0,-2.9875,-2.9715,0.0,0.0,0.0,0.0,0.0,0.0,0.0,0.0,0.0,0.0,0.0,0.0,0.0,0.0,0.0,0.0,0.0,0.0,0.0,0.0,0.0,-3.0898,-3.0898,-3.0898,-3.0898,-3.0898,-3.0898,-3.0898,0.0,0.0,0.0,-3.0898,-3.0898,-3.0898,-3.0898,-3.0898,-3.0898,-3.0898,-3.0898,-3.0898,-3.0898,-3.0898,-3.0898,-3.0898,-3.0879,-3.0664,0.0,0.0,0.0,0.0,0.0,0.0,0.0,0.0,0.0,0.0,0.0,0.0,0.0,0.0,0.0,0.0,0.0,0.0,0.0,0.0,0.0,0.0,0.0,0.0,0.0,0.0,0.0,0.0,0.0,0.0,0.0,0.0,0.0,0.0,0.0,0.0,0.0,0.0,0.0,-2.8307,-2.8166,-2.8166,-2.7507,-2.7137,0.0,0.0,0.0,0.0,0.0,0.0,0.0,0.0,0.0,-2.8063,-2.8063,-2.8063,-2.8063,-2.8721,-2.9144,-2.9338,-2.9338,-2.9125,-2.8794,-2.8695,-2.8316,-2.7764,-2.7583,-2.7729,-2.807,-2.831,-2.9096,-3.0169,0.0,0.0,0.0,0.0,-3.0169,-3.0124,0.0,0.0,0.0,0.0,0.0,0.0,0.0,0.0,0.0,0.0,0.0,0.0,-3.0898,-3.0898,-3.0898,-3.0898,-3.0898,-3.0898,-3.0898,-3.0898,0.0,0.0,-3.0898,-3.0898,-3.0898,-3.0898,-3.0898,-3.0898,-3.0898,-3.0898,-3.0898,-3.0898,-3.0898,-3.0898,-3.0898,-3.0898,-3.0898,-3.0898,-3.0898,-3.0859,0.0,0.0,0.0,0.0,0.0,0.0,0.0,0.0,0.0,0.0,0.0,0.0,0.0,0.0,0.0,0.0,0.0,0.0,0.0,0.0,0.0,0.0,0.0,0.0,0.0,0.0,0.0,0.0,0.0,0.0,0.0,0.0,0.0,0.0,0.0,0.0,0.0,-2.8027,-2.7832,-2.7832,-2.7539,-2.7305,0.0,0.0,0.0,0.0,0.0,0.0,-2.7012,-2.7012,-2.7012,-2.7012,-2.7012,-2.707,-2.7187,-2.8046,-2.8633,-2.8829,-2.8829,-2.8891,-2.8993,-2.8053,-2.7598,-2.75,-2.7383,-2.7285,-2.7161,-2.7366,-2.8153,-2.9264,-2.9264,-2.9451,-2.9684,-2.9272,-2.9088,-2.902,0.0,0.0,0.0,0.0,0.0,0.0,0.0,0.0,0.0,0.0,0.0,-3.0898,-3.0898,-3.0898,-3.0898,-3.0898,-3.0898,-3.0898,-3.0898,-3.0898,-3.0898,-3.0898,-3.0898,-3.0898,-3.0898,-3.0898,-3.0898,-3.0898,-3.0898,-3.0898,-3.0898,-3.0898,-3.0898,-3.0898,-3.0898,-3.0898,-3.0898,-3.0898,-3.0898,-3.0898,-3.0859,0.0,0.0,0.0,0.0,0.0,0.0,0.0,0.0,0.0,0.0,0.0,0.0,0.0,0.0,0.0,0.0,0.0,0.0,0.0,0.0,0.0,0.0,0.0,0.0,0.0,0.0,0.0,0.0,0.0,0.0,0.0,0.0,0.0,0.0,0.0,0.0,0.0,0.0,-2.8262,-2.8242,0.0,0.0,0.0,0.0,-2.7051,-2.7012,-2.7012,-2.7012,-2.7012,-2.7012,-2.7012,-2.7012,-2.7207,-2.7689,-2.7741,-2.8133,-2.8863,-2.8863,-2.9153,-2.9545,-2.9489,-2.9219,-2.8809,-2.8398,-2.8008,-2.765,-2.718,-2.7774,-2.8809,-2.8809,-2.9596,-3.0452,-2.886,-2.8277,-2.8021,0.0,0.0,0.0,0.0,0.0,0.0,0.0,0.0,-3.0898,-3.0898,-3.0898,-3.0898,-3.0898,-3.0898,-3.0898,-3.0898,-3.0898,-3.0898,-3.0898,-3.0898,-3.0898,-3.0898,-3.0898,-3.0898,-3.0898,-3.0898,-3.0898,-3.0898,-3.0898,-3.0898,-3.0898,-3.0898,-3.0898,-3.0898,-3.0898,-3.0898,-3.0898,-3.0898,-3.0898,-3.0898,-3.0898,-3.0801,0.0,0.0,0.0,0.0,0.0,0.0,0.0,0.0,0.0,0.0,0.0,0.0,0.0,0.0,0.0,0.0,0.0,0.0,0.0,0.0,0.0,0.0,0.0,0.0,0.0,0.0,0.0,0.0,0.0,0.0,0.0,0.0,0.0,0.0,0.0,0.0,0.0,-2.8301,-2.8301,0.0,-2.8086,-2.8066,-2.8008,-2.7851,-2.7832,-2.7949,-2.8223,-2.8242,-2.8359,-2.8652,-2.8652,-2.873,-2.8941,-2.8941,-2.9043,-2.9336,-2.9336,-2.9414,-2.9626,-2.9626,-2.9492,-2.9336,-2.918,-2.8867,-2.8457,-2.8301,-2.7996,-2.7632,-2.7632,-2.7935,-2.8246,-2.7653,-2.7412,-2.7342,0.0,0.0,0.0,0.0,0.0,0.0,0.0,0.0,-3.0898,-3.0898,-3.0898,-3.0898,-3.0898,-3.0898,-3.0898,-3.0898,-3.0898,-3.0898,-3.0898,-3.0898,-3.0898,-3.0898,-3.0898,-3.0898,-3.0898,-3.0898,-3.0898,-3.0898,-3.0898,-3.0898,-3.0898,-3.0898,-3.0898,-3.0898,-3.0898,-3.0898,-3.0898,-3.0898,-3.0898,-3.0898,-3.0898,-3.0898,-3.0898,0.0,0.0,0.0,0.0,0.0,0.0,0.0,0.0,0.0,0.0,0.0,0.0,0.0,0.0,0.0,0.0,0.0,0.0,0.0,0.0,0.0,0.0,0.0,0.0,0.0,0.0,0.0,0.0,0.0,0.0,0.0,0.0,0.0,0.0,-2.8301,-2.8301,-2.8301,-2.8301,-2.8301,-2.8301,-2.8418,-2.8496,-2.8496,-2.8633,-2.8848,-2.9121,-2.9141,-2.9277,-2.9607,-2.9626,-2.9704,-2.9785,-2.9785,-2.9863,-3.0019,-3.0019,-3.0019,-3.0019,-3.0019,-2.9922,-2.9785,-2.9785,-2.9531,-2.9141,-2.9141,-2.8633,-2.7851,-2.7559,-2.7441,-2.7422,-2.7285,-2.7226,-2.7207,0.0,0.0,0.0,0.0,0.0,0.0,0.0,-3.0898,-3.0898,-3.0898,-3.0898,-3.0898,-3.0898,-3.0898,-3.0898,-3.0898,-3.0898,-3.0898,-3.0898,-3.0898,-3.0898,-3.0898,-3.0898,-3.0898,-3.0898,-3.0898,-3.0898,-3.0898,-3.0898,-3.0898,-3.0898,-3.0898,-3.0898,-3.0898,-3.0898,-3.0898,-3.0898,-3.0898,-3.0898,-3.0898,-3.0898,-3.0898,-3.0898,0.0,0.0,0.0,0.0,0.0,0.0,0.0,0.0,0.0,0.0,0.0,0.0,0.0,0.0,0.0,0.0,0.0,0.0,0.0,0.0,0.0,0.0,0.0,0.0,0.0,0.0,0.0,0.0,0.0,0.0,0.0,0.0,0.0,-2.8301,-2.8301,-2.8301,-2.832,-2.832,-2.832,-2.834,-2.8691,-2.8945,-2.8945,-2.9336,-2.9626,-2.9646,-2.9646,-2.9646,-2.9665,-2.9665,-2.9805,-3.0215,-3.0215,-3.0449,-3.0898,-3.0898,-3.0898,-3.0898,-3.0898,-3.0644,-3.0215,-3.0215,-2.998,-2.9646,-2.9646,-2.9646,-2.9548,-2.8652,-2.832,-2.8262,-2.7851,-2.7748,-2.7669,0.0,0.0,0.0,0.0,0.0,0.0,0.0,-3.0898,-3.0898,-3.0898,-3.0898,-3.0898,-3.0898,-3.0898,-3.0898,-3.0898,-3.0898,-3.0898,-3.0898,-3.0898,-3.0898,-3.0898,-3.0898,-3.0898,-3.0898,-3.0898,-3.0898,-3.0898,-3.0898,-3.0898,-3.0898,-3.0898,-3.0898,-3.0898,-3.0898,-3.0898,-3.0898,-3.0898,-3.0898,-3.0898,-3.0898,-3.0898,-3.0898,0.0,0.0,0.0,0.0,0.0,0.0,0.0,0.0,0.0,0.0,0.0,0.0,0.0,0.0,0.0,0.0,0.0,0.0,0.0,0.0,0.0,0.0,0.0,0.0,0.0,0.0,0.0,0.0,0.0,0.0,0.0,-2.8301,-2.8301,-2.8301,-2.8301,-2.8398,-2.8711,-2.875,-2.8867,-2.918,-2.9316,-2.9394,-2.9394,-2.9512,-2.9707,-3.0,-3.0019,-3.0176,-3.0508,-3.0527,-3.0586,-3.0703,-3.0703,-3.0762,-3.0898,-3.0898,-3.0898,-3.0898,-3.0898,-3.082,-3.0703,-3.0703,-3.0449,-3.0019,-3.0019,-2.9844,-2.9607,-2.9372,-2.9023,-2.873,-2.8613,-2.8379,-2.8105,0.0,0.0,0.0,0.0,0.0,0.0,0.0,-3.0898,-3.0898,-3.0898,-3.0898,-3.0898,-3.0898,-3.0898,-3.0898,-3.0898,-3.0898,-3.0898,-3.0898,-3.0898,-3.0898,-3.0898,-3.0898,-3.0898,-3.0898,-3.0898,-3.0898,-3.0898,-3.0898,-3.0898,-3.0898,-3.0898,-3.0898,-3.0898,-3.0898,-3.0898,-3.0898,-3.0898,-3.0898,-3.0898,-3.0898,-3.0898,-3.0898,-3.0898,-3.0898,-3.0859,-3.0586,-3.0215,-2.9766,-2.9336,0.0,0.0,0.0,0.0,0.0,0.0,0.0,0.0,0.0,0.0,0.0,0.0,0.0,0.0,0.0,0.0,0.0,0.0,0.0,0.0,0.0,0.0,0.0,0.0,-2.8437,-2.8555,-2.8555,-2.8555,-2.8711,-2.9141,-2.9199,-2.9297,-2.9551,-2.9726,-2.9824,-2.9824,-3.0019,-3.0234,-3.0469,-3.0488,-3.0605,-3.0879,-3.0898,-3.0898,-3.0898,-3.0898,-3.0898,-3.0898,-3.0898,-3.0898,-3.0898,-3.0898,-3.0898,-3.0898,-3.0898,-3.0742,-3.0488,-3.0488,-3.0351,-3.0078,0.0,0.0,0.0,0.0,-2.9043,-2.8828,0.0,0.0,0.0,0.0,0.0,0.0,0.0,-3.0995,-3.0898,-3.0898,-3.0898,-3.0898,-3.0898,-3.0898,-3.0898,-3.0898,-3.0898,-3.0898,-3.0898,-3.0898,-3.0898,-3.0898,-3.0898,-3.0898,-3.0898,-3.0898,-3.0898,-3.0898,-3.0898,-3.0898,-3.0898,-3.0898,-3.0898,-3.0898,-3.0898,-3.0898,-3.0898,-3.0898,-3.0898,-3.0898,-3.0898,-3.0898,-3.0898,-3.0898,-3.0898,-3.0898,-3.0898,-3.0586,-3.0137,-2.9707,0.0,0.0,0.0,0.0,0.0,0.0,0.0,0.0,0.0,0.0,0.0,0.0,0.0,0.0,0.0,0.0,0.0,0.0,0.0,0.0,0.0,0.0,0.0,0.0,-2.8711,-2.9004,-2.9062,-2.9062,-2.9199,-2.959,-2.9704,-2.9668,-2.9707,-3.0059,-3.0273,-3.0273,-3.0664,-3.0898,-3.0898,-3.0898,0.0,0.0,0.0,-3.0898,-3.0898,-3.0898,-3.0898,-3.0898,-3.0898,-3.0898,-3.0898,-3.0898,-3.0898,-3.0898,-3.0898,-3.0898,-3.0898,-3.0898,-3.0898,-3.082,-2.9961,-2.9704,-2.9629,-2.9646,-2.9626,-2.9626,0.0,0.0,0.0,0.0,0.0,0.0,0.0,-3.1652,-3.0898,-3.0898,-3.0898,-3.0898,-3.0898,-3.0898,-3.0898,-3.0898,-3.0898,-3.0898,-3.0898,-3.0898,-3.0898,-3.0898,-3.0898,-3.0898,-3.0898,-3.0898,-3.0898,-3.0898,-3.0898,-3.0898,-3.0898,-3.0898,-3.0898,-3.0898,-3.0898,-3.0898,-3.0898,-3.0898,-3.0898,-3.0898,-3.0898,-3.0898,-3.0898,-3.0898,-3.0898,-3.0898,-3.0898,-3.0586,-3.0137,-2.9707,-2.9277,-2.8848,-2.8418,-2.8301,0.0,0.0,0.0,0.0,0.0,0.0,0.0,0.0,0.0,0.0,0.0,0.0,0.0,0.0,0.0,0.0,0.0,0.0,0.0,-2.8789,-2.916,-2.957,-2.9902,-2.9941,-2.998,-3.0059,-3.0078,-3.0215,-3.0605,-3.0703,-3.0762,-3.0762,-3.084,-3.0898,-3.0898,-3.0898,-3.0898,-3.0898,-3.0898,-3.0898,-3.0898,-3.0898,-3.0898,-3.0898,-3.0898,0.0,-3.0898,-3.0898,-3.0898,-3.0898,-3.0898,-3.0898,-3.0898,-3.0898,-3.0898,-3.084,-3.0293,-3.0078,-3.0039,-2.9687,-2.9626,-2.9626,0.0,0.0,0.0,0.0,0.0,0.0,0.0,-3.3586,-3.2815,-3.2092,-3.1977,-3.171,-3.0995,-3.0898,-3.0898,-3.0898,-3.0898,-3.0898,-3.0898,-3.0898,-3.0898,-3.0898,-3.0898,-3.0898,-3.0898,-3.0898,-3.0898,-3.0898,-3.0898,-3.0898,-3.0898,-3.0898,-3.0898,-3.0898,-3.0898,-3.0898,-3.0898,-3.0898,-3.0898,-3.0898,-3.0898,-3.0898,-3.0898,-3.0898,-3.0898,-3.0898,-3.0898,-3.0742,-3.0449,-2.9785,-2.9434,-2.9141,-2.8496,-2.8301,-2.8301,0.0,0.0,0.0,0.0,0.0,0.0,0.0,0.0,0.0,0.0,0.0,0.0,0.0,0.0,-2.8359,-2.8574,0.0,-2.8984,-2.9199,-2.9609,-2.9961,-3.0176,-3.0391,-3.0547,-3.0547,-3.0547,-3.0644,-3.0859,-3.0898,-3.0898,-3.0898,-3.0898,-3.0898,-3.0898,-3.0898,-3.0898,-3.0898,-3.0898,-3.0898,-3.0898,-3.0898,-3.0898,-3.0898,-3.0898,-3.0898,-3.0898,-3.0898,-3.0898,-3.0898,-3.0898,-3.0898,-3.0898,-3.0898,-3.0898,-3.0859,-3.0644,-3.0547,-3.0527,-3.0312,-3.0234,-3.0234,0.0,0.0,0.0,0.0,0.0,0.0,0.0,-3.5453,-3.4847,-3.3677,-3.3529,-3.2964,-3.1498,-3.1325,-3.1228,-3.0957,-3.117,-3.1228,-3.0898,-3.0898,-3.0898,-3.0898,-3.0898,-3.0898,-3.0898,-3.0898,-3.0898,-3.0898,-3.0898,-3.0898,-3.0898,-3.0898,-3.0898,-3.0898,-3.0898,-3.0898,-3.0898,-3.0898,-3.0898,-3.0898,-3.0898,-3.0898,-3.0898,-3.0898,-3.0898,-3.0898,-3.0898,-3.0898,-3.0762,-2.9863,-2.9626,-2.947,-2.8555,-2.8301,-2.8301,-2.8301,-2.8301,0.0,0.0,0.0,0.0,0.0,0.0,0.0,0.0,-2.8301,-2.832,-2.8398,-2.8418,-2.8535,-2.8965,-2.9121,-2.9277,-2.9629,-3.0059,-3.0332,-3.0332,-3.0644,-3.0898,-3.0898,-3.0898,-3.0898,-3.0898,-3.0898,-3.0898,-3.0898,-3.0898,-3.0898,-3.0898,-3.0898,-3.0898,-3.0898,-3.0898,-3.0898,-3.0898,-3.0898,-3.0898,-3.0898,-3.0898,-3.0898,-3.0898,-3.0898,-3.0898,-3.0898,-3.0898,-3.0898,-3.0898,-3.0898,-3.0898,-3.0898,-3.0898,-3.0898,-3.0898,-3.0898,-3.0898,-3.0898,0.0,0.0,0.0,0.0,0.0,0.0,0.0,0.0,-3.5233,-3.5068,-3.5068,-3.4515,-3.3021,-3.2851,-3.2322,-3.0995,-3.2092,-3.2322,-3.0995,-3.0898,-3.0898,-3.0898,-3.0898,-3.0898,-3.0898,-3.0898,-3.0898,-3.0898,-3.0898,-3.0898,-3.0898,-3.0898,-3.0898,-3.0898,-3.0898,-3.0898,-3.0898,-3.0898,-3.0898,-3.0898,-3.0898,-3.0898,-3.0898,-3.0898,-3.0898,-3.0898,-3.0898,-3.0898,-3.0762,-2.9863,-2.9626,-2.947,-2.8555,-2.8301,-2.8301,-2.8301,-2.8301,-2.8301,-2.8301,-2.8301,-2.8301,-2.8301,-2.8301,-2.8301,0.0,-2.8301,-2.8398,-2.8769,-2.8848,-2.8984,-2.9414,-2.9805,-3.0078,-3.0117,-3.0508,-3.082,-3.082,-3.0859,-3.0898,-3.0898,-3.0898,-3.0898,-3.0898,-3.0898,-3.0898,-3.0898,-3.0898,-3.0898,-3.0898,-3.0898,-3.0898,-3.0898,-3.0898,-3.0898,-3.0898,-3.0898,-3.0898,-3.0898,-3.0898,-3.0898,-3.0898,-3.0898,-3.0898,-3.0898,-3.0898,-3.0898,-3.0898,-3.0898,-3.0898,-3.0898,-3.0898,-3.0898,-3.0898,-3.0898,-3.0898,-3.0898,0.0,0.0,0.0,0.0,0.0,0.0,0.0,0.0,0.0,-3.6703,-3.6595,-3.5999,-3.4515,-3.4403,-3.381,-3.2322,-3.3529,-3.4146,-3.3473,-3.2644,-3.2207,-3.2207,-3.1383,-3.0898,-3.0898,-3.0898,-3.0898,-3.0898,-3.0898,-3.0898,-3.0898,-3.0898,-3.0898,-3.0898,-3.0898,-3.0898,-3.0898,-3.0898,-3.0898,-3.0898,-3.0898,-3.0898,-3.0898,-3.0898,-3.0898,-3.0898,-3.0898,-3.0898,0.0,0.0,-2.9626,-2.947,-2.8555,-2.8301,-2.8301,-2.8301,-2.8301,-2.8301,-2.8301,-2.8301,-2.8301,-2.8301,-2.8301,-2.8359,-2.8594,-2.8652,-2.8769,-2.9219,-2.9297,-2.9434,-2.9863,-3.0078,-3.0293,-3.0547,-3.0762,-3.0898,-3.0898,-3.0898,-3.0898,-3.0898,-3.0898,-3.0898,-3.0898,-3.0898,-3.0898,-3.0898,-3.0898,-3.0898,-3.0898,-3.0898,-3.0898,-3.0898,-3.0898,-3.0898,-3.0898,-3.0898,-3.0898,-3.0898,-3.0898,-3.0898,-3.0898,-3.0898,-3.0898,-3.0898,-3.0898,-3.0898,-3.0898,-3.0898,-3.0898,-3.0898,-3.0898,-3.0898,-3.0898,-3.0898,-3.0898,-3.0898,0.0,0.0,0.0,0.0,0.0,0.0,0.0,0.0,0.0,0.0,-3.8137,-3.753,-3.6054,-3.589,-3.5288,-3.3845,-3.5068,-3.5727,-3.5343,-3.4292,-3.3698,-3.3698,-3.2701,-3.194,-3.1498,-3.1498,-3.1325,-3.0898,-3.0898,-3.0898,-3.0898,-3.0898,-3.0898,-3.0898,-3.0898,-3.0898,-3.0898,-3.0898,-3.0898,-3.0898,-3.0898,-3.0898,-3.0898,-3.0898,-3.0898,-3.0898,-3.0898,-3.082,0.0,0.0,-2.9492,-2.9258,-2.8516,-2.8301,-2.8301,-2.8301,-2.8301,-2.8301,-2.8301,-2.8301,-2.832,-2.8437,-2.8457,-2.8574,-2.9004,-2.9101,-2.9219,-2.9648,-2.9746,-2.9863,-3.0312,-3.0391,-3.0488,-3.084,-3.0898,-3.0898,-3.0898,-3.0898,-3.0898,-3.0898,-3.0898,-3.0898,-3.0898,-3.0898,-3.0898,-3.0898,-3.0898,-3.0898,-3.0898,-3.0898,-3.0898,-3.0898,-3.0898,-3.0898,-3.0898,-3.0898,-3.0898,-3.0898,-3.0898,-3.0898,-3.0898,-3.0898,-3.0898,-3.0898,-3.0898,-3.0898,-3.0898,-3.0898,-3.0898,-3.0898,-3.0898,-3.0898,-3.0898,-3.0898,-3.0898,-3.0898,0.0,0.0,0.0,0.0,0.0,0.0,0.0,0.0,0.0,0.0,0.0,0.0,0.0,-3.74,-3.6811,-3.5343,-3.6595,-3.6811,-3.5398,-3.5233,-3.5233,-3.5233,-3.5178,-3.4515,-3.3077,-3.3021,-3.2322,-3.0898,-3.0898,-3.0898,-3.0898,-3.0898,-3.0898,-3.0898,-3.0898,-3.0898,-3.0898,-3.0898,-3.0898,-3.0898,-3.0898,-3.0898,-3.0898,-3.0898,-3.0898,-3.0898,-3.0898,0.0,0.0,-2.9726,-2.9297,-2.8867,-2.8437,-2.8301,-2.8301,-2.8301,-2.8301,-2.8301,-2.8301,-2.8301,-2.8398,-2.8789,-2.8906,-2.9004,-2.9453,-2.9551,-2.9668,-3.0098,-3.0176,-3.0312,-3.0781,-3.0859,-3.0879,-3.0898,-3.0898,-3.0898,-3.0898,-3.0898,-3.0898,-3.0898,-3.0898,-3.0898,-3.0898,-3.0898,-3.0898,-3.0898,-3.0898,-3.0898,-3.0898,-3.0898,-3.0898,-3.0898,-3.0898,-3.0898,-3.0898,-3.0898,-3.0898,-3.0898,-3.0898,-3.0898,-3.0898,-3.0898,-3.0898,-3.0898,-3.0898,-3.0898,-3.0898,-3.0898,-3.0898,-3.0898,-3.0898,-3.0898,-3.0898,-3.0898,-3.0898,-3.0898,0.0,0.0,0.0,0.0,0.0,0.0,0.0,0.0,0.0,0.0,0.0,0.0,0.0,0.0,0.0,0.0,-3.8084,-3.8739,-3.8267,-3.7317,-3.6757,-3.6757,-3.5836,-3.5068,-3.457,-3.457,-3.3866,-3.2358,-3.2358,-3.1883,-3.0898,-3.0898,-3.0898,-3.0898,-3.0898,-3.0898,-3.0898,-3.0898,-3.0898,-3.0898,-3.0898,-3.0703,-3.043,-3.043,-3.0254,-3.0019,0.0,0.0,0.0,-2.9375,-2.9043,-2.8848,-2.8418,-2.8301,-2.8301,-2.8301,-2.8301,-2.8359,-2.8633,-2.8711,-2.8809,-2.9238,-2.9355,-2.9453,-2.9883,-2.998,-3.0117,-3.0566,-3.0664,-3.0703,-3.0859,-3.0898,-3.0898,-3.0898,-3.0898,-3.0898,-3.0898,-3.0898,-3.0898,-3.0898,-3.0898,-3.0898,-3.0898,-3.0898,-3.0898,-3.0898,-3.0898,-3.0898,-3.0898,-3.0898,-3.0898,-3.0898,-3.0898,-3.0898,-3.0898,-3.0898,-3.0898,-3.0898,-3.0898,-3.0898,-3.0898,-3.0898,-3.0898,-3.0898,-3.0898,-3.0898,-3.0898,-3.0898,-3.0898,-3.0898,-3.0898,-3.0898,-3.0898,-3.0898,-3.0898,-3.0898,0.0,0.0,0.0,0.0,0.0,0.0,0.0,0.0,0.0,0.0,0.0,0.0,0.0,0.0,0.0,0.0,0.0,-3.9697,-3.9697,-3.8792,-3.8295,-3.8295,-3.737,-3.6526,-3.5856,-3.5779,-3.4984,-3.3274,-3.3446,-3.2826,-3.1354,-3.1592,-3.1383,-3.0879,-3.0723,-3.0644,-3.0625,-3.0488,-3.043,-3.043,-3.043,-3.0234,-2.998,-2.998,-2.9805,0.0,0.0,0.0,-2.9648,-2.9101,-2.8809,-2.8652,-2.8379,-2.8301,-2.8301,-2.8301,-2.8398,-2.8574,-2.8848,-2.9023,-2.9258,-2.9687,-2.9785,-2.9902,-3.0351,-3.0449,-3.0527,-3.082,-3.0898,-3.0898,-3.0898,-3.0898,-3.0898,-3.0898,-3.0898,-3.0898,-3.0898,-3.0898,-3.0898,-3.0898,-3.0898,-3.0898,-3.0898,-3.0898,-3.0898,-3.0898,-3.0898,-3.0898,-3.0898,-3.0898,-3.0898,-3.0898,-3.0898,-3.0898,-3.0898,-3.0898,-3.0898,-3.0898,-3.0898,-3.0898,-3.0898,-3.0898,-3.0898,-3.0898,-3.0898,-3.0898,-3.0898,-3.0898,-3.0898,-3.0898,-3.0898,-3.0898,-3.0898,-3.0898,-3.0898,-3.0898,0.0,0.0,0.0,0.0,0.0,0.0,0.0,0.0,0.0,0.0,0.0,0.0,0.0,0.0,0.0,0.0,0.0,0.0,-3.9697,-3.9697,-3.9697,-3.9697,-3.9672,-3.8753,-3.6848,-3.6772,-3.5759,-3.3682,-3.4151,-3.3617,-3.2177,-3.2671,-3.2183,-3.0801,-3.0351,-3.0156,-3.0137,-2.9746,-2.9626,-2.9626,-2.9626,-2.9607,-2.9531,-2.9531,-2.9531,0.0,-2.9043,-2.8887,-2.8887,-2.8887,-2.8633,-2.8301,-2.8301,-2.8301,-2.8301,-2.832,-2.8613,-2.8926,-2.8965,-2.9277,-2.9707,-3.0137,-3.0234,-3.0351,-3.0801,-3.0898,-3.0898,-3.0898,-3.0898,-3.0898,-3.0898,-3.0898,-3.0898,-3.0898,-3.0898,-3.0898,-3.0898,-3.0898,-3.0898,-3.0898,-3.0898,-3.0898,-3.0898,-3.0898,-3.0898,-3.0898,-3.0898,-3.0898,-3.0898,-3.0898,-3.0898,-3.0898,-3.0898,-3.0898,-3.0898,-3.0898,-3.0898,-3.0898,-3.0898,-3.0898,-3.0898,-3.0898,-3.0898,-3.0898,-3.0898,-3.0898,-3.0898,-3.0898,-3.0898,-3.0898,-3.0898,-3.0898,-3.0898,-3.0898,-3.0898,-3.0898,0.0,0.0,0.0,0.0,0.0,0.0,0.0,0.0,0.0,0.0,0.0,0.0,0.0,0.0,0.0,0.0,0.0,0.0,-3.9697,-3.9697,-3.9697,-3.9697,-3.9295,-3.8842,-3.8336,-3.7915,-3.6889,-3.524,-3.4366,-3.319,-3.1751,-3.0868,-3.0277,-2.9902,-2.9785,-2.9726,-2.9726,-2.9609,-2.9626,-2.9626,-2.9626,-2.9375,-2.9082,-2.9082,-2.8887,-2.8613,-2.8496,-2.8457,-2.8457,-2.8457,-2.8379,-2.8301,-2.8301,-2.8301,-2.8359,-2.8672,-2.8828,-2.9062,-2.9687,-2.9961,-3.0156,-3.0605,-3.0703,-3.0742,-3.0859,-3.0898,-3.0898,-3.0898,-3.0898,-3.0898,-3.0898,-3.0898,-3.0898,-3.0898,-3.0898,-3.0898,-3.0898,-3.0898,-3.0898,-3.0898,-3.0898,-3.0898,-3.0898,-3.0898,-3.0898,-3.0898,-3.0898,-3.0898,-3.0898,-3.0898,-3.0898,-3.0898,-3.0898,-3.0898,-3.0898,-3.0898,-3.0898,-3.0898,-3.0898,-3.0898,-3.0898,-3.0898,-3.0898,-3.0898,-3.0898,-3.0898,-3.0898,-3.0898,-3.0898,-3.0898,-3.0898,-3.0898,-3.0898,-3.0898,-3.0898,-3.0898,0.0,0.0,0.0,0.0,0.0,0.0,0.0,0.0,0.0,0.0,0.0,0.0,0.0,0.0,0.0,0.0,0.0,0.0,0.0,-3.9697,-3.9697,-3.9697,-3.917,-3.8793,-3.8492,-3.7939,-3.7121,-3.6062,-3.5556,-3.4223,-3.2179,-3.1716,-3.0785,-2.957,-2.9375,-2.9277,-2.9277,-2.9082,-2.9004,0.0,0.0,-2.8867,-2.8652,-2.8652,-2.8496,-2.8301,-2.8301,-2.8301,-2.8301,-2.8301,-2.8301,-2.8301,-2.8301,-2.8301,-2.8379,-2.8789,-2.9062,-2.9355,-3.0019,-3.0351,-3.0566,-3.082,-3.0898,-3.0898,-3.0898,-3.0898,-3.0898,-3.0898,-3.0898,-3.0898,-3.0898,-3.0898,-3.0898,-3.0898,-3.0898,-3.0898,-3.0898,-3.0898,-3.0898,-3.0898,-3.0898,-3.0898,-3.0898,-3.0898,-3.0898,-3.0898,-3.0898,-3.0898,-3.0898,-3.0898,-3.0898,-3.0898,-3.0898,-3.0898,-3.0898,-3.0898,-3.0898,-3.0898,-3.0898,-3.0898,-3.0898,-3.0898,-3.0898,-3.0898,-3.0898,-3.0898,-3.0898,-3.0898,-3.0898,-3.0898,-3.0898,-3.0898,-3.0898,-3.0898,-3.0898,-3.0898,0.0,0.0,0.0,0.0,0.0,0.0,0.0,0.0,0.0,0.0,0.0,0.0,0.0,0.0,0.0,0.0,0.0,0.0,0.0,0.0,0.0,-3.9697,-3.9094,-3.8517,-3.8015,-3.7387,-3.6883,-3.6405,-3.6691,-3.5597,-3.3208,-3.3324,-3.2041,-2.9652,-2.9059,-2.8828,-2.8809,-2.8437,-2.8301,-2.8301,-2.8301,-2.8301,-2.8301,0.0,0.0,-2.8301,-2.8301,-2.8301,-2.8301,-2.8301,-2.8301,-2.8301,-2.8301,-2.8301,-2.8379,-2.8867,-2.9277,-2.9668,-3.0156,-3.0586,-3.0898,-3.0898,-3.0898,-3.0898,-3.0898,-3.0898,-3.0898,-3.0898,-3.0898,-3.0898,-3.0898,-3.0898,-3.0898,-3.0898,-3.0898,-3.0898,-3.0898,-3.0898,-3.0898,-3.0898,-3.0898,-3.0898,-3.0898,-3.0898,-3.0898,-3.0898,-3.0898,-3.0898,-3.0898,-3.0898,-3.0898,-3.0898,-3.0898,-3.0898,-3.0898,-3.0898,-3.0898,-3.0898,-3.0898,-3.0898,-3.0898,-3.0898,-3.0898,-3.0898,-3.0898,-3.0898,-3.0898,-3.0898,-3.0898,-3.0898,-3.0898,-3.0898,-3.0898,-3.0898,-3.0898,-3.0898,0.0,0.0,0.0,0.0,0.0,0.0,0.0,0.0,0.0,0.0,-3.9697,-3.9697,0.0,0.0,0.0,0.0,0.0,0.0,0.0,0.0,0.0,0.0,-3.8718,-3.8115,-3.8015,-3.701,-3.6505,-3.6405,-3.5356,-3.4626,-3.4111,-3.1944,-3.0663,-3.0139,-2.8953,-2.8398,-2.8398,-2.832,-2.8301,-2.8301,-2.8301,-2.8301,-2.8301,0.0,0.0,0.0,-2.8301,-2.8301,-2.8301,-2.8301,-2.8301,-2.8301,-2.8301,-2.8301,-2.8437,-2.9219,-2.9567,-2.9746,-3.0547,-3.082,-3.0898,-3.0898,-3.0898,-3.0898,-3.0898,-3.0898,-3.0898,-3.0898,-3.0898,-3.0898,-3.0898,-3.0898,-3.0898,-3.0898,-3.0898,-3.0898,-3.0898,-3.0898,-3.0898,-3.0898,-3.0898,-3.0898,-3.0898,-3.0898,-3.0898,-3.0898,-3.0898,-3.0898,-3.0898,-3.0898,-3.0898,-3.0898,-3.0898,-3.0898,-3.0898,-3.0898,-3.0898,-3.0898,-3.0898,-3.0898,-3.0898,-3.0898,-3.0898,-3.0898,-3.0898,-3.0898,-3.0898,-3.0898,-3.0898,-3.0898,-3.0898,-3.0898,-3.0898,-3.0898,-3.0898,-3.0898,0.0,0.0,0.0,0.0,0.0,0.0,0.0,-3.9697,-3.9697,-3.9697,-3.9697,-3.9697,-3.9697,-3.9697,-3.9697,0.0,0.0,0.0,0.0,0.0,0.0,0.0,0.0,0.0,-3.8015,-3.7211,-3.6707,-3.6405,0.0,-3.4727,-3.3254,-3.1927,-3.0618,-2.9197,-2.8601,-2.8301,-2.8301,-2.8301,-2.8301,-2.8301,-2.8301,-2.8301,0.0,0.0,0.0,0.0,0.0,-2.8301,-2.8301,-2.8301,-2.8301,-2.8301,-2.8301,-2.8301,-2.8457,-2.9316,-2.9626,-2.9766,-3.0644,-3.0898,-3.0898,-3.0898,-3.0898,-3.0898,-3.0898,-3.0898,-3.082,-3.0586,-3.0723,-3.082,-3.0566,-3.0723,-3.0898,-3.0898,-3.0898,-3.0898,-3.0898,-3.0898,-3.0898,-3.0898,-3.0898,-3.0898,-3.0898,-3.0898,-3.0898,-3.0898,-3.0898,-3.0898,-3.0898,-3.0898,-3.0898,-3.0898,-3.0898,-3.0898,-3.0898,-3.0898,-3.0898,-3.0898,-3.0898,-3.0996,-3.1211,-3.1211,-3.1348,-3.1562,-3.1562,-3.1562,-3.1543,-3.1309,-3.1211,-3.1191,-3.0976,-3.0898,-3.0898,-3.0898,-3.0898,-3.0898,0.0,0.0,0.0,0.0,0.0,0.0,0.0,-3.9697,-3.9697,-3.9697,-3.9697,-3.9697,-3.9697,-3.9697,-3.9697,0.0,0.0,0.0,0.0,0.0,0.0,0.0,0.0,0.0,0.0,0.0,0.0,-3.6405,-3.6405,0.0,0.0,0.0,0.0,0.0,-2.8548,-2.8301,-2.8301,-2.8301,-2.8301,0.0,0.0,-2.8301,0.0,0.0,0.0,0.0,0.0,-2.8301,-2.8301,-2.8301,-2.8301,-2.8301,-2.8301,-2.8301,-2.8437,-2.9199,-2.9492,-2.9746,-3.0527,-3.082,-3.0898,-3.0898,-3.0898,-3.0898,-3.0898,-3.082,-3.0644,-3.0273,-3.041,-3.0527,-3.0254,-3.0488,-3.0781,-3.0879,-3.0898,-3.0898,-3.0898,-3.0898,-3.0898,-3.0898,-3.0898,-3.0898,-3.0898,-3.0898,-3.0898,-3.0898,-3.0898,-3.0898,-3.0898,-3.0898,-3.0898,-3.0898,-3.0898,-3.0898,-3.0898,-3.0898,-3.0937,-3.1035,-3.1035,-3.125,-3.166,-3.166,-3.1836,-3.2229,-3.2229,-3.2229,-3.2148,-3.1797,-3.166,-3.1621,-3.1289,-3.1172,-3.1172,-3.1172,-3.1172,-3.1172,0.0,0.0,0.0,0.0,0.0,0.0,0.0,-3.9697,-3.9697,-3.9697,-3.9697,-3.9697,-3.9697,-3.9697,-3.9697,0.0,0.0,0.0,0.0,0.0,0.0,0.0,0.0,0.0,0.0,0.0,0.0,-3.6405,-3.6405,0.0,0.0,0.0,0.0,0.0,0.0,-2.8301,-2.8301,-2.8301,0.0,0.0,0.0,0.0,0.0,0.0,0.0,0.0,0.0,-2.8301,-2.8301,-2.8301,-2.8301,-2.8301,-2.8301,-2.8301,-2.8379,-2.8848,-2.9258,-2.9668,-3.0137,-3.0566,-3.0898,-3.0898,-3.0898,-3.0898,-3.0898,-3.0566,-3.0254,-3.0215,-2.9922,-2.9785,-3.0137,-3.0234,-3.0391,-3.082,-3.0898,-3.0898,-3.0898,-3.0898,-3.0898,-3.0898,-3.0898,-3.0898,-3.0898,-3.0898,-3.0898,-3.0898,-3.0898,-3.0898,-3.0898,-3.0898,-3.0898,-3.0898,-3.0898,-3.0898,-3.0898,-3.0898,-3.1074,-3.1465,-3.1465,-3.1699,-3.2109,-3.2109,-3.2129,-3.2229,-3.2229,-3.2229,-3.2229,-3.2129,-3.2109,-3.2109,-3.207,-3.2051,-3.2051,-3.2051,-3.2051,-3.2051,0.0,0.0,0.0,0.0,0.0,0.0,-3.9697,-3.9697,-3.9697,-3.9697,-3.9697,-3.9697,-3.9697,-3.9697,-3.9697,-3.9697,0.0,0.0,0.0,0.0,0.0,0.0,0.0,0.0,0.0,0.0,-3.7412,-3.6908,-3.6581,0.0,0.0,0.0,0.0,0.0,0.0,-2.8301,-2.8301,-2.8301,0.0,0.0,0.0,0.0,0.0,0.0,0.0,0.0,0.0,0.0,-2.8301,-2.8301,-2.8301,-2.8301,-2.8301,-2.8301,-2.8379,-2.8789,-2.9043,-2.9336,-3.0019,-3.0332,-3.0547,-3.082,-3.0898,-3.082,-3.0527,-3.0332,-3.0059,-2.9531,-2.9512,-2.9685,-2.9785,-3.0019,-3.0351,-3.082,-3.0898,-3.0898,-3.0898,-3.0898,-3.0898,-3.0898,-3.0898,-3.0898,-3.0898,-3.0898,-3.0898,-3.0898,-3.0898,-3.0898,-3.0898,-3.0898,-3.0898,-3.0898,-3.0898,-3.0898,-3.0898,-3.1133,-3.1348,-3.1523,-3.1777,-3.2129,-3.2539,-3.2539,-3.2676,-3.293,-3.293,-3.293,-3.291,-3.2656,-3.2539,-3.2519,-3.2266,-3.2229,-3.2229,-3.2229,-3.2229,-3.2229,0.0,0.0,0.0,0.0,0.0,-3.9697,-3.9697,-3.9697,-3.9697,-3.9697,-3.9697,-3.9697,-3.9697,-3.9697,-3.9697,-3.9697,-3.9697,0.0,0.0,0.0,0.0,0.0,0.0,0.0,0.0,0.0,-3.7739,-3.7186,-3.6681,-3.5906,0.0,0.0,-3.1774,-3.0824,0.0,0.0,0.0,0.0,0.0,0.0,0.0,0.0,0.0,0.0,0.0,0.0,0.0,0.0,0.0,0.0,0.0,-2.8301,-2.8301,-2.8301,-2.8359,-2.8652,-2.8828,-2.9043,-2.9648,-2.9922,-3.0098,-3.041,-3.0508,-3.041,-3.0078,-2.9922,-2.9648,-2.9043,-2.9062,-2.9277,-2.9531,-2.9805,-3.0215,-3.0801,-3.0898,-3.0898,-3.0898,-3.0898,-3.0898,-3.0898,-3.0898,-3.0898,-3.0898,-3.0898,-3.0898,-3.0898,-3.0898,-3.0898,-3.0898,-3.0898,-3.0898,-3.0898,-3.0898,-3.0957,-3.1074,-3.1367,-3.1641,-3.1894,-3.2207,-3.2578,-3.2988,-3.2988,-3.3144,-3.3418,-3.3418,-3.3418,-3.3398,-3.3105,-3.2988,-3.2949,-3.2656,-3.2539,-3.2539,-3.2539,-3.2539,-3.2539,0.0,0.0,0.0,0.0,0.0,0.0,-3.9697,-3.9697,-3.9697,-3.9697,-3.9697,-3.9697,-3.9697,-3.9697,-3.9697,-3.9697,-3.9697,0.0,0.0,0.0,0.0,0.0,0.0,0.0,0.0,0.0,-3.7739,-3.7186,-3.6681,-3.6405,-3.631,-3.3578,-3.228,-3.218,0.0,0.0,0.0,0.0,0.0,0.0,0.0,0.0,0.0,0.0,0.0,0.0,0.0,0.0,0.0,0.0,0.0,0.0,0.0,-2.8301,-2.8301,-2.8301,-2.8594,-2.8926,-2.8926,-2.9258,-2.9626,-2.9646,-2.9646,-2.9646,-2.9626,-2.9238,-2.8926,-2.8926,-2.8594,-2.8574,-2.9414,-2.957,-2.9863,-3.0742,-3.0898,-3.0898,-3.0898,-3.0898,-3.0898,-3.0898,-3.0898,-3.0898,-3.0898,-3.0898,-3.0898,-3.0898,-3.0898,-3.0898,-3.0898,-3.0898,-3.0898,-3.0898,-3.0898,-3.1094,-3.1504,-3.1523,-3.1934,-3.2793,-3.2793,-3.3008,-3.3418,-3.3418,-3.3418,-3.3418,-3.3418,-3.3418,-3.3418,-3.3418,-3.3418,-3.3418,-3.3418,-3.3418,-3.3418,-3.3418,-3.3418,-3.3418,0.0,0.0,0.0,0.0,0.0,0.0,0.0,-3.9697,-3.9697,-3.9697,-3.9697,-3.9697,-3.9697,-3.9697,-3.9697,-3.9697,-3.9697,0.0,0.0,0.0,0.0,0.0,0.0,0.0,0.0,0.0,-3.7914,-3.7739,-3.6857,-3.6405,-3.6358,-3.3601,-3.228,-3.218,-2.9513,-2.8301,0.0,0.0,0.0,0.0,0.0,0.0,-2.8301,0.0,0.0,0.0,0.0,0.0,0.0,0.0,0.0,0.0,0.0,0.0,0.0,-2.8301,-2.8398,-2.8555,-2.8848,-2.9023,-2.9199,-2.9492,-2.9626,-2.9492,-2.9199,-2.9023,-2.8848,-2.8555,-2.8379,-2.8555,-2.9414,-2.9626,-2.992,-3.0742,-3.0898,-3.0898,-3.0898,-3.0898,-3.0898,-3.0898,-3.0898,-3.0898,-3.0898,-3.0898,-3.0898,-3.0898,-3.0898,-3.0898,-3.0898,-3.0898,-3.0898,-3.0898,-3.1172,-3.1387,-3.1523,-3.209,-3.2519,-3.2793,-3.3086,-3.3301,-3.3418,-3.3418,-3.3418,-3.3418,-3.3418,-3.3418,-3.3418,-3.3418,-3.3418,-3.3418,-3.3418,-3.3418,-3.3418,-3.3418,-3.3418,-3.3418,0.0,0.0,0.0,0.0,0.0,0.0,0.0,-3.9697,-3.9697,-3.9697,-3.9697,-3.9697,-3.9697,-3.9697,-3.9697,-3.9697,-3.9697,0.0,0.0,0.0,0.0,0.0,0.0,0.0,-3.9697,-3.8793,-3.8216,-3.8015,-3.7111,-3.6606,-3.6358,-3.3601,-3.228,-3.218,-2.9513,-2.8301,0.0,0.0,0.0,0.0,0.0,0.0,-2.8301,0.0,0.0,0.0,0.0,0.0,0.0,0.0,0.0,0.0,0.0,0.0,0.0,0.0,-2.8301,-2.834,-2.8613,-2.8672,-2.875,-2.9023,-2.9082,-2.9023,-2.875,-2.8672,-2.8613,-2.834,-2.8301,-2.8555,-2.9414,-2.9626,-2.992,-3.0742,-3.0898,-3.0898,-3.0898,-3.0898,-3.0898,-3.0898,-3.0898,-3.0898,-3.0898,-3.0898,-3.0898,-3.0898,-3.0898,-3.0898,-3.0898,-3.0898,-3.0957,-3.1133,-3.1387,-3.168,-3.1992,-3.2519,-3.2871,-3.3027,-3.3301,-3.3418,-3.3418,-3.3418,-3.3418,-3.3418,-3.3418,-3.3418,0.0,-3.3418,-3.3418,-3.3418,-3.3418,-3.3418,-3.3418,-3.3418,-3.3418,-3.3418,0.0,0.0,0.0,0.0,0.0,0.0,0.0,-3.9697,-3.9697,-3.9697,-3.9697,-3.9697,-3.9697,-3.9697,-3.9697,-3.9697,0.0,0.0,0.0,0.0,0.0,0.0,0.0,0.0,-3.9697,-3.9145,-3.8592,-3.8015,-3.7462,-3.6958,-3.6358,-3.37,-3.2381,-3.218,-2.9618,-2.8388,-2.8301,-2.8301,-2.8301,-2.8301,-2.8301,-2.8301,0.0,0.0,0.0,0.0,0.0,0.0,0.0,0.0,0.0,0.0,0.0,0.0,0.0,0.0,0.0,0.0,0.0,-2.8228,-2.8301,-2.8301,-2.8228,-2.8121,-2.8121,-2.8121,0.0,-2.8121,-2.8228,-2.8555,-2.9414,-2.9626,-2.992,-3.0742,-3.0898,-3.0898,-3.0898,-3.0898,-3.0898,-3.0898,-3.0898,-3.0898,-3.0898,-3.0898,-3.0898,-3.0898,-3.0898,-3.0898,-3.0898,-3.0898,-3.1094,-3.1543,-3.1562,-3.1953,-3.2793,-3.2832,-3.3027,-3.3418,-3.3418,-3.3418,-3.3418,-3.3418,-3.3418,-3.3418,-3.3418,-3.3418,-3.3418,-3.3418,-3.3418,-3.3418,-3.3418,-3.3418,-3.3418,-3.3418,-3.3418,-3.3418,0.0,0.0,0.0,0.0,0.0,0.0,0.0,0.0,0.0,0.0,-3.9697,-3.9697,-3.9697,-3.9697,-3.9697,0.0,0.0,0.0,0.0,0.0,0.0,0.0,0.0,0.0,-3.9697,-3.9145,-3.8592,-3.8015,-3.7462,-3.6958,-3.6358,-3.4678,-3.3304,-3.223,-3.0566,-2.925,-2.8301,-2.8301,-2.8301,-2.8301,-2.8301,-2.8301,0.0,0.0,0.0,0.0,-2.8301,-2.8301,0.0,0.0,0.0,0.0,0.0,0.0,0.0,0.0,-2.7492,-2.6608,-2.6608,0.0,-2.8301,-2.8301,-2.7457,-2.6608,0.0,-2.6608,-2.6608,-2.6608,-2.7511,-2.8555,-2.9414,-2.9626,-2.992,-3.0742,-3.0898,-3.0898,-3.0898,-3.0898,-3.0898,-3.0898,-3.0898,-3.0898,-3.0898,-3.0898,-3.0898,-3.0898,-3.0898,-3.0898,-3.0898,-3.0898,-3.123,-3.1992,-3.2012,-3.2266,-3.2793,-3.3105,-3.332,-3.3418,-3.3418,-3.3418,-3.3418,-3.3418,-3.3418,-3.3418,-3.3418,-3.3418,-3.3418,-3.3418,-3.3418,-3.3418,-3.3418,-3.3418,-3.3418,-3.3418,-3.3418,-3.3418,0.0,0.0,0.0,0.0,0.0,0.0,0.0,0.0,0.0,0.0,0.0,-3.9697,-3.9697,-3.9697,0.0,0.0,0.0,0.0,0.0,0.0,0.0,0.0,0.0,-3.9362,-3.8687,-3.8393,-3.7545,-3.606,-3.5774,-3.5248,-3.4484,-3.3155,-3.2101,-3.1316,-2.9964,-2.9006,-2.8301,-2.8301,-2.8301,-2.8301,-2.8301,0.0,0.0,0.0,0.0,0.0,-2.8301,-2.8301,0.0,-2.8301,-2.8301,-2.8301,0.0,0.0,0.0,0.0,-2.7276,-2.61,-2.61,-2.6662,-2.7276,-2.7276,-2.6717,-2.61,-2.61,-2.61,-2.61,-2.61,-2.7427,-2.8789,-2.9453,-2.9726,-3.0078,-3.0781,-3.0898,-3.0898,-3.0898,-3.0898,-3.0898,-3.0898,-3.0898,-3.0898,-3.0898,-3.0898,-3.0898,-3.0898,-3.0898,-3.0898,-3.0898,-3.0898,-3.1191,-3.1855,-3.207,-3.2461,-3.3066,-3.3301,-3.3418,-3.3418,-3.3418,-3.3418,-3.3418,-3.3418,-3.3418,-3.3418,-3.3418,-3.3418,-3.3418,-3.3418,-3.3418,-3.3418,-3.3418,-3.3418,-3.3418,-3.3418,-3.3418,-3.3418,0.0,0.0,0.0,0.0,0.0,0.0,0.0,0.0,0.0,0.0,0.0,0.0,0.0,0.0,0.0,0.0,0.0,0.0,0.0,0.0,0.0,0.0,-3.9025,-3.8425,-3.7186,-3.7133,-3.6077,-3.3869,-3.3854,-3.3339,-3.2392,-3.1154,-3.0514,-3.0224,-2.89,-2.8301,-2.8301,-2.8301,-2.8301,-2.8301,-2.8301,0.0,0.0,0.0,0.0,0.0,0.0,0.0,0.0,-2.8301,-2.8301,-2.8301,-2.8301,0.0,0.0,0.0,0.0,0.0,-2.5426,-2.5426,-2.548,-2.57,-2.559,-2.5426,-2.5426,-2.559,-2.5717,-2.5496,-2.7086,-2.8677,-2.9234,-2.9601,-3.0064,-3.0762,-3.0898,-3.0898,-3.0898,-3.0898,-3.0898,-3.0898,-3.0898,-3.0898,-3.0898,-3.0898,-3.0898,-3.0898,-3.0898,-3.0898,-3.0898,-3.0898,-3.1074,-3.1504,-3.1953,-3.2539,-3.332,-3.3379,-3.3418,-3.3418,-3.3418,-3.3418,-3.3418,-3.3418,-3.3418,-3.3418,-3.3418,-3.3418,-3.3418,-3.3418,-3.3418,-3.3418,-3.3418,-3.3418,-3.3418,-3.3418,-3.3418,-3.3418,0.0,0.0,0.0,0.0,0.0,0.0,0.0,0.0,0.0,0.0,0.0,0.0,0.0,0.0,0.0,0.0,0.0,0.0,0.0,0.0,0.0,-3.5945,-3.5999,-3.5836,-3.5617,-3.5617,-3.5215,-3.4307,-3.3958,-3.3466,-3.2907,-3.2279,-3.1367,-3.0224,-2.89,-2.8301,-2.8301,-2.8301,-2.8301,-2.8301,-2.8301,0.0,0.0,0.0,0.0,0.0,0.0,0.0,0.0,-2.8301,-2.8301,-2.8301,-2.8301,0.0,0.0,0.0,0.0,0.0,-2.2307,-2.2307,-2.2589,-2.3822,-2.3207,-2.2307,-2.2307,-2.3263,-2.3848,-2.285,-2.4901,-2.7118,-2.7904,-2.8144,-2.8753,-3.0568,-3.0898,-3.0898,-3.0898,-3.0898,-3.0898,-3.0898,-3.0898,-3.0898,-3.0898,-3.0898,-3.0898,-3.0898,-3.0898,-3.0898,-3.0898,-3.0898,-3.1074,-3.1504,-3.1953,-3.2402,-3.2891,-3.3242,-3.3418,-3.3418,-3.3418,-3.3418,-3.3418,-3.3418,-3.3418,-3.3418,-3.3418,-3.3418,-3.3418,-3.3418,-3.3418,-3.3418,-3.3418,-3.3418,-3.3418,-3.3418,-3.3418,-3.3418,0.0,0.0,0.0,0.0,0.0,0.0,0.0,0.0,0.0,0.0,0.0,0.0,0.0,0.0,0.0,0.0,0.0,0.0,0.0,0.0,-3.4125,-3.4125,-3.3381,-3.3304,-3.4069,-3.4125,-3.3441,-3.2142,-3.1704,-3.1246,-3.0787,-3.0328,-2.9807,-2.9197,-2.8601,-2.8301,-2.8301,-2.8301,-2.8301,-2.8301,0.0,0.0,0.0,0.0,0.0,0.0,0.0,0.0,0.0,0.0,-2.8301,-2.8301,-2.8301,0.0,0.0,0.0,0.0,0.0,-2.1586,-2.1031,-2.0587,-2.1259,-2.2096,-2.2814,-2.2814,-2.3319,-2.3697,-2.3314,-2.4515,-2.6099,-2.7548,-2.7953,-2.8759,-3.0606,-3.0898,-3.0898,-3.0898,-3.0898,-3.0898,-3.0898,-3.0898,-3.0898,-3.0898,-3.0898,-3.0898,-3.0898,-3.0898,-3.0898,-3.0898,-3.0898,-3.0976,-3.1172,-3.1816,-3.2266,-3.2461,-3.3105,-3.3418,-3.3418,-3.3418,-3.3418,-3.3418,-3.3418,-3.3418,-3.3418,-3.3418,-3.3418,-3.3418,-3.3418,-3.3418,-3.3418,-3.3418,-3.3418,-3.3418,-3.3418,-3.3418,-3.3418,0.0,0.0,0.0,0.0,0.0,0.0,0.0,0.0,0.0,0.0,0.0,0.0,0.0,0.0,0.0,0.0,0.0,0.0,0.0,0.0,-3.2587,-3.2587,-3.1498,-3.1441,-3.2587,-3.2587,-3.1852,-3.0351,-2.9922,-2.9434,-2.8906,-2.8496,-2.8301,-2.8301,-2.8301,-2.8301,-2.8301,-2.8301,-2.8301,-2.8301,0.0,0.0,0.0,0.0,0.0,0.0,0.0,0.0,0.0,0.0,0.0,0.0,0.0,0.0,0.0,-2.5535,-2.3431,-2.1088,-2.1088,-2.0256,-1.943,-1.943,-2.1102,-2.2774,-2.2774,-2.3103,-2.3489,-2.386,-2.4489,-2.5612,-2.761,-2.8523,-2.9412,-3.0704,-3.0898,-3.0898,-3.0898,-3.0898,-3.0898,-3.0898,-3.0898,-3.0898,-3.0898,-3.0898,-3.0898,-3.0898,-3.0898,-3.0898,-3.0898,-3.0898,-3.0898,-3.0898,-3.1621,-3.207,-3.2229,-3.291,-3.332,-3.3418,-3.3418,-3.3418,-3.3418,-3.3418,-3.3418,-3.3418,-3.3418,-3.3418,-3.3418,-3.3418,-3.3418,-3.3418,-3.3418,-3.3418,-3.3418,-3.3418,-3.3418,-3.3418,0.0,0.0,0.0,0.0,0.0,0.0,0.0,0.0,0.0,0.0,0.0,0.0,0.0,0.0,0.0,0.0,0.0,0.0,0.0,0.0,-3.1054,-3.1054,-3.0957,-3.0937,-3.1054,-3.1054,-3.0976,-3.084,-3.0371,-2.9726,-2.8906,-2.8496,-2.8301,-2.8301,-2.8301,-2.8301,-2.8301,-2.8301,-2.8301,-2.8301,-2.8301,0.0,0.0,0.0,0.0,0.0,0.0,0.0,0.0,0.0,0.0,0.0,0.0,0.0,-2.3989,-2.3989,-2.1885,-1.9533,-1.9533,-1.9475,-1.943,-1.943,-1.9533,-1.9707,-1.9707,-2.0989,-2.224,-2.2719,-2.4095,-2.5923,-2.8003,-2.963,-3.0762,-3.0898,-3.0898,-3.0898,-3.0898,-3.0898,-3.0898,-3.0898,-3.0898,-3.0898,-3.0898,-3.0898,-3.0898,-3.0898,-3.0898,-3.0898,-3.0898,-3.0898,-3.0898,-3.0898,-3.1328,-3.1758,-3.2229,-3.2617,-3.3027,-3.3418,-3.3418,-3.3418,-3.3418,-3.3418,-3.3418,-3.3418,-3.3418,-3.3418,-3.3418,-3.3418,-3.3418,-3.3418,-3.3418,-3.3418,-3.3418,-3.3418,-3.3418,-3.3418,0.0,0.0,0.0,0.0,0.0,0.0,0.0,0.0,0.0,0.0,0.0,0.0,0.0,0.0,0.0,0.0,0.0,0.0,0.0,-3.1228,-3.0898,-3.0898,-3.0898,-3.0898,-3.0898,-3.0898,-3.0898,-3.0898,-3.0156,-2.9512,-2.8906,-2.8496,-2.8301,-2.8301,-2.8301,-2.8301,-2.8301,-2.8301,-2.8301,-2.8301,-2.8301,-2.8301,0.0,0.0,0.0,0.0,0.0,0.0,0.0,0.0,-2.8301,-2.8301,-2.8301,-2.6227,-2.3822,-2.3822,-2.1714,-1.943,-1.943,-1.943,-1.943,-1.943,-1.9506,-1.9861,-2.0813,-2.1525,-2.217,-2.2722,-2.3399,-2.4535,-2.6523,-2.9098,-3.0587,-2.953,-3.0216,-3.0898,-3.0898,-3.0898,-3.0898,-3.0898,-3.0898,-3.0898,-3.0898,-3.0898,-3.0898,-3.0898,-3.0898,-3.0898,-3.0898,-3.0898,-3.0898,-3.0898,-3.1309,-3.1719,-3.2229,-3.2578,-3.3008,-3.3418,-3.3418,-3.3418,-3.3418,-3.3418,-3.3418,-3.3418,-3.3418,-3.3418,-3.3418,-3.3418,-3.3418,-3.3418,-3.3418,-3.3418,-3.3418,-3.3418,-3.3418,-3.3418,0.0,0.0,0.0,0.0,0.0,0.0,0.0,0.0,0.0,0.0,0.0,0.0,0.0,0.0,0.0,0.0,0.0,0.0,-3.1767,-3.117,-3.0898,-3.0898,-3.0898,-3.0898,-3.0898,-3.0898,-3.0898,-3.0898,-3.0137,-2.9551,-2.9121,-2.8691,-2.8418,-2.8301,-2.8301,-2.8301,-2.8301,-2.8301,-2.8301,-2.8301,-2.8301,-2.8301,0.0,0.0,0.0,0.0,0.0,0.0,0.0,0.0,-2.8301,-2.8301,-2.8301,-2.6227,-2.3822,-2.3822,-2.204,-1.9982,-1.9533,-1.9764,-1.9982,-1.9533,-1.9586,-2.011,-2.1171,-2.1493,-2.1873,-2.2748,-2.3521,-2.4556,-2.6419,-2.8605,-2.9903,-2.9275,-3.0138,-3.0898,-3.0898,-3.0898,-3.0898,-3.0898,-3.0898,-3.0898,-3.0898,-3.0898,-3.0898,-3.0898,-3.0898,-3.0898,-3.0898,-3.0898,-3.0898,-3.0898,-3.1172,-3.1523,-3.1953,-3.2383,-3.2812,-3.3223,-3.3359,-3.3418,-3.3418,-3.3418,-3.3418,-3.3418,-3.3418,-3.3418,-3.3418,-3.3418,-3.3418,-3.3418,-3.3418,-3.3418,-3.3418,-3.3418,-3.3418,-3.3418,0.0,0.0,0.0,0.0,0.0,0.0,0.0,0.0,0.0,0.0,0.0,0.0,0.0,0.0,0.0,0.0,0.0,0.0,-3.3191,-3.171,-3.0898,-3.0898,-3.0898,-3.0898,-3.0898,-3.0898,-3.0898,-3.0898,-3.043,-2.998,-2.9626,-2.9121,-2.8691,-2.8301,-2.8301,-2.8301,-2.8301,-2.8301,-2.8301,-2.8301,-2.8301,-2.8301,-2.8301,0.0,0.0,0.0,0.0,0.0,0.0,0.0,-2.8301,-2.8301,-2.8301,-2.6227,-2.3822,-2.3822,-2.2758,-2.1259,-1.9809,-2.0486,-2.1259,-1.9764,-1.9586,-1.988,-2.0174,-2.0468,-2.1163,-2.2776,-2.4648,-2.647,-2.8051,-2.8408,-2.892,-3.0587,-3.0898,-3.0898,-3.0898,-3.0898,-3.0898,-3.0898,-3.0898,-3.0898,-3.0898,-3.0898,-3.0898,-3.0898,-3.0898,-3.0898,-3.0898,-3.0898,-3.0898,-3.0898,-3.0898,-3.1094,-3.1504,-3.1953,-3.2383,-3.2793,-3.3223,-3.3418,-3.3418,-3.3418,-3.3418,-3.3418,-3.3418,-3.3418,-3.3418,-3.3418,-3.3418,-3.3418,-3.3418,-3.3418,-3.3418,-3.3418,-3.3418,-3.3418,0.0,0.0,0.0,0.0,0.0,0.0,0.0,0.0,0.0,0.0,0.0,0.0,0.0,0.0,0.0,0.0,0.0,0.0,-3.171,-3.117,-3.0898,-3.0898,-3.0898,-3.0898,-3.0898,-3.0898,-3.0898,-3.0898,-3.043,-3.0137,-3.0,-2.9258,-2.8848,-2.8711,-2.8418,-2.8301,-2.8301,-2.8301,-2.8301,-2.8301,-2.8301,-2.8301,-2.8301,0.0,0.0,0.0,0.0,0.0,0.0,0.0,0.0,0.0,-2.8301,-2.6227,-2.3822,-2.3822,-2.204,-1.9982,-1.9533,-1.9707,-1.9924,-1.9533,-1.9733,-2.0134,-2.0153,-2.0468,-2.1218,-2.3071,-2.3932,-2.4778,-2.6409,-2.7632,-2.8545,-2.9039,-3.0138,-3.0898,-3.0898,-3.0898,-3.0898,-3.0898,-3.0898,-3.0898,-3.0898,-3.0898,-3.0898,-3.0898,-3.0898,-3.0898,-3.0898,-3.0898,-3.0898,-3.0898,-3.0898,-3.1094,-3.1504,-3.1953,-3.2383,-3.2793,-3.3223,-3.3418,-3.3418,-3.3418,-3.3418,-3.3418,-3.3418,-3.3418,-3.3418,-3.3418,-3.3418,-3.3418,-3.3418,-3.3418,-3.3418,-3.3418,-3.3418,-3.3418,0.0,0.0,0.0,0.0,0.0,0.0,0.0,0.0,0.0,0.0,0.0,0.0,0.0,0.0,0.0,0.0,0.0,0.0,0.0,-3.1228,-3.0898,-3.0898,-3.0898,-3.0898,-3.0898,-3.0898,-3.0898,-3.0898,-3.0605,-3.0371,-3.0176,-2.9668,-2.9238,-2.8906,-2.8652,-2.8437,-2.8301,-2.8301,-2.8301,-2.8301,-2.8301,-2.8301,-2.8301,0.0,0.0,0.0,0.0,0.0,0.0,0.0,0.0,0.0,-2.8301,-2.6227,-2.3933,-2.4544,-2.3039,-2.1045,-2.0429,-2.0702,-2.0873,-1.9707,-1.98,-2.0233,-2.0521,-2.0722,-2.1208,-2.2361,-2.2591,-2.3311,-2.5558,-2.6772,-2.7871,-2.9157,-3.0274,-3.0898,-3.0898,-3.0898,-3.0898,-3.0898,-3.0898,-3.0898,-3.0898,-3.0898,-3.0898,-3.0898,-3.0898,-3.0898,-3.0898,-3.0898,-3.0898,-3.0898,-3.0898,-3.1094,-3.1504,-3.1953,-3.2383,-3.2793,-3.3223,-3.3418,-3.3418,-3.3418,-3.3418,-3.3418,-3.3418,-3.3418,-3.3418,-3.3418,-3.3418,-3.3418,-3.3418,-3.3418,-3.3418,-3.3418,-3.3418,-3.3418,0.0,0.0,0.0,0.0,0.0,0.0,0.0,0.0,0.0,0.0,0.0,0.0,0.0,0.0,0.0,0.0,0.0,0.0,0.0,0.0,-3.0898,-3.0898,-3.0898,-3.0898,-3.0898,-3.0898,-3.0898,-3.0898,-3.0898,-3.0684,-3.0254,-3.0215,-2.9785,-2.9043,-2.9004,-2.875,-2.834,-2.834,-2.832,-2.8301,-2.8301,-2.8301,-2.8301,-2.8301,0.0,0.0,0.0,0.0,0.0,0.0,0.0,0.0,-2.8301,-2.6227,-2.41,-2.5663,-2.4931,-2.3319,-2.1968,-2.2589,-2.2927,-2.0097,-1.98,-2.0388,-2.0975,-2.1109,-2.1109,-2.1109,-2.1109,-2.209,-2.5375,-2.5984,-2.7073,-3.0392,-3.0898,-3.0898,-3.0898,-3.0898,-3.0898,-3.0898,-3.0898,-3.0898,-3.0898,-3.0898,-3.0898,-3.0898,-3.0898,-3.0898,-3.0898,-3.0898,-3.0898,-3.0898,-3.0898,-3.1094,-3.1504,-3.1953,-3.2383,-3.2793,-3.3223,-3.3418,-3.3418,-3.3418,-3.3418,-3.3418,-3.3418,-3.3418,-3.3418,-3.3418,-3.3418,-3.3418,-3.3418,-3.3418,-3.3418,-3.3418,-3.3418,-3.3418,0.0,0.0,0.0,0.0,0.0,0.0,0.0,0.0,0.0,0.0,0.0,0.0,0.0,0.0,0.0,0.0,0.0,0.0,0.0,0.0,-3.0898,-3.0898,-3.0898,-3.0898,-3.0898,-3.0898,-3.0898,-3.0898,-3.0898,-3.084,-3.0742,-3.0371,-3.0098,-2.9902,-2.957,-2.918,-2.8789,-2.8789,-2.8594,-2.8301,-2.8301,-2.8301,-2.8301,-2.8301,-2.8301,0.0,0.0,0.0,0.0,0.0,0.0,0.0,-2.8301,-2.6227,-2.41,-2.5663,-2.4194,-2.1983,-2.1699,-2.1813,-2.1643,-1.9866,-1.98,-2.0388,-2.0975,-2.1109,-2.1109,-2.1109,-2.1109,-2.209,-2.5375,-2.5984,-2.7073,-3.0392,-3.0898,-3.0898,-3.0898,-3.0898,-3.0898,-3.0898,-3.0898,-3.0898,-3.0898,-3.0898,-3.0898,-3.0898,-3.0898,-3.0898,-3.0898,-3.0898,-3.0898,-3.0898,-3.0898,-3.1094,-3.1504,-3.1953,-3.2383,-3.2793,-3.3223,-3.3418,-3.3418,-3.3418,-3.3418,-3.3418,-3.3418,-3.3418,-3.3418,-3.3418,-3.3418,-3.3418,-3.3418,-3.3418,-3.3418,-3.3418,-3.3418,-3.3418,0.0,0.0,0.0,0.0,0.0,0.0,0.0,0.0,0.0,0.0,0.0,0.0,0.0,0.0,0.0,0.0,0.0,0.0,0.0,0.0,-3.0898,-3.0898,-3.0898,-3.0898,-3.0898,-3.0898,-3.0898,-3.0898,-3.0898,-3.0898,-3.0879,-3.0644,-3.041,-3.0176,-2.9961,-2.9629,-2.9219,-2.9004,-2.8789,-2.8574,-2.8379,-2.8301,-2.8301,-2.8301,-2.8301,-2.8301,-2.8301,0.0,0.0,0.0,0.0,0.0,0.0,0.0,-2.5206,-2.6717,-2.5041,-2.2814,-2.3526,-2.2702,-2.1332,-2.0105,-2.0013,-2.0388,-2.0975,-2.1109,-2.1109,-2.1109,-2.1109,-2.209,-2.5375,-2.5984,-2.7073,-3.0392,-3.0898,-3.0898,-3.0898,-3.0898,-3.0898,-3.0898,-3.0898,-3.0898,-3.0898,-3.0898,-3.0898,-3.0898,-3.0898,-3.0898,-3.0898,-3.0898,-3.0898,-3.0898,-3.0898,-3.1191,-3.1816,-3.2051,-3.248,-3.3105,-3.332,-3.3418,-3.3418,-3.3418,-3.3418,-3.3418,-3.3418,-3.3418,-3.3418,-3.3418,-3.3418,-3.3418,-3.3418,-3.3418,-3.3418,-3.3418,-3.3418,-3.3418,0.0,0.0,0.0,0.0,0.0,0.0,0.0,0.0,0.0,0.0,0.0,0.0,0.0,0.0,0.0,0.0,0.0,0.0,0.0,0.0,0.0,-3.0898,-3.0898,-3.0898,-3.0898,-3.0898,-3.0898,-3.0898,-3.0898,-3.0898,-3.0898,-3.0898,-3.0684,-3.0312,-3.0312,-3.0078,-2.9648,-2.9297,-2.9101,-2.9004,-2.8574,-2.8398,-2.8398,-2.832,-2.8301,-2.8301,-2.8301,-2.8301,-2.8301,-2.8301,0.0,0.0,0.0,0.0,-2.6372,-2.7853,-2.6336,-2.4433,-2.5426,-2.3694,-2.1463,-2.0787,-2.0591,-2.074,-2.1401,-2.1299,-2.1109,-2.1109,-2.1362,-2.2452,-2.5436,-2.6227,-2.7391,-3.0392,-3.0898,-3.0898,-3.0898,-3.0898,-3.0898,-3.0898,-3.0898,-3.0898,-3.0898,-3.0898,-3.0898,-3.0898,-3.0898,-3.0898,-3.0898,-3.0898,-3.0898,-3.0898,-3.0898,-3.1309,-3.2168,-3.2229,-3.2598,-3.3418,-3.3418,-3.3418,-3.3418,-3.3418,-3.3418,-3.3418,-3.3418,-3.3418,-3.3418,-3.3418,-3.3418,-3.3418,-3.3418,-3.3418,-3.3418,-3.3418,-3.3418,-3.3418,0.0,0.0,0.0,0.0,0.0,0.0,0.0,0.0,0.0,0.0,-3.3677,0.0,0.0,0.0,0.0,0.0,0.0,0.0,0.0,0.0,0.0,-3.0898,-3.0898,-3.0898,-3.0898,-3.0898,-3.0898,-3.0898,-3.0898,-3.0898,-3.0898,-3.0898,-3.0859,-3.0801,-3.0801,-3.0547,-3.0117,-3.0059,-2.9824,-2.9453,-2.9004,-2.8828,-2.8789,-2.8437,-2.8301,-2.8301,-2.8301,-2.8301,-2.8301,-2.8301,-2.8301,0.0,0.0,0.0,-2.6372,-2.7853,-2.7114,-2.5535,-2.4433,-2.287,-2.175,-2.2246,-2.2304,-2.2346,-2.3116,-2.2153,-2.1109,-2.1109,-2.2278,-2.3807,-2.568,-2.7134,-2.8724,-3.0587,-3.0898,-3.0898,-3.0898,-3.0898,-3.0898,-3.0898,-3.0898,-3.0898,-3.0898,-3.0898,-3.0898,-3.0898,-3.0898,-3.0898,-3.0898,-3.0898,-3.0898,-3.0898,-3.0898,-3.1309,-3.2168,-3.2229,-3.2598,-3.3418,-3.3418,-3.3418,-3.3418,-3.3418,-3.3418,-3.3418,-3.3418,-3.3418,-3.3418,-3.3418,-3.3418,-3.3418,-3.3418,-3.3418,-3.3418,-3.3418,-3.3418,-3.3418,0.0,0.0,0.0,0.0,0.0,0.0,0.0,0.0,0.0,0.0,0.0,-3.253,0.0,0.0,0.0,0.0,0.0,0.0,0.0,0.0,0.0,-3.0898,-3.0898,-3.0898,-3.0898,-3.0898,-3.0898,-3.0898,-3.0898,-3.0898,-3.0898,-3.0898,-3.0898,-3.0898,-3.0898,-3.0781,-3.0566,-3.0312,-3.0098,-2.9883,-2.9453,-2.9277,-2.9238,-2.8809,-2.8652,-2.8613,-2.8379,-2.8301,-2.8301,-2.8301,-2.8301,-2.8301,-2.8301,0.0,0.0,0.0,-2.7276,-2.5772,-2.4211,-2.3319,-2.2941,-2.3447,-2.3043,-2.2841,-2.4248,-2.3486,-2.2529,-2.2529,-2.4532,-2.6227,-2.6045,-2.7314,-2.8979,-3.0645,-3.0898,-3.0898,-3.0898,-3.0898,-3.0898,-3.0898,-3.0898,-3.0898,-3.0898,-3.0898,-3.0898,-3.0898,-3.0898,-3.0898,-3.0898,-3.0898,-3.0898,-3.0898,-3.1113,-3.1543,-3.2168,-3.2402,-3.2832,-3.3418,-3.3418,-3.3418,-3.3418,-3.3418,-3.3418,-3.3418,-3.3418,-3.3418,-3.3418,-3.3418,-3.3418,-3.3418,-3.3418,-3.3418,-3.3418,-3.3418,-3.3418,-3.3418,0.0,0.0,0.0,0.0,0.0,0.0,0.0,0.0,0.0,0.0,0.0,0.0,0.0,0.0,0.0,0.0,0.0,0.0,0.0,0.0,0.0,-3.0898,-3.0898,-3.0898,-3.0898,-3.0898,-3.0898,-3.0898,-3.0898,-3.0898,-3.0898,-3.0898,-3.0898,-3.0898,-3.0898,-3.0898,-3.0859,-3.0527,-3.0371,-3.0332,-2.9902,-2.9726,-2.9687,-2.9258,-2.9082,-2.9023,-2.8594,-2.8457,-2.8437,-2.832,-2.8301,-2.8301,-2.8301,-2.8301,0.0,0.0,0.0,-2.5882,-2.471,-2.4378,-2.4462,-2.4794,-2.4301,-2.4086,-2.5594,-2.5073,-2.424,-2.424,-2.6409,-2.8051,-2.6832,-2.7931,-2.9471,-3.0704,-3.0898,-3.0898,-3.0898,-3.0898,-3.0898,-3.0898,-3.0898,-3.0898,-3.0898,-3.0898,-3.0898,-3.0898,-3.0898,-3.0898,-3.0898,-3.0898,-3.0898,-3.0898,-3.1309,-3.1719,-3.2229,-3.2695,-3.3105,-3.3418,-3.3418,-3.3418,-3.3418,-3.3418,-3.3418,-3.3418,-3.3418,-3.3418,-3.3418,-3.3418,-3.3418,-3.3418,-3.3418,-3.3418,-3.3418,-3.3418,-3.3418,-3.3418,0.0,0.0,0.0,0.0,0.0,0.0,0.0,0.0,0.0,0.0,0.0,0.0,0.0,-3.0898,-3.0898,-3.0898,0.0,0.0,0.0,0.0,0.0,-3.0898,-3.0898,0.0,-3.0898,-3.0898,-3.0898,-3.0898,-3.0898,-3.0898,-3.0898,-3.0898,-3.0898,-3.0898,-3.0898,-3.0898,-3.0898,-3.0859,-3.0859,-3.082,-3.0351,-3.0156,-3.0117,-2.9687,-2.9531,-2.9473,-2.9043,-2.8887,-2.8828,-2.8437,-2.8301,-2.8301,-2.8301,-2.8301,-2.8301,0.0,0.0,0.0,-2.5991,-2.5991,-2.6081,-2.6495,-2.6721,-2.7,-2.7566,-2.6756,-2.5863,-2.5863,-2.7194,-2.8349,-2.8289,-2.9648,-3.082,-3.0898,-3.0898,-3.0898,-3.0898,-3.0898,-3.0898,-3.0898,-3.0898,-3.0898,-3.0898,-3.0898,-3.0898,-3.0898,-3.0898,-3.0898,-3.0898,-3.0898,-3.0898,-3.0898,-3.1309,-3.1719,-3.2229,-3.2988,-3.3398,-3.3418,-3.3418,-3.3418,-3.3418,-3.3418,-3.3418,-3.3418,-3.3418,-3.3418,-3.3418,-3.3418,-3.3418,-3.3418,-3.3418,-3.3418,-3.3418,-3.3418,-3.3418,-3.3418,0.0,0.0,0.0,0.0,0.0,0.0,0.0,0.0,0.0,0.0,0.0,0.0,0.0,-3.0898,-3.0898,-3.0898,-3.0898,0.0,0.0,0.0,0.0,-3.0898,-3.0898,-3.0898,-3.0898,-3.0898,-3.0898,-3.0898,-3.0898,-3.0898,-3.0898,-3.0898,-3.0898,-3.0898,-3.0898,-3.0898,-3.0898,-3.0898,-3.0898,-3.0879,-3.0703,-3.0644,-3.0586,-3.0137,-2.998,-2.9922,-2.9492,-2.9336,-2.9277,-2.8848,-2.8691,-2.8652,-2.8379,-2.8301,-2.8301,-2.8301,-2.7276,-2.6318,-2.7222,-2.6825,-2.6354,-2.7465,-2.7382,-2.7461,-2.8653,-2.825,-2.7554,-2.7554,-2.8861,-2.9648,-2.8605,-2.9785,-3.0898,-3.0898,-3.0898,-3.0898,-3.0898,-3.0898,-3.0898,-3.0898,-3.0898,-3.0898,-3.0898,-3.0898,-3.0898,-3.0898,-3.0898,-3.0898,-3.0898,-3.0898,-3.0898,-3.0898,-3.1562,-3.2266,-3.2969,-3.3281,-3.3418,-3.3418,-3.3418,-3.3418,-3.3418,-3.3418,-3.3418,-3.3418,-3.3418,-3.3418,-3.3418,-3.3418,-3.3418,-3.3418,-3.3418,-3.3418,-3.3418,-3.3418,-3.3418,-3.3418,0.0,0.0,0.0,0.0,0.0,0.0,0.0,0.0,0.0,0.0,0.0,0.0,0.0,0.0,-3.0898,-3.0898,-3.0898,-3.0898,-3.0898,-3.0898,-3.0898,-3.0898,-3.0898,-3.0898,-3.0898,-3.0742,-3.0742,-3.0898,-3.0742,-3.0742,-3.0898,-3.0898,-3.0898,-3.0898,-3.0898,-3.0898,-3.0898,-3.0898,-3.0898,-3.0898,-3.0898,-3.0898,-3.0859,-3.0547,-3.043,-3.0371,-2.9941,-2.9785,-2.9707,-2.9277,-2.9043,-2.8867,-2.8594,-2.8398,-2.8301,-2.8301,-2.7618,-2.706,-2.8014,-2.7565,-2.706,-2.8067,-2.8138,-2.8239,-2.9327,-2.9412,-2.9216,-2.9216,-3.0138,-3.0587,-2.9471,-3.0138,-3.0898,-3.0898,-3.0898,-3.0898,-3.0898,-3.0898,-3.0898,-3.0898,-3.0898,-3.0898,-3.0898,-3.0898,-3.0898,-3.0898,-3.0898,-3.0898,-3.0898,-3.0898,-3.1016,-3.1309,-3.1875,-3.2578,-3.3418,-3.3418,-3.3418,-3.3418,-3.3418,-3.3418,-3.3418,-3.3418,-3.3418,-3.3418,-3.3418,-3.3418,-3.3418,-3.3418,-3.3418,-3.3418,-3.3418,-3.3418,-3.3418,-3.3418,-3.3418,-3.3418,0.0,0.0,0.0,0.0,0.0,0.0,0.0,0.0,0.0,-3.0898,0.0,0.0,0.0,0.0,0.0,-3.0898,-3.0898,-3.0898,-3.0898,-3.0898,-3.0898,-3.0898,0.0,0.0,-3.0898,-3.0449,-3.043,-3.0898,-3.043,-3.0449,-3.0898,-3.0898,-3.0898,-3.0898,-3.0898,-3.0898,-3.0898,-3.0898,-3.0898,-3.0898,-3.0898,-3.0898,-3.0898,-3.0898,-3.0898,-3.084,-3.0371,-3.0215,-3.0156,-2.9726,-2.9316,-2.8945,-2.8926,-2.8633,-2.832,-2.8301,-2.8301,-2.8301,0.0,0.0,0.0,-2.8301,-2.8945,-2.957,-2.9646,-3.0273,-3.0898,-3.0898,-3.0898,-3.0898,-3.0898,-3.0898,-3.0898,-3.0898,-3.0898,-3.0898,-3.0898,-3.0898,-3.0898,-3.0898,-3.0898,-3.0898,-3.0898,-3.0898,-3.0898,-3.0898,-3.0898,-3.0898,-3.0898,-3.0898,-3.1289,-3.2148,-3.2187,-3.2578,-3.3418,-3.3418,-3.3418,-3.3418,-3.3418,-3.3418,-3.3418,-3.3418,-3.3418,-3.3418,-3.3418,-3.3418,-3.3418,-3.3418,-3.3418,-3.3418,-3.3418,-3.3418,-3.3418,-3.3418,-3.3418,-3.3418,0.0,0.0,0.0,0.0,0.0,0.0,0.0,0.0,-3.0898,0.0,0.0,0.0,-3.0898,-3.0898,-3.0898,-3.0898,-3.0898,-3.0898,-3.0898,-3.0898,-3.0898,-3.0898,-3.0898,-3.0898,-3.0898,-3.0762,-3.0762,-3.0898,-3.0762,-3.0762,-3.0898,-3.0898,-3.0898,-3.0898,-3.0898,-3.0898,-3.0898,-3.0898,-3.0898,-3.0898,-3.0898,-3.0898,-3.0898,-3.0898,-3.0898,-3.0879,-3.0742,-3.0703,-3.0625,-3.0176,-2.9941,-2.9746,-2.9121,-2.8848,-2.8691,-2.8379,-2.8301,-2.8301,-2.8301,0.0,0.0,0.0,0.0,0.0,-2.9961,-3.0469,-3.0898,-3.0898,-3.0898,-3.0898,-3.0898,-3.0898,-3.0898,-3.0898,-3.0898,-3.0898,-3.0898,-3.0898,-3.0898,-3.0898,-3.0898,-3.0898,-3.0898,-3.0898,-3.0898,-3.0898,-3.0898,-3.0898,-3.0898,-3.1191,-3.1601,-3.2148,-3.2461,-3.2871,-3.3418,-3.3418,-3.3418,-3.3418,-3.3418,-3.3418,-3.3418,-3.3418,-3.3418,-3.3418,-3.3418,-3.3418,-3.3418,-3.3418,-3.3418,-3.3418,-3.3418,-3.3418,-3.3418,-3.3418,-3.3418,-3.3418,0.0,0.0,0.0,0.0,0.0,0.0,-3.0898,-3.0898,-3.0898,0.0,0.0,0.0,-3.0898,-3.0898,-3.0898,-3.0898,-3.0898,-3.0898,-3.0898,-3.0898,-3.0898,-3.0898,-3.0898,-3.0898,-3.0898,-3.0703,-3.0703,-3.0898,-3.0703,-3.0703,-3.0898,-3.0898,-3.0898,-3.0898,-3.0898,-3.0898,-3.0898,-3.0898,-3.0898,-3.0898,-3.0898,-3.0898,-3.0898,-3.0898,-3.0898,-3.0898,-3.0898,-3.0898,-3.0859,-3.0586,-3.0351,-3.0078,-2.9414,-2.9199,-2.9141,-2.8887,-2.8828,-2.8828,0.0,-2.8828,-2.8887,-2.9121,0.0,0.0,-3.0137,-3.0547,-3.0898,-3.0898,-3.0898,-3.0898,-3.0898,-3.0898,-3.0898,-3.0898,-3.0898,-3.0898,-3.0898,-3.0898,-3.0898,-3.0898,-3.0898,-3.0898,-3.0898,-3.0898,-3.0898,-3.0898,-3.0898,-3.0898,-3.0898,-3.1289,-3.1719,-3.2209,-3.2578,-3.2988,-3.3418,-3.3418,-3.3418,-3.3418,-3.3418,-3.3418,-3.3418,-3.3418,-3.3418,-3.3418,-3.3418,-3.3418,-3.3418,-3.3418,-3.3418,-3.3418,-3.3418,-3.3418,-3.3418,-3.3418,-3.3418,-3.3418,0.0,0.0,0.0,-3.0898,-3.0898,-3.0898,-3.0898,-3.0898,-3.0898,0.0,-3.0898,-3.0898,-3.0898,-3.0898,-3.0898,-3.0898,-3.0898,-3.0898,-3.0898,-3.0898,-3.0898,-3.0898,-3.0898,-3.0898,-3.0898,-3.0488,-3.0469,-3.0898,-3.0469,-3.0488,-3.0898,-3.0898,-3.0898,-3.0898,-3.0898,-3.0898,-3.0898,-3.0898,-3.0898,-3.0898,-3.0898,-3.0898,-3.0898,-3.0898,-3.0898,-3.0898,-3.0898,-3.0898,-3.0898,-3.0898,-3.0605,-3.0195,-2.9785,-2.9704,-2.9629,-2.9646,-2.9626,-2.9626,0.0,0.0,0.0,-2.9685,-2.9922,0.0,-3.0254,-3.0586,-3.0898,-3.0898,-3.0762,-3.0645,-3.0645,-3.0645,-3.0645,-3.0645,-3.0762,-3.0898,-3.0898,-3.0898,-3.0898,-3.0898,-3.0898,-3.0898,-3.0898,-3.0898,-3.0898,-3.0898,-3.0898,-3.0898,-3.0898,-3.1328,-3.1758,-3.2209,-3.2617,-3.3047,-3.3418,-3.3418,-3.3418,-3.3418,-3.3418,-3.3418,-3.3418,-3.3418,-3.3418,-3.3418,-3.3418,-3.3418,-3.3418,-3.3418,-3.3418,-3.3418,-3.3418,-3.3418,-3.3418,-3.3418,-3.3418,-3.3418,0.0,0.0,0.0,-3.0898,-3.0898,-3.0898,-3.0898,-3.0898,-3.0898,-3.0898,-3.0898,-3.0898,-3.0898,-3.0898,-3.0898,0.0,0.0,-3.0898,-3.0898,-3.0898,-3.0898,-3.0898,-3.0898,-3.0898,-3.0898,-3.0801,-3.0801,-3.0898,-3.0801,-3.0801,-3.0898,-3.0898,-3.0898,-3.0898,-3.0898,-3.0898,-3.0898,-3.0898,-3.0898,-3.0898,-3.0898,-3.0898,-3.0898,-3.0898,-3.0898,-3.0898,-3.0898,-3.0898,-3.0898,-3.0898,-3.084,-3.0684,-3.0215,-3.0078,-3.0,-2.9724,-2.9626,-2.9626,-2.9626,-2.9626,-2.9704,-3.0,-3.0137,0.0,-3.0664,-3.082,-3.0898,-3.0898,-2.9844,-2.892,-2.892,-2.892,-2.892,-2.892,-3.002,-3.0898,-3.0898,-3.0898,-3.0898,-3.0898,-3.0898,-3.0898,-3.0898,-3.0898,-3.0898,-3.0898,-3.0898,-3.0898,-3.0898,-3.1621,-3.209,-3.2229,-3.291,-3.334,-3.3418,-3.3418,-3.3418,-3.3418,-3.3418,-3.3418,-3.3418,-3.3418,-3.3418,-3.3418,-3.3418,-3.3418,-3.3418,-3.3418,-3.3418,-3.3418,-3.3418,-3.3418,-3.3418,-3.3418,-3.3418,-3.3418,0.0,0.0,0.0,0.0,-3.0898,-3.0898,-3.0898,-3.0898,-3.0898,-3.0898,-3.0898,-3.0898,-3.0898,-3.0898,-3.0898,-3.0898,0.0,0.0,0.0,-3.0898,-3.0898,-3.0898,-3.0898,-3.0898,-3.0898,-3.0898,-3.0898,-3.0898,-3.0898,-3.0898,-3.0898,-3.0898,-3.0898,-3.0898,-3.0898,-3.0898,-3.0898,-3.0898,-3.0898,-3.0898,-3.0898,-3.0898,-3.0898,-3.0898,-3.0898,-3.0898,-3.0898,-3.0898,-3.0898,-3.0898,-3.0898,-3.0859,-3.0625,-3.0547,-3.0508,-3.0293,-3.0234,-3.0234,-3.0234,-3.0234,-3.0273,-3.0488,-3.0547,0.0,0.0,-3.0898,-3.0898,-3.0898,-3.0216,-2.9648,-2.9648,-2.8979,-2.8664,-2.953,-2.9648,-2.9962,-3.0762,-3.0898,-3.0898,-3.0898,-3.0898,-3.0898,-3.0898,-3.0898,-3.0898,-3.0898,-3.0898,-3.0898,-3.0898,-3.1504,-3.1953,-3.2168,-3.2773,-3.3203,-3.3418,-3.3418,-3.3418,-3.3418,-3.3418,-3.3418,-3.3418,-3.3418,-3.3418,-3.3418,-3.3418,-3.3418,-3.3418,-3.3418,-3.3418,-3.3418,-3.3418,-3.3418,-3.3418,-3.3418,-3.3418,-3.3457,0.0,0.0,0.0,0.0,-3.0898,0.0,0.0,0.0,-3.0898,-3.0898,-3.0898,-3.0898,-3.0898,-3.0898,-3.0898,-3.0898,0.0,0.0,-3.0898,-3.0898,-3.0898,-3.0898,-3.0898,-3.0898,-3.0898,-3.0898,-3.0898,-3.0898,-3.0898,-3.0898,-3.0898,-3.0898,-3.0898,-3.0898,-3.0898,-3.0898,-3.0898,-3.0898,-3.0898,-3.0898,-3.0898,-3.0898,-3.0898,-3.0898,-3.0898,-3.0898,-3.0898,-3.0898,-3.0898,-3.0898,-3.0898,-3.0898,-3.0898,-3.0898,-3.0898,-3.0898,-3.0898,-3.0898,-3.0898,-3.0898,-3.0898,-3.0898,-3.0898,-3.0898,0.0,0.0,0.0,-3.0898,-3.0645,-3.0392,-3.0392,-2.9039,-2.8313,-2.9559,-2.8987,-2.8728,-2.9617,-3.0412,-3.0898,-3.0898,-3.0898,-3.0898,-3.0898,-3.0898,-3.0898,-3.0898,-3.0898,-3.0898,-3.0898,-3.1289,-3.1719,-3.2209,-3.2578,-3.2988,-3.3418,-3.3418,-3.3418,-3.3418,-3.3418,-3.3418,-3.3418,-3.3418,-3.3418,-3.3418,-3.3418,-3.3418,-3.3418,-3.3418,-3.3418,-3.3418,-3.3418,-3.3418,-3.3418,-3.3418,-3.3418,-3.3496,-3.0898,-3.0898,0.0,0.0,0.0,0.0,0.0,0.0,-3.0898,-3.0898,-3.0898,-3.0898,-3.0898,-3.0898,-3.0898,-3.0898,-3.0898,-3.0898,-3.0898,-3.0898,-3.0898,-3.0898,-3.0898,-3.0898,-3.0898,-3.0898,-3.0898,-3.0898,-3.0898,-3.0898,-3.0898,-3.0898,-3.0898,-3.0898,-3.0898,-3.0898,-3.0898,-3.0898,-3.0898,-3.0898,-3.0898,-3.0898,-3.0898,-3.0898,-3.0898,-3.0898,-3.0898,-3.0898,-3.0898,-3.0898,-3.0898,-3.0898,-3.0898,-3.0898,-3.0898,-3.0898,-3.0898,-3.0898,-3.0898,-3.0898,-3.0898,-3.0898,-3.0898,-3.0898,-3.0898,0.0,-3.0898,-3.0898,0.0,-2.8664,-2.8664,0.0,0.0,-2.5829,-2.7234,-2.7801,-2.6004,-2.8713,-3.0898,-3.0898,-3.0898,-3.0898,-3.0898,-3.0898,-3.0898,-3.0898,-3.0898,-3.0898,-3.0898,-3.1289,-3.1719,-3.2209,-3.2578,-3.2988,-3.3418,-3.3418,-3.3418,-3.3418,-3.3418,-3.3418,-3.3418,-3.3418,-3.3418,-3.3418,-3.3418,-3.3418,-3.3418,-3.3418,-3.3418,-3.3418,-3.3418,-3.3418,-3.3418,-3.3418,-3.3418,-3.3496,-3.0898,-3.0898,0.0,0.0,0.0,0.0,0.0,0.0,-3.0898,-3.0898,-3.0898,-3.0898,-3.0898,-3.0898,-3.0898,-3.0898,-3.0898,-3.0898,-3.0898,-3.0898,0.0,-3.0898,-3.0898,-3.0898,-3.0898,-3.0898,-3.0898,-3.0898,-3.0898,-3.0898,-3.0898,-3.0898,-3.0898,-3.0898,-3.0898,-3.0898,-3.0898,-3.0898,-3.0898,-3.0898,-3.0898,-3.0898,-3.0898,-3.0898,-3.0898,-3.0898,-3.0898,-3.0898,-3.0898,-3.0898,-3.0898,-3.0898,-3.0898,-3.0898,-3.0898,-3.0898,-3.0898,-3.0898,-3.0898,-3.0898,-3.0898,-3.0898,-3.0898,-3.0898,-3.0898,-3.0898,-3.0898,-3.0898,0.0,0.0,0.0,0.0,0.0,0.0,-2.6208,-2.5643,-2.5631,-2.7004,-2.8426,-2.9353,-3.0333,-3.0898,-3.0898,-3.0898,-3.0898,-3.0898,-3.0898,-3.0898,-3.0898,-3.1055,-3.1465,-3.2209,-3.2344,-3.2754,-3.3418,-3.3418,-3.3418,-3.3418,-3.3418,-3.3418,-3.3418,-3.3418,-3.3418,-3.3418,-3.3418,-3.3418,-3.3418,-3.3418,-3.3418,-3.3418,-3.3418,-3.3418,-3.3418,-3.3418,-3.3574,-3.3867,-3.0898,0.0,-3.0898,-3.0898,-3.0898,-3.0898,-3.0898,-3.0898,-3.0898,-3.0898,-3.0898,-3.0898,-3.0898,-3.0898,-3.0898,-3.0898,-3.0898,-3.0898,-3.0898,-3.0898,-3.0898,-3.0898,-3.0898,-3.0898,-3.0898,-3.0898,-3.0898,-3.0898,-3.0898,-3.0898,-3.0898,-3.0898,-3.0898,-3.0898,-3.0898,-3.0898,-3.0898,-3.0898,-3.0898,-3.0898,-3.0898,-3.0898,-3.0898,-3.0898,-3.0898,-3.0898,-3.0898,-3.0898,-3.0898,-3.0898,-3.0898,-3.0898,-3.0898,-3.0898,-3.0898,-3.0898,-3.0898,-3.0898,-3.0898,-3.0898,-3.0898,-3.0898,-3.0898,-3.0898,-3.0898,-3.0898,-3.0898,-3.0898,-3.0898,0.0,0.0,0.0,-2.6824,-2.741,0.0,-2.4286,-2.4389,-2.5307,-2.6409,-2.7632,-2.9216,-3.0392,-3.084,-3.0898,-3.0898,-3.0898,-3.0898,-3.0898,-3.0898,-3.0898,-3.1289,-3.2148,-3.2229,-3.2578,-3.3418,-3.3418,-3.3418,-3.3418,-3.3418,-3.3418,-3.3418,-3.3418,-3.3418,-3.3418,-3.3418,-3.3418,-3.3418,-3.3418,-3.3418,-3.3418,-3.3418,-3.3496,-3.3594,-3.3594,-3.3809,-3.416,-3.0898,-3.0898,-3.0898,-3.0898,-3.0898,-3.0898,-3.0898,-3.0898,-3.0898,-3.0898,-3.0898,-3.0898,-3.0898,-3.0898,-3.0898,-3.0898,-3.0898,-3.0898,-3.0898,-3.0898,-3.0898,-3.0898,-3.0898,-3.0898,-3.0898,-3.0898,-3.0898,-3.0898,-3.0898,-3.0898,-3.0898,-3.0898,-3.0898,-3.0898,-3.0898,-3.0898,-3.0898,-3.0898,-3.0898,-3.0898,-3.0898,-3.0898,-3.0898,-3.0898,-3.0898,-3.0898,-3.0898,-3.0898,-3.0898,-3.0898,-3.0898,-3.0898,-3.0898,-3.0898,-3.0898,-3.0898,-3.0898,-3.0898,-3.0898,-3.0898,-3.0898,-3.0898,-3.0898,-3.0898,-3.0898,-3.0898,-3.0898,-3.0898,-3.0898,-3.0898,-3.0898,-2.9471,0.0,0.0,0.0,0.0,0.0,-2.3627,-2.6045,-2.6045,-2.7494,-2.9098,-3.0762,-3.0898,-3.0898,-3.0898,-3.0898,-3.0898,-3.0898,-3.0898,-3.1289,-3.2148,-3.2229,-3.2578,-3.3418,-3.3418,-3.3418,-3.3418,-3.3418,-3.3418,-3.3418,-3.3418,-3.3418,-3.3418,-3.3418,-3.3418,-3.3418,-3.3418,-3.3418,-3.3418,-3.3418,-3.3691,-3.4043,-3.4043,-3.4062,-3.4199,-2.7632,-2.8486,-2.9589,-3.0704,-3.0898,-3.0898,-3.0898,-3.0898,-3.0898,-3.0898,-3.0898,-3.0898,-3.0898,-3.0898,-3.0898,-3.0898,-3.0898,-3.0898,-3.0898,-3.0898,-3.0898,-3.0898,-3.0898,-3.0898,-3.0898,-3.0898,-3.0898,-3.0898,-3.0898,-3.0898,-3.0898,-3.0898,-3.0898,-3.0898,-3.0898,-3.0898,-3.0898,-3.0898,-3.0898,-3.0898,-3.0898,-3.0898,-3.0898,-3.0898,-3.0898,-3.0898,-3.0898,-3.0898,-3.0898,-3.0898,-3.0898,-3.0898,-3.0898,-3.0898,-3.0898,-3.0898,-3.0898,-3.0898,-3.0898,-3.0898,-3.0898,-3.0898,-3.0898,-3.0898,-3.0898,-3.0898,-3.0898,-3.0898,-3.0898,-3.0898,-3.0898,-2.8664,0.0,0.0,0.0,0.0,0.0,-2.195,-2.3186,-2.4286,-2.6772,-2.9039,-3.0762,-3.0898,-3.0898,-3.0898,-3.0898,-3.0898,-3.0898,-3.0898,-3.1289,-3.2148,-3.2229,-3.2578,-3.3418,-3.3418,-3.3418,-3.3418,-3.3418,-3.3418,-3.3418,-3.3418,-3.3418,-3.3418,-3.3418,-3.3418,-3.3418,-3.3418,-3.3418,-3.3457,-3.375,-3.3945,-3.4082,-3.4082,-3.4453,-3.5039,-2.6772,-2.7254,-2.8051,-2.9707,-3.0509,-3.0898,-3.0898,-3.0898,-3.0937,-3.1094,-3.1113,-3.1172,-3.1328,-3.1348,-3.1348,-3.1348,-3.1211,-3.1113,-3.1113,-3.0976,-3.0898,-3.0898,-3.0898,-3.0898,-3.0898,-3.0898,-3.0898,-3.0898,-3.0898,-3.0898,-3.0898,-3.0898,-3.0898,-3.0898,-3.0898,-3.0898,-3.0898,-3.0898,-3.0898,-3.0898,-3.0898,-3.0898,-3.0898,-3.0898,-3.0898,-3.0898,-3.0898,-3.0898,-3.0898,-3.0898,-3.0898,-3.0898,-3.0898,-3.0898,-3.0898,-3.0898,-3.0898,-3.0898,-3.0898,-3.0898,-3.0898,-3.0898,-3.0898,-3.0898,-3.0898,-3.0898,-3.0898,-3.0898,-3.0898,-3.0898,-3.0898,-2.9176,0.0,0.0,0.0,0.0,0.0,-2.1475,-2.1727,-2.3387,-2.594,-2.817,-2.9844,-3.0587,-3.0898,-3.0898,-3.0898,-3.0898,-3.0898,-3.0898,-3.1289,-3.2148,-3.2229,-3.2578,-3.3418,-3.3418,-3.3418,-3.3418,-3.3418,-3.3418,-3.3418,-3.3418,-3.3418,-3.3418,-3.3418,-3.3418,-3.3418,-3.3418,-3.3516,-3.3691,-3.3965,-3.4258,-3.4551,-3.4551,-3.5,-3.5664,-2.8044,-2.7142,-2.652,-2.8044,-2.9627,-3.0645,-3.0665,-3.0742,-3.0937,-3.1365,-3.1483,-3.1699,-3.2129,-3.2229,-3.2229,-3.2229,-3.1797,-3.1543,-3.1543,-3.1152,-3.0918,-3.0918,-3.0898,-3.0898,-3.0898,-3.0898,-3.0898,-3.0898,-3.0898,-3.0898,-3.0898,-3.0898,-3.0898,-3.0898,-3.0898,-3.0898,-3.0898,-3.0898,-3.0898,-3.0898,-3.0898,-3.0898,-3.0898,-3.0898,-3.0898,-3.0898,-3.0898,-3.0898,-3.0898,-3.0898,-3.0898,-3.0898,-3.0898,-3.0898,-3.0898,-3.0898,-3.0898,-3.0898,-3.0898,-3.0898,-3.0898,-3.0898,-3.0898,-3.0898,-3.0898,-3.0898,-3.0898,-3.0898,-3.0898,-3.0898,-3.0898,-3.082,-3.0274,0.0,0.0,0.0,0.0,-2.2215,-2.179,-2.3387,-2.5024,-2.6651,-2.823,-2.9903,-3.0898,-3.0898,-3.0898,-3.0898,-3.0898,-3.0898,-3.1289,-3.2148,-3.2229,-3.2578,-3.3418,-3.3418,-3.3418,-3.3418,-3.3418,-3.3418,-3.3418,-3.3418,-3.3418,-3.3418,-3.3418,-3.3418,-3.3418,-3.3437,-3.3691,-3.4082,-3.4121,-3.4668,-3.543,-3.543,-3.5684,-3.6016,-2.7498,-2.7186,-2.6935,-2.7248,-2.7286,-2.7358,-2.7513,-2.8678,-2.9688,-2.9972,-3.1165,-3.2051,-3.2209,-3.2229,-3.2229,-3.2229,-3.207,-3.2012,-3.2012,-3.1601,-3.1367,-3.1367,-3.1055,-3.0898,-3.0898,-3.0898,-3.0898,-3.0898,-3.0898,-3.0898,-3.0898,-3.0898,-3.0898,-3.0898,-3.0898,-3.0898,-3.0898,-3.0898,-3.0898,-3.0898,-3.0898,-3.0898,-3.0898,-3.0898,-3.0898,-3.0898,-3.0898,-3.0898,-3.0898,-3.0898,-3.0898,-3.0898,-3.0898,-3.0898,-3.0898,-3.0898,-3.0898,-3.0898,-3.0898,-3.0898,-3.0898,-3.0898,-3.0898,-3.0898,-3.0898,-3.0898,-3.0898,-3.0898,-3.0898,-3.0898,-3.0898,-2.9903,-2.892,-2.8486,0.0,0.0,-2.3869,-2.3201,-2.3139,-2.3574,-2.5024,-2.6651,-2.823,-2.9903,-3.0898,-3.0898,-3.0898,-3.0898,-3.0898,-3.0898,-3.1289,-3.2148,-3.2229,-3.2578,-3.3418,-3.3418,-3.3418,-3.3418,-3.3418,-3.3418,-3.3418,-3.3418,-3.3418,-3.3418,-3.3418,-3.3418,-3.3437,-3.3769,-3.3965,-3.4141,-3.4805,-3.5391,-3.5859,-3.5859,-3.5937,-3.6016,-2.709,-2.5945,-2.4868,-2.4804,-2.5107,-2.5907,-2.7537,-2.9274,-3.056,-3.0891,-3.185,-3.2519,-3.2695,-3.2715,-3.2715,-3.2715,-3.2559,-3.2441,-3.2441,-3.2031,-3.1797,-3.1797,-3.1387,-3.1172,-3.1172,-3.0976,-3.0898,-3.0898,-3.0898,-3.0898,-3.0898,-3.0898,-3.0898,-3.0898,-3.0898,-3.0898,-3.0898,-3.0898,-3.0898,-3.0898,-3.0898,-3.0996,0.0,-3.1172,-3.1289,-3.1445,-3.1445,-3.1211,-3.0898,-3.0898,-3.0898,-3.0918,-3.1113,-3.1172,-3.1172,-3.1172,-3.1172,-3.1133,-3.0937,-3.0898,-3.0898,-3.0898,-3.0898,-3.0898,-3.0898,-3.0898,-3.0898,-3.0898,-3.0898,-3.0898,-3.0898,-3.0138,-2.9275,-2.8545,-2.7632,-2.6227,-2.3931,-2.3574,-2.3574,-2.3574,-2.5024,-2.6651,-2.823,-2.9903,-3.0898,-3.0898,-3.0898,-3.0898,-3.0898,-3.1074,-3.1465,-3.2209,-3.2344,-3.2754,-3.3418,-3.3418,-3.3418,-3.3418,-3.3418,-3.3418,-3.3418,-3.3418,-3.3418,-3.3418,-3.3418,-3.3535,-3.373,-3.3965,-3.4297,-3.4707,-3.541,-3.5801,-3.6016,-3.6016,-3.6016,-3.6016,-2.6968,-2.4665,-2.2362,-2.2164,-2.3767,-2.6007,-2.8867,-3.0816,-3.2076,-3.2502,-3.2747,-3.3008,-3.3379,-3.3418,-3.3418,-3.3418,-3.3086,-3.2871,-3.2871,-3.248,-3.2307,-3.2307,-3.1836,-3.1601,-3.1601,-3.1191,-3.0976,-3.0976,-3.0918,-3.0898,-3.0898,-3.0898,-3.0898,-3.0898,-3.0898,-3.0898,-3.0898,-3.0898,-3.0918,-3.0976,-3.0976,-3.123,-3.1601,-3.1601,-3.1836,-3.2229,-3.2229,-3.1699,-3.1055,-3.1055,-3.1055,-3.1113,-3.1484,-3.1601,-3.1601,-3.1601,-3.1601,-3.1523,-3.1152,-3.1055,-3.1055,-3.1055,-3.1055,-3.1035,-3.0996,-3.0976,-3.0957,-3.0898,-3.0898,-3.0898,-3.0898,-3.0898,-3.0392,-2.8979,-2.8724,-2.7692,-2.4671,-2.424,-2.424,-2.424,-2.5269,0.0,-2.823,-2.9903,-3.0898,-3.0898,-3.0898,-3.0898,-3.0898,-3.1289,-3.1719,-3.2209,-3.2578,-3.2988,-3.3418,-3.3418,-3.3418,-3.3418,-3.3418,-3.3418,-3.3418,-3.3418,-3.3418,-3.3418,-3.3476,-3.373,-3.4082,-3.4199,-3.4726,-3.5508,-3.5879,-3.6016,-3.6016,-3.6016,-3.6016,-3.6016,-2.8243,-2.6335,-2.4415,-2.2971,-2.5419,-2.7785,-2.8374,-2.9729,-3.0817,-3.1075,-3.2378,-3.334,-3.3418,-3.3418,-3.3418,-3.3418,-3.3359,-3.332,-3.332,-3.293,-3.2676,-3.2676,-3.2285,-3.2051,-3.2051,-3.1621,-3.1406,-3.1406,-3.1055,-3.0898,-3.0898,-3.0898,-3.0898,-3.0898,-3.0898,-3.0898,-3.0898,-3.0898,-3.1094,-3.1406,-3.1406,-3.166,-3.2051,-3.2051,-3.2109,-3.2229,-3.2229,-3.207,-3.1934,-3.1934,-3.1934,-3.1953,-3.2031,-3.2051,-3.2051,-3.2051,-3.2051,-3.2031,-3.1973,-3.1934,-3.1934,-3.1934,-3.1934,-3.1855,-3.1484,-3.1406,-3.1309,-3.0957,-3.0898,-3.0898,-3.0898,-3.0898,-3.082,-3.0509,-3.045,-2.9785,-2.7811,-2.7572,-2.7572,-2.7572,-2.6651,-2.6651,-2.823,-2.9903,-3.0898,-3.0898,-3.0898,-3.0898,-3.0898,-3.1289,-3.1719,-3.2209,-3.2578,-3.2988,-3.3418,-3.3418,-3.3418,-3.3418,-3.3418,-3.3418,-3.3418,-3.3418,-3.3418,-3.3437,-3.3809,-3.4004,-3.4141,-3.4863,-3.5449,-3.5918,-3.5996,-3.6016,-3.6016,-3.6016,-3.6016,-3.6016,-2.6972,-2.6105,-2.5517,-2.5651,-2.7834,-2.954,-2.954,-3.0947,-3.2011,-3.2136,-3.2892,-3.3418,-3.3418,-3.3418,-3.3418,-3.3418,-3.3418,-3.3418,-3.3418,-3.3242,-3.3125,-3.3125,-3.2715,-3.25,-3.25,-3.207,-3.1855,-3.1855,-3.1426,-3.1211,-3.1211,-3.0996,-3.0898,-3.0898,-3.1113,-3.1211,-3.123,-3.1465,-3.168,-3.1855,-3.1855,-3.2109,-3.25,-3.25,-3.2637,-3.2812,-3.2812,-3.2812,-3.2754,-3.2324,-3.2229,-3.2268,-3.2422,-3.25,-3.25,-3.25,-3.25,-3.2441,-3.2287,-3.2229,-3.2229,-3.2229,-3.2229,-3.2109,-3.1894,-3.1855,-3.1797,-3.1601,-3.1367,-3.1152,-3.0937,-3.0898,-3.0645,-2.9707,-3.0333,-3.002,-2.7512,-2.7871,-2.8426,-2.8426,-2.7751,-2.7871,-2.953,-2.9648,-2.9589,-2.9589,-3.0392,-3.0898,-3.0898,-3.1504,-3.1953,-3.2168,-3.2793,-3.3223,-3.3418,-3.3418,-3.3418,-3.3418,-3.3418,-3.3418,-3.3418,-3.3418,-3.3418,-3.3437,-3.3887,-3.4199,-3.4473,-3.5351,-3.584,-3.6016,-3.6016,-3.6016,-3.6016,-3.6016,-3.6016,-3.6016,-2.6791,-2.6252,-2.632,-2.8129,-2.9913,-3.1107,-3.1107,-3.2566,-3.3633,-3.3437,-3.3418,-3.3418,-3.3418,-3.3418,-3.3418,-3.3418,-3.3418,-3.3418,-3.3418,-3.3418,-3.3418,-3.3418,-3.3105,-3.293,-3.293,-3.2519,-3.2305,-3.2305,-3.1875,-3.1422,-3.1007,-3.1151,-3.1172,-3.1172,-3.1504,-3.166,-3.168,-3.2012,-3.2226,-3.2305,-3.2305,-3.2559,-3.293,-3.293,-3.3125,-3.3418,-3.3418,-3.3418,-3.332,-3.2656,-3.2441,-3.25,-3.2832,-3.293,-3.293,-3.293,-3.293,-3.2851,-3.2519,-3.2441,-3.2441,-3.2441,-3.2441,-3.2422,-3.2324,-3.2305,-3.2285,-3.2248,-3.1894,-3.1562,-3.1211,-3.1172,-3.0701,-2.9305,-3.0154,-3.0057,-2.7391,-2.811,-2.892,-2.892,-2.8605,-2.892,-3.0274,-2.9157,-2.8426,-2.8426,-2.9648,-3.0547,-3.1016,-3.1758,-3.2268,-3.2305,-3.3027,-3.3418,-3.3418,-3.3418,-3.3418,-3.3418,-3.3418,-3.3418,-3.3418,-3.3418,-3.3476,-3.3574,-3.4023,-3.4492,-3.5039,-3.5742,-3.6016,-3.6016,-3.6016,-3.6016,-3.6016,-3.6016,-3.6016,-3.6016,-3.1117,-2.8796,-2.7077,-2.8933,-3.0781,-3.2005,-3.2005,-3.3435,-3.4297,-3.3516,-3.3418,-3.3418,-3.3418,-3.3418,-3.3418,-3.3418,-3.3418,-3.3418,-3.3418,-3.3418,-3.3418,-3.3418,-3.3379,-3.3359,-3.3359,-3.2949,-3.2734,-3.2734,-3.2305,-3.115,-2.9404,-3.1191,-3.2111,-3.2051,-3.209,-3.2109,-3.2109,-3.2148,-3.2383,-3.2734,-3.2734,-3.2988,-3.3359,-3.3359,-3.3379,-3.3418,-3.3418,-3.3418,-3.3418,-3.332,-3.3301,-3.332,-3.3359,-3.3359,-3.3359,-3.3359,-3.3359,-3.3359,-3.332,-3.3301,-3.3301,-3.3301,-3.3301,-3.3203,-3.2832,-3.2734,-3.2637,-3.2307,-3.2148,-3.209,-3.2111,-3.2111,-3.1914,-3.1265,-3.1326,-3.121,-3.0508,-3.0587,-3.0645,-3.0645,-2.9335,-2.8486,-2.8605,-2.8486,-2.8426,-2.8426,-2.8545,-2.9443,-3.1307,-3.1914,-3.2344,-3.2734,-3.3184,-3.3418,-3.3418,-3.3418,-3.3418,-3.3418,-3.3418,-3.3418,-3.3418,-3.3418,-3.3633,-3.4043,-3.4453,-3.5117,-3.5898,-3.5996,-3.6016,-3.6016,-3.6016,-3.6016,-3.6016,-3.6016,-3.6016,-3.6016,-3.1711,-3.0885,-3.0462,-3.2296,-3.3198,-3.3681,-3.3681,-3.4228,-3.457,-3.4238,-3.418,-3.418,-3.418,-3.3965,-3.3809,-3.3809,-3.3574,-3.3418,-3.3418,-3.3418,-3.3418,-3.3418,-3.3418,-3.3418,-3.3418,-3.3262,-3.3164,-3.3164,-3.2754,-3.2134,-3.1328,-3.1944,-3.2229,-3.2187,-3.2422,-3.2539,-3.2559,-3.2812,-3.3008,-3.3164,-3.3164,-3.3281,-3.3418,-3.3418,-3.3418,-3.3418,-3.3418,-3.3418,-3.3418,-3.3418,-3.3418,-3.3418,-3.3418,-3.3418,-3.3418,-3.3418,-3.3418,-3.3418,-3.3418,-3.3418,-3.3418,-3.3418,-3.3418,-3.3379,-3.3203,-3.3164,-3.3125,-3.2949,-3.2715,-3.2461,-3.2207,-3.2229,-3.2109,-3.1934,-3.1914,-3.1855,-3.168,-3.166,-3.166,-3.166,-3.1082,-3.0702,-3.0702,-2.9757,-2.9635,-3.0641,-3.0414,-3.0656,-3.1444,-3.2168,-3.2617,-3.2793,-3.3203,-3.3418,-3.3418,-3.3418,-3.3418,-3.3418,-3.3418,-3.3418,-3.3437,-3.3691,-3.4199,-3.4883,-3.5039,-3.5449,-3.6016,-3.6016,-3.6016,-3.6016,-3.6016,-3.6016,-3.6016,-3.6016,-3.6016,-3.6016,-3.29,-3.2814,-3.3016,-3.4746,-3.5098,-3.5098,-3.5098,-3.5098,-3.5098,-3.5098,-3.5098,-3.498,-3.4726,-3.4434,-3.4219,-3.4082,-3.3789,-3.3555,-3.3437,-3.3418,-3.3418,-3.3418,-3.3418,-3.3418,-3.3418,-3.3418,-3.3418,-3.3418,-3.3125,-3.2661,-3.2071,-3.1784,-3.1973,-3.2559,-3.2851,-3.2988,-3.3008,-3.3301,-3.3418,-3.3418,-3.3418,-3.3418,-3.3418,-3.3418,-3.3418,-3.3418,-3.3418,-3.3418,-3.3418,-3.3418,-3.3418,-3.3418,-3.3418,-3.3418,-3.3418,-3.3418,-3.3418,-3.3418,-3.3418,-3.3418,-3.3418,-3.3418,-3.3418,-3.3418,-3.3418,-3.3418,-3.3418,-3.3418,-3.3184,-3.2891,-3.2598,-3.2539,-3.25,-3.2383,-3.2344,-3.2305,-3.2248,-3.2229,-3.2229,-3.2229,-3.2229,-3.2229,-3.2229,-3.1134,-3.095,-3.2107,-3.1992,-3.1894,-3.1894,-3.2461,-3.2851,-3.2969,-3.3262,-3.3418,-3.3418,-3.3418,-3.3418,-3.3418,-3.3418,-3.3418,-3.3437,-3.4004,-3.4668,-3.541,-3.5527,-3.5742,-3.6016,-3.6016,-3.6016,-3.6016,-3.6016,-3.6016,-3.6016,-3.6016,-3.6016,-3.6016,-3.5568,-3.4433,-3.3794,-3.5655,-3.5996,-3.5996,-3.5996,-3.5996,-3.5996,-3.5996,-3.5996,-3.5664,-3.4805,-3.4687,-3.4531,-3.4101,-3.4062,-3.3887,-3.3457,-3.3418,-3.3418,-3.3418,-3.3418,-3.3418,-3.3418,-3.3418,-3.3418,-3.3418,-3.3418,-3.2409,-3.0447,-3.0447,-3.1488,-3.3398,-3.3418,-3.3418,-3.3418,-3.3418,-3.3418,-3.3418,-3.3418,-3.3418,-3.3418,-3.3418,-3.3418,-3.3418,-3.3418,-3.3418,-3.3418,-3.3418,-3.3418,-3.3418,-3.3418,-3.3418,-3.3418,-3.3418,-3.3418,-3.3418,-3.3418,-3.3418,-3.3418,-3.3418,-3.3418,-3.3418,-3.3418,-3.3418,-3.3418,-3.3418,-3.3418,-3.3418,-3.3418,-3.3398,-3.3262,-3.2851,-3.2793,-3.2637,-3.2287,-3.2229,-3.2229,-3.2229,-3.2229,-3.2229,-3.2229,-3.2168,-3.2168,-3.2229,-3.2559,-3.2773,-3.2773,-3.2793,-3.2988,-3.3398,-3.3418,-3.3418,-3.3418,-3.3418,-3.3418,-3.3418,-3.3418,-3.3418,-3.3457,-3.4297,-3.4941,-3.541,-3.584,-3.6016,-3.6016,-3.6016,-3.6016,-3.6016,-3.6016,-3.6016,-3.6016,-3.6016,-3.6016,-3.6016,-3.5879,-3.5519,-3.5314,-3.5879,-3.6016,-3.6016,-3.6016,-3.6016,-3.6016,-3.6016,-3.6016,-3.5918,-3.5625,-3.5351,-3.5117,-3.498,-3.4687,-3.4316,-3.3887,-3.3867,-3.373,-3.3437,-3.3418,-3.3418,-3.3418,-3.3418,-3.3418,-3.3418,-3.3418,-3.3087,-3.2428,-3.2428,-3.2758,-3.3418,-3.3418,-3.3418,-3.3418,-3.3418,-3.3418,-3.3418,-3.3418,-3.3418,-3.3418,-3.3418,-3.3418,-3.3418,-3.3418,-3.3418,-3.3418,-3.3418,-3.3418,-3.3418,-3.3418,-3.3418,-3.3418,-3.3418,-3.3418,-3.3418,-3.3418,-3.3418,-3.3418,-3.3418,-3.3418,-3.3418,-3.3418,-3.3418,-3.3418,-3.3418,-3.3418,-3.3418,-3.3418,-3.3418,-3.3379,-3.3242,-3.3223,-3.3184,-3.3047,-3.3027,-3.3027,-3.3027,-3.3027,-3.3027,-3.3027,-3.3027,-3.3027,-3.3027,-3.3144,-3.3105,-3.2812,-3.3066,-3.3281,-3.3418,-3.3418,-3.3418,-3.3418,-3.3418,-3.3418,-3.3418,-3.3418,-3.373,-3.4316,-3.4902,-3.541,-3.582,-3.5957,-3.6016,-3.6016,-3.6016,-3.6016,-3.6016,-3.6016,-3.6016,-3.6016,-3.6016,-3.6016,-3.6016,-3.6016,-3.6016,-3.6016,-3.6016,-3.6016,-3.6016,-3.6016,-3.6016,-3.6016,-3.6016,-3.6016,-3.6016,-3.6016,-3.5781,-3.5566,-3.541,-3.5137,-3.4766,-3.4336,-3.4316,-3.4121,-3.3691,-3.3672,-3.3594,-3.3418,-3.3418,-3.3418,-3.3418,-3.3418,-3.3418,-3.3418,-3.3418,-3.3418,-3.3418,-3.3418,-3.3418,-3.3418,-3.3418,-3.3418,-3.3418,-3.3418,-3.3418,-3.3418,-3.3418,-3.3418,-3.3418,-3.3418,-3.3418,-3.3418,-3.3418,-3.3418,-3.3418,-3.3418,-3.3418,-3.3418,-3.3418,-3.3418,-3.3418,-3.3418,-3.3418,-3.3418,-3.3418,-3.3418,-3.3418,-3.3418,-3.3418,-3.3418,-3.3418,-3.3418,-3.3418,-3.3418,-3.3418,-3.3418,-3.3418,-3.3418,-3.3418,-3.3418,-3.3418,-3.3418,-3.3418,-3.3418,-3.3418,-3.3418,-3.3418,-3.3418,-3.3418,-3.3418,-3.3301,-3.3047,-3.3281,-3.3418,-3.3418,-3.3418,-3.3418,-3.3418,-3.3418,-3.3418,-3.3418,-3.3594,-3.4023,-3.4726,-3.5176,-3.5625,-3.6016,-3.6016,-3.6016,-3.6016,-3.6016,-3.6016,-3.6016,-3.6016,-3.6016,-3.6016,-3.6016,-3.6016,-3.6016,-3.6016,-3.6016,-3.6016,-3.6016,-3.6016,-3.6016,-3.6016,-3.6016,-3.6016,-3.6016,-3.6016,-3.6016,-3.6016,-3.6016,-3.5859,-3.5469,-3.543,-3.5234,-3.4785,-3.4746,-3.4551,-3.4141,-3.4121,-3.3926,-3.3516,-3.3476,-3.3457,-3.3418,-3.3418,-3.3418,-3.3418,-3.3418,-3.3418,-3.3418,-3.3418,-3.3418,-3.3418,-3.3418,-3.3418,-3.3418,-3.3418,-3.3418,-3.3418,-3.3418,-3.3418,-3.3418,-3.3457,-3.3476,-3.3476,-3.3496,-3.3516,-3.3516,-3.3516,-3.3516,-3.3496,-3.3437,-3.3418,-3.3418,-3.3418,-3.3418,-3.3418,-3.3418,-3.3418,-3.3418,-3.3418,-3.3418,-3.3418,-3.3418,-3.3418,-3.3418,-3.3418,-3.3418,-3.3418,-3.3418,-3.3418,-3.3418,-3.3418,-3.3418,-3.3418,-3.3418,-3.3418,-3.3418,-3.3418,-3.3418,-3.3418,-3.3418,-3.3418,-3.3418,-3.3418,-3.3418,-3.3418,-3.3418,-3.3418,-3.3418,-3.3418,-3.3418,-3.3437,-3.3476,-3.3906,-3.4336,-3.4766,-3.5234,-3.5644,-3.6016,-3.6016,-3.6016,-3.6016,-3.6016,-3.6016,-3.6016,-3.6016,-3.6016,-3.6016,-3.6016,-3.6016,-3.6016,-3.6016,-3.6016,-3.6016,-3.6016,-3.6016,-3.6016,-3.6016,-3.6016,-3.6016,-3.6016,-3.6016,-3.6016,-3.6016,-3.6016,-3.5976,-3.5879,-3.5879,-3.5684,-3.5254,-3.5234,-3.5019,-3.457,-3.4551,-3.4512,-3.4394,-3.4082,-3.375,-3.3418,-3.3418,-3.3418,-3.3418,-3.3418,-3.3418,-3.3418,-3.3418,-3.3418,-3.3418,-3.3418,-3.3418,-3.3418,-3.3418,-3.3418,-3.3418,-3.3418,-3.3418,-3.3457,-3.3809,-3.3926,-3.3965,-3.4297,-3.4394,-3.4394,-3.4394,-3.4394,-3.4277,-3.3613,-3.3418,-3.3418,-3.3418,-3.3418,-3.3418,-3.3418,-3.3418,-3.3418,-3.3418,-3.3418,-3.3418,-3.3418,-3.3418,-3.3418,-3.3418,-3.3418,-3.3418,-3.3418,-3.3418,-3.3418,-3.3418,-3.3418,-3.3418,-3.3418,-3.3418,-3.3418,-3.3418,-3.3418,-3.3418,-3.3418,-3.3418,-3.3418,-3.3418,-3.3418,-3.3418,-3.3418,-3.3418,-3.3418,-3.3418,-3.3418,-3.3594,-3.3926,-3.4355,-3.4785,-3.5234,-3.5684,-3.5918,-3.6016,-3.6016,-3.6016,-3.6016,-3.6016,-3.6016,-3.6016,-3.6016,-3.6016,-3.6016,-3.6016,-3.6016,-3.6016,-3.6055,-3.6016,-3.6016,-3.6016,-3.6016,-3.6016,-3.6016,-3.6016,-3.6016,-3.6016,-3.6016,-3.6016,-3.6016,-3.6016,-3.6016,-3.6016,-3.6016,-3.5918,-3.5703,-3.5684,-3.5488,-3.5039,-3.5019,-3.4922,-3.4707,-3.4473,-3.4238,-3.4004,-3.4004,-3.4004,-3.4004,-3.4004,-3.4004,-3.4004,-3.4004,-3.4004,-3.4004,-3.4004,-3.4004,-3.4004,-3.4004,-3.4004,-3.4004,-3.4004,-3.4004,-3.4043,-3.4277,-3.4355,-3.4394,-3.4629,-3.4707,-3.4707,-3.4707,-3.4707,-3.4609,-3.4141,-3.4004,-3.4004,-3.4004,-3.4004,-3.4004,-3.4004,-3.4004,-3.4004,-3.4004,-3.4004,-3.3945,-3.375,-3.3711,-3.3652,-3.3457,-3.3418,-3.3418,-3.3418,-3.3418,-3.3418,-3.3418,-3.3418,-3.3418,-3.3418,-3.3418,-3.3418,-3.3418,-3.3418,-3.3418,-3.3418,-3.3418,-3.3418,-3.3418,-3.3418,-3.3418,-3.3418,-3.3418,-3.3418,-3.3418,-3.3613,-3.3828,-3.4082,-3.4707,-3.5156,-3.541,-3.582,-3.6016,-3.6016,-3.6016,-3.6016,-3.6016,-3.6016,-3.6016,-3.6016,-3.6016,-3.6016,-3.6016,-3.6016,-3.6016,-3.6016,-3.6211,-3.6113,-3.6094,-3.6035,-3.6016,-3.6016,-3.6016,-3.6016,-3.6016,-3.6016,-3.6016,-3.6016,-3.6016,-3.6016,-3.6016,-3.6016,-3.6016,-3.6016,-3.6016,-3.6016,-3.5859,-3.5508,-3.5488,-3.5312,-3.4902,-3.4844,-3.4766,-3.4707,-3.4707,-3.4707,-3.4707,-3.4707,-3.4707,-3.4707,-3.4707,-3.4707,-3.4707,-3.4707,-3.4707,-3.4707,-3.4707,-3.4707,-3.4707,-3.4707,-3.4707,-3.4707,-3.4785,-3.4805,-3.4805,-3.4883,-3.4902,-3.4902,-3.4902,-3.4902,-3.4902,-3.4902,-3.4902,-3.4863,-3.4726,-3.4707,-3.4707,-3.4707,-3.4707,-3.4707,-3.4707,-3.4707,-3.459,-3.4238,-3.416,-3.4043,-3.3691,-3.3613,-3.3594,-3.3535,-3.3516,-3.3496,-3.3437,-3.3418,-3.3418,-3.3418,-3.3418,-3.3418,-3.3418,-3.3418,-3.3418,-3.3418,-3.3418,-3.3418,-3.3418,-3.3418,-3.3457,-3.3516,-3.3457,-3.3457,-3.3516,-3.3945,-3.4199,-3.4277,-3.5039,-3.543,-3.5508,-3.5859,-3.6016,-3.6016,-3.6016,-3.6016,-3.6016,-3.6016,-3.6016,-3.6016,-3.6016,-3.6016,-3.6016,-3.6016,-3.6016,-3.6016,-3.666,-3.6562,-3.6445,-3.6094,-3.6016,-3.6016,-3.6016,-3.6016,-3.6016,-3.6016,-3.6016,-3.6016,-3.6016,-3.6016,-3.6016,-3.6016,-3.6016,-3.6016,-3.6016,-3.6016,-3.5996,-3.5918,-3.5918,-3.5879,-3.582,-3.5469,-3.5098,-3.4707,-3.4707,-3.4707,-3.4707,-3.4707,-3.4707,-3.4707,-3.4707,-3.4707,-3.4707,-3.4707,-3.4707,-3.4707,-3.4707,-3.4707,-3.4707,-3.4707,-3.4707,-3.4746,-3.5137,-3.5293,-3.5332,-3.5684,-3.582,-3.582,-3.582,-3.582,-3.582,-3.582,-3.582,-3.5644,-3.4902,-3.4707,-3.4707,-3.4707,-3.4707,-3.4707,-3.4707,-3.4707,-3.4687,-3.4609,-3.4609,-3.457,-3.4512,-3.4492,-3.4375,-3.4023,-3.3965,-3.3848,-3.3476,-3.3418,-3.3418,-3.3418,-3.3418,-3.3418,-3.3418,-3.3418,-3.3418,-3.3418,-3.3418,-3.3418,-3.3418,-3.3418,-3.3594,-3.3965,-3.3613,-3.3594,-3.3965,-3.4394,-3.4805,-3.5195,-3.5332,-3.5586,-3.5918,-3.5996,-3.6016,-3.6016,-3.6016,-3.6016,-3.6016,-3.6016,-3.6016,-3.6016,-3.6016,-3.6016,-3.6016,-3.6016,-3.6016,-3.6016,-3.709,-3.7012,-3.6875,-3.6445,-3.6367,-3.6289,-3.6055,-3.6016,-3.6016,-3.6016,-3.6016,-3.6016,-3.6016,-3.6016,-3.6016,-3.6016,-3.6016,-3.6016,-3.6016,-3.6016,-3.6016,-3.6016,-3.6016,-3.6016,-3.6016,-3.584,-3.5625,-3.541,-3.541,-3.541,-3.541,-3.541,-3.541,-3.541,-3.541,-3.541,-3.541,-3.541,-3.541,-3.541,-3.541,-3.541,-3.541,-3.541,-3.541,-3.5449,-3.5664,-3.5723,-3.5762,-3.5957,-3.6016,-3.6016,-3.6016,-3.6016,-3.6016,-3.6016,-3.6016,-3.5937,-3.5527,-3.541,-3.541,-3.541,-3.541,-3.541,-3.541,-3.541,-3.5351,-3.5117,-3.5078,-3.5,-3.4746,-3.4707,-3.4629,-3.4434,-3.4414,-3.4336,-3.4141,-3.4101,-3.4101,-3.4101,-3.4101,-3.4101,-3.4101,-3.4101,-3.4101,-3.4101,-3.4101,-3.4101,-3.4101,-3.4101,-3.4199,-3.4394,-3.4219,-3.4199,-3.4414,-3.4844,-3.5176,-3.5391,-3.5625,-3.584,-3.6016,-3.6016,-3.6016,-3.6016,-3.6016,-3.6016,-3.6016,-3.6016,-3.6016,-3.6016,-3.6016,-3.6016,-3.6016,-3.6016,-3.6016,-3.6016,-3.7519,-3.7441,-3.7305,-3.6894,-3.6816,-3.668,-3.623,-3.6172,-3.6133,-3.6035,-3.6016,-3.6016,-3.6016,-3.6016,-3.6016,-3.6016,-3.6016,-3.6016,-3.6016,-3.6016,-3.6016,-3.6016,-3.6016,-3.6016,-3.6016,-3.6016,-3.6016,-3.6016,-3.6016,-3.6016,-3.6016,-3.6016,-3.6016,-3.6016,-3.6016,-3.6016,-3.6016,-3.6016,-3.6016,-3.6016,-3.6016,-3.6016,-3.6016,-3.6016,-3.6016,-3.6016,-3.6016,-3.6016,-3.6016,-3.6016,-3.6016,-3.6016,-3.6016,-3.6016,-3.6016,-3.6016,-3.6016,-3.6016,-3.6016,-3.6016,-3.6016,-3.6016,-3.6016,-3.6016,-3.6016,-3.6016,-3.5937,-3.5605,-3.5547,-3.543,-3.5078,-3.5,-3.498,-3.4883,-3.4863,-3.4824,-3.4726,-3.4707,-3.4707,-3.4707,-3.4707,-3.4707,-3.4707,-3.4707,-3.4707,-3.4707,-3.4707,-3.4707,-3.4707,-3.4707,-3.4746,-3.4863,-3.4863,-3.4863,-3.4863,-3.5312,-3.5547,-3.5547,-3.5859,-3.6016,-3.6016,-3.6016,-3.6016,-3.6016,-3.6016,-3.6016,-3.6016,-3.6016,-3.6016,-3.6016,-3.6016,-3.6016,-3.6016,-3.6016,-3.6016,-3.6016,-3.7969,-3.7871,-3.7754,-3.7324,-3.7246,-3.7109,-3.668,-3.6621,-3.6484,-3.6074,-3.6016,-3.6016,-3.6016,-3.6016,-3.6016,-3.6016,-3.6016,-3.6016,-3.6016,-3.6016,-3.6016,-3.6016,-3.6016,-3.6016,-3.6016,-3.6016,-3.6016,-3.6016,-3.6016,-3.6016,-3.6016,-3.6016,-3.6016,-3.6016,-3.6016,-3.6016,-3.6016,-3.6016,-3.6016,-3.6016,-3.6016,-3.6016,-3.6016,-3.6016,-3.6016,-3.6016,-3.6016,-3.6016,-3.6016,-3.6016,-3.6016,-3.6016,-3.6016,-3.6016,-3.6016,-3.6016,-3.6016,-3.6016,-3.6016,-3.6016,-3.6016,-3.6016,-3.6016,-3.6016,-3.6016,-3.6016,-3.6016,-3.5976,-3.5976,-3.5957,-3.5937,-3.5918,-3.5801,-3.541,-3.5351,-3.5195,-3.4766,-3.4707,-3.4707,-3.4707,-3.4707,-3.4707,-3.4707,-3.4707,-3.4707,-3.4707,-3.4707,-3.4707,-3.4707,-3.4707,-3.4902,-3.5332,-3.5351,-3.5351,-3.5351,-3.5762,-3.5976,-3.5976,-3.5996,-3.6016,-3.6016,-3.6016,-3.6016,-3.6016,-3.6016,-3.6016,-3.6016,-3.6016,-3.6016,-3.6016,-3.6016,-3.6016,-3.6016,-3.6016,-3.6016,-3.6016,-3.8359,-3.832,-3.8184,-3.7754,-3.7676,-3.7539,-3.7129,-3.7051,-3.6914,-3.6484,-3.6426,-3.6328,-3.6055,-3.6016,-3.6016,-3.6016,-3.6016,-3.6016,-3.6016,-3.6016,-3.6016,-3.6016,-3.6016,-3.6016,-3.6016,-3.6016,-3.6016,-3.6016,-3.6016,-3.6016,-3.6016,-3.6016,-3.6016,-3.6016,-3.6016,-3.6016,-3.6016,-3.6016,-3.6016,-3.6016,-3.6016,-3.6016,-3.6016,-3.6016,-3.6016,-3.6016,-3.6016,-3.6016,-3.6016,-3.6016,-3.6016,-3.6016,-3.6016,-3.6016,-3.6016,-3.6016,-3.6016,-3.6016,-3.6016,-3.6016,-3.6016,-3.6016,-3.6016,-3.6016,-3.6016,-3.6016,-3.6016,-3.6016,-3.6016,-3.6016,-3.6016,-3.6016,-3.5976,-3.5801,-3.5781,-3.5723,-3.5547,-3.5527,-3.5527,-3.5527,-3.5527,-3.5527,-3.5527,-3.5527,-3.5527,-3.5527,-3.5527,-3.5527,-3.5527,-3.5527,-3.5605,-3.5781,-3.5781,-3.5781,-3.5781,-3.5937,-3.6016,-3.6016,-3.6016,-3.6016,-3.6016,-3.6016,-3.6016,-3.6016,-3.6016,-3.6016,-3.6016,-3.6016,-3.6016,-3.6016,-3.6016,-3.6016,-3.6016,-3.6016,-3.6016,-3.6016,-3.8574,-3.8574,-3.8476,-3.8184,-3.8125,-3.7988,-3.7559,-3.75,-3.7344,-3.6914,-3.6758,-3.6562,-3.625,-3.6094,-3.6016,-3.6016,-3.6016,-3.6016,-3.6016,-3.6016,-3.6016,-3.6016,-3.6016,-3.6016,-3.6016,-3.6016,-3.6016,-3.6016,-3.6016,-3.6016,-3.6016,-3.6016,-3.6016,-3.6016,-3.6016,-3.6016,-3.6016,-3.6016,-3.6016,-3.6016,-3.6016,-3.6016,-3.6016,-3.6016,-3.6016,-3.6016,-3.6016,-3.6016,-3.6016,-3.6016,-3.6016,-3.6016,-3.6016,-3.6016,-3.6016,-3.6016,-3.6016,-3.6016,-3.6016,-3.6016,-3.6016,-3.6016,-3.6016,-3.6016,-3.6016,-3.6016,-3.6016,-3.6016,-3.6016,-3.6016,-3.6016,-3.6016,-3.6016,-3.6016,-3.6016,-3.6016,-3.6016,-3.6016,-3.6016,-3.6016,-3.6016,-3.6016,-3.6016,-3.6016,-3.6016,-3.6016,-3.6016,-3.6016,-3.6016,-3.6016,-3.6016,-3.6016,-3.6016,-3.6016,-3.6016,-3.6016,-3.6016,-3.6016,-3.6016,-3.6016,-3.6016,-3.6016,-3.6016,-3.6016,-3.6016,-3.6016,-3.6016,-3.6016,-3.6016,-3.6016,-3.6016,-3.6016,-3.6016,-3.6016,-3.6016,-3.6016,-3.8574,-3.8574,-3.8574,-3.8574,-3.8574,-3.8418,-3.7988,-3.793,-3.7773,-3.7363,-3.6934,-3.668,-3.668,-3.6289,-3.6035,-3.6035,-3.6035,-3.6016,-3.6016,-3.6016,-3.6016,-3.6016,-3.6016,-3.6016,-3.6016,-3.6016,-3.6016,-3.6016,-3.6016,-3.6016,-3.6016,-3.6016,-3.6016,-3.6016,-3.6016,-3.6016,-3.6016,-3.6016,-3.6016,-3.6016,-3.6016,-3.6016,-3.6016,-3.6016,-3.6016,-3.6016,-3.6016,-3.6016,-3.6016,-3.6016,-3.6016,-3.6016,-3.6016,-3.6016,-3.6016,-3.6016,-3.6016,-3.6016,-3.6016,-3.6016,-3.6016,-3.6016,-3.6016,-3.6016,-3.6016,-3.6016,-3.6016,-3.6016,-3.6016,-3.6016,-3.6016,-3.6016,-3.6016,-3.6016,-3.6016,-3.6016,-3.6016,-3.6016,-3.6016,-3.6016,-3.6016,-3.6016,-3.6016,-3.6016,-3.6016,-3.6016,-3.6016,-3.6016,-3.6016,-3.6016,-3.6016,-3.6016,-3.6016,-3.6016,-3.6016,-3.6016,-3.6016,-3.6016,-3.6016,-3.6016,-3.6016,-3.6016,-3.6016,-3.6016,-3.6016,-3.6016,-3.6016,-3.6016,-3.6016,-3.6016,-3.6016,-3.6016,-3.6016,-3.6016,-3.6016,-3.6016,-3.8574,-3.8574,-3.8574,-3.8574,-3.8574,-3.8535,-3.8398,-3.8379,-3.8223,-3.7793,-3.7637,-3.7441,-3.7148,-3.6992,-3.6797,-3.6504,-3.6484,-3.6348,-3.6035,-3.6016,-3.6016,-3.6016,-3.6016,-3.6016,-3.6016,-3.6016,-3.6016,-3.6016,-3.6016,-3.6016,-3.6016,-3.6016,-3.6016,-3.6016,-3.6016,-3.6016,-3.6016,-3.6016,-3.6016,-3.6016,-3.6016,-3.6016,-3.6016,-3.6016,-3.6016,-3.6016,-3.6016,-3.6016,-3.6016,-3.6016,-3.6016,-3.6016,-3.6016,-3.6016,-3.6016,-3.6016,-3.6016,-3.6016,-3.6016,-3.6016,-3.6016,-3.6016,-3.6016,-3.6016,-3.6016,-3.6016,-3.6016,-3.6016,-3.6016,-3.6016,-3.6016,-3.6016,-3.6016,-3.6016,-3.6016,-3.6016,-3.6016,-3.6016,-3.6016,-3.6016,-3.6016,-3.6016,-3.6016,-3.6016,-3.6016,-3.6016,-3.6016,-3.6016,-3.6016,-3.6016,-3.6016,-3.6016,-3.6016,-3.6016,-3.6016,-3.6016,-3.6016,-3.6016,-3.6016,-3.6016,-3.6016,-3.6016,-3.6016,-3.6016,-3.6016,-3.6016,-3.6016,-3.6016,-3.6016,-3.6016,-3.6016,-3.6016,-3.6016,-3.6016,-3.6016,-3.6016,-3.8574,-3.8574,-3.8574,-3.8574,-3.8574,-3.8574,-3.8574,-3.8574,-3.8476,-3.8223,-3.8027,-3.7832,-3.7578,-3.7402,-3.7187,-3.6934,-3.6758,-3.6562,-3.6289,-3.6113,-3.6016,-3.6016,-3.6016,-3.6016,-3.6016,-3.6016,-3.6016,-3.6016,-3.6016,-3.6016,-3.6016,-3.6016,-3.6016,-3.6016,-3.6016,-3.6016,-3.6016,-3.6016,-3.6016,-3.6016,-3.6016,-3.6016,-3.6016,-3.6016,-3.6016,-3.6016,-3.6016,-3.6016,-3.6016,-3.6016,-3.6016,-3.6016,-3.6016,-3.6016,-3.6016,-3.6016,-3.6016,-3.6016,-3.6016,-3.6016,-3.6016,-3.6016,-3.6016,-3.6016,-3.6016,-3.6016,-3.6016,-3.6016,-3.6016,-3.6016,-3.6016,-3.6016,-3.6016,-3.6016,-3.6016,-3.6016,-3.6016,-3.6016,-3.6016,-3.6016,-3.6016,-3.6016,-3.6016,-3.6016,-3.6016,-3.6016,-3.6016,-3.6016,-3.6016,-3.6016,-3.6016,-3.6016,-3.6016,-3.6016,-3.6016,-3.6016,-3.6016,-3.6016,-3.6016,-3.6016,-3.6016,-3.6016,-3.6016,-3.6016,-3.6016,-3.6016,-3.6016,-3.6016,-3.6016,-3.6016,-3.6016,-3.6016,-3.6016,-3.6016,-3.6016,-3.6016,-3.8574,-3.8574,-3.8574,-3.8574,-3.8574,-3.8574,-3.8574,-3.8574,-3.8574,-3.8574,-3.8223,-3.7988,-3.7988,-3.7637,-3.7402,-3.7363,-3.6973,-3.6719,-3.6719,-3.6348,-3.6113,-3.6074,-3.6074,-3.6055,-3.6016,-3.6016,-3.6016,-3.6016,-3.6016,-3.6016,-3.6016,-3.6016,-3.6016,-3.6016,-3.6016,-3.6016,-3.6016,-3.6016,-3.6016,-3.6016,-3.6016,-3.6016,-3.6016,-3.6016,-3.6016,-3.6016,-3.6016,-3.6016,-3.6016,-3.6016,-3.6016,-3.6016,-3.6016,-3.6016,-3.6016,-3.6016,-3.6016,-3.6016,-3.6016,-3.6016,-3.6016,-3.6016,-3.6016,-3.6016,-3.6016,-3.6016,-3.6016,-3.6016,-3.6016,-3.6016,-3.6016,-3.6016,-3.6016,-3.6016,-3.6016,-3.6016,-3.6016,-3.6016,-3.6016,-3.6016,-3.6016,-3.6016,-3.6016,-3.6016,-3.6016,-3.6016,-3.6016,-3.6016,-3.6016,-3.6016,-3.6016,-3.6016,-3.6016,-3.6016,-3.6016,-3.6016,-3.6016,-3.6016,-3.6016,-3.6016,-3.6016,-3.6016,-3.6016,-3.6016,-3.6016,-3.6016,-3.6016,-3.6016,-3.6016,-3.6016,-3.6016,-3.6016,-3.6016,-3.6016,-3.6016,-3.6016,-3.8574,-3.8574,-3.8574,-3.8574,-3.8574,-3.8574,-3.8574,-3.8574,-3.8574,-3.8574,-3.8496,-3.8437,-3.8437,-3.8359,-3.8164,-3.7812,-3.7402,-3.7168,-3.7168,-3.707,-3.6875,-3.6543,-3.6523,-3.6367,-3.6035,-3.6016,-3.6016,-3.6016,-3.6016,-3.6016,-3.6016,-3.6016,-3.6016,-3.6016,-3.6016,-3.6016,-3.6016,-3.6016,-3.6016,-3.6016,-3.6016,-3.6016,-3.6016,-3.6016,-3.6016,-3.6016,-3.6016,-3.6016,-3.6016,-3.6016,-3.6016,-3.6016,-3.6016,-3.6016,-3.6016,-3.6016,-3.6016,-3.6016,-3.6016,-3.6016,-3.6016,-3.6016,-3.6016,-3.6016,-3.6016,-3.6016,-3.6016,-3.6016,-3.6016,-3.6016,-3.6016,-3.6016,-3.6016,-3.6016,-3.6016,-3.6016,-3.6016,-3.6016,-3.6016,-3.6016,-3.6016,-3.6016,-3.6016,-3.6016,-3.6016,-3.6016,-3.6016,-3.6016,-3.6016,-3.6016,-3.6016,-3.6016,-3.6016,-3.6016,-3.6016,-3.6016,-3.6016,-3.6016,-3.6016,-3.6016,-3.6016,-3.6016,-3.6016,-3.6016,-3.6016,-3.6016,-3.6016,-3.6016,-3.6016,-3.6016,-3.6016,-3.6016,-3.6016,-3.6016,-3.6016,-3.6016,-3.8574,-3.8574,-3.8574,-3.8574,-3.8574,-3.8574,-3.8574,-3.8574,-3.8574,-3.8574,-3.8574,-3.8574,-3.8574,-3.8574,-3.8476,-3.8262,-3.7851,-3.7598,-3.7598,-3.7402,-3.7207,-3.6973,-3.6973,-3.6855,-3.6641,-3.6426,-3.623,-3.6016,-3.6016,-3.6016,-3.6016,-3.6016,-3.6016,-3.6016,-3.6016,-3.6016,-3.6016,-3.6016,-3.6016,-3.6016,-3.6016,-3.6016,-3.6016,-3.6016,-3.6016,-3.6016,-3.6016,-3.6016,-3.6016,-3.6016,-3.6016,-3.6016,-3.6016,-3.6016,-3.6016,-3.6016,-3.6016,-3.6016,-3.6016,-3.6016,-3.6016,-3.6016,-3.6016,-3.6016,-3.6016,-3.6016,-3.6016,-3.6016,-3.6016,-3.6016,-3.6016,-3.6016,-3.6016,-3.6016,-3.6016,-3.6016,-3.6016,-3.6016,-3.6016,-3.6016,-3.6016,-3.6016,-3.6016,-3.6016,-3.6016,-3.6016,-3.6016,-3.6016,-3.6016,-3.6016,-3.6016,-3.6016,-3.6016,-3.6016,-3.6016,-3.6016,-3.6016,-3.6016,-3.6016,-3.6016,-3.6016,-3.6016,-3.6016,-3.6016,-3.6016,-3.6016,-3.6016,-3.6016,-3.6016,-3.6016,-3.6016,-3.6016,-3.6016,-3.6016,-3.6016,-3.6016,-3.8574,-3.8574,-3.8574,-3.8574,-3.8574,-3.8574,-3.8574,-3.8574,-3.8574,-3.8574,-3.8574,-3.8574,-3.8574,-3.8574,-3.8574,-3.8574,-3.8242,-3.8027,-3.8027,-3.7715,-3.748,-3.7402,-3.7402,-3.7363,-3.7305,-3.6953,-3.6562,-3.6133,-3.6055,-3.6016,-3.6016,-3.6016,-3.6016,-3.6016,-3.6016,-3.6016,-3.6016,-3.6016,-3.6016,-3.6016,-3.6016,-3.6016,-3.6016,-3.6016,-3.6016,-3.6016,-3.6016,-3.6016,-3.6016,-3.6016,-3.6016,-3.6016,-3.6016,-3.6016,-3.6016,-3.6016,-3.6016,-3.6016,-3.6016,-3.6016,-3.6016,-3.6016,-3.6016,-3.6016,-3.6016,-3.6016,-3.6016,-3.6016,-3.6016,-3.6016,-3.6016,-3.6016,-3.6016,-3.6016,-3.6016,-3.6016,-3.6016,-3.6016,-3.6016,-3.6016,-3.6016,-3.6016,-3.6016,-3.6016,-3.6016,-3.6016,-3.6016,-3.6016,-3.6016,-3.6016,-3.6016,-3.6016,-3.6016,-3.6016,-3.6016,-3.6016,-3.6016,-3.6016,-3.6016,-3.6016,-3.6016,-3.6016,-3.6016,-3.6016,-3.6016,-3.6016,-3.6016,-3.6016,-3.6016,-3.6016,-3.6016,-3.6016,-3.6016,-3.6016,-3.6016,-3.6016,-3.8574,-3.8574,-3.8574,-3.8574,-3.8574,-3.8574,-3.8574,-3.8574,-3.8574,-3.8574,-3.8574,-3.8574,-3.8574,-3.8574,-3.8574,-3.8574,-3.8516,-3.8496,-3.8496,-3.8437,-3.8242,-3.7851,-3.7832,-3.7676,-3.7305,-3.7246,-3.7012,-3.6582,-3.6211,-3.6016,-3.6016,-3.6016,-3.6016,-3.6016,-3.6016,-3.6016,-3.6016,-3.6016,-3.6016,-3.6016,-3.6016,-3.6016,-3.6016,-3.6016,-3.6016,-3.6016,-3.6016,-3.6016,-3.6016,-3.6016,-3.6016,-3.6016,-3.6016,-3.6016,-3.6016,-3.6016,-3.6016,-3.6016,-3.6016,-3.6016,-3.6016,-3.6016,-3.6016,-3.6016,-3.6016,-3.6016,-3.6016,-3.6016,-3.6016,-3.6016,-3.6016,-3.6016,-3.6016,-3.6016,-3.6016,-3.6016,-3.6016,-3.6016,-3.6016,-3.6016,-3.6016,-3.6016,-3.6016,-3.6016,-3.6016,-3.6016,-3.6016,-3.6016,-3.6016,-3.6016,-3.6016,-3.6016,-3.6016,-3.6016,-3.6016,-3.6016,-3.6016,-3.6016,-3.6016,-3.6016,-3.6016,-3.6016,-3.6016,-3.6016,-3.6016,-3.6016,-3.6016,-3.6016,-3.6016,-3.6016,-3.6016,-3.6016,-3.6016,-3.6016,-3.6016,-3.6016,-3.8574,-3.8574,-3.8574,-3.8574,-3.8574,-3.8574,-3.8574,-3.8574,-3.8574,-3.8574,-3.8574,-3.8574,-3.8574,-3.8574,-3.8574,-3.8574,-3.8574,-3.8574,-3.8574,-3.8574,-3.8496,-3.8301,-3.8281,-3.8203,-3.8008,-3.7773,-3.7559,-3.7363,-3.6953,-3.6621,-3.6387,-3.6387,-3.625,-3.6016,-3.6016,-3.6016,-3.6016,-3.6016,-3.6016,-3.6016,-3.6016,-3.6016,-3.6016,-3.6016,-3.6016,-3.6016,-3.6016,-3.6016,-3.6016,-3.6016,-3.6016,-3.6016,-3.6016,-3.6016,-3.6016,-3.6016,-3.6016,-3.6016,-3.6016,-3.6016,-3.6016,-3.6016,-3.6016,-3.6016,-3.6016,-3.6016,-3.6016,-3.6016,-3.6016,-3.6016,-3.6016,-3.6016,-3.6016,-3.6016,-3.6016,-3.6016,-3.6016,-3.6016,-3.6016,-3.6016,-3.6016,-3.6016,-3.6016,-3.6016,-3.6016,-3.6016,-3.6016,-3.6016,-3.6016,-3.6016,-3.6016,-3.6016,-3.6016,-3.6016,-3.6016,-3.6016,-3.6016,-3.6016,-3.6016,-3.6016,-3.6016,-3.6016,-3.6016,-3.6016,-3.6016,-3.6016,-3.6016,-3.6016,-3.6016,-3.6016,-3.6016,-3.6016,-3.6016,-3.6016,-3.6016,-3.6016]},{"header":{"parameterUnit":"m.s-1","parameterCategory":1,"la1":30.6,"la2":28.766,"lo1":-90.7593,"lo2":-88.6598,"dy":0.0162,"dx":0.0183,"nx":116,"ny":114,"refTime":"2023-03-26T06:00:00:Z","depth":0,"parameterNumber":3,"parameterNumberName":"V-component_of_WINDS"},"data":[0.0,0.0,0.0,0.0,0.0,0.0,0.0,0.0,0.0,0.0,0.0,0.0,0.0,0.0,0.0,0.0,0.0,0.0,0.0,0.0,0.0,0.0,0.0,0.0,0.0,0.0,0.0,0.0,0.0,0.0,0.0,0.0,0.0,0.0,0.0,0.0,0.0,0.0,0.0,0.0,0.0,0.0,0.0,0.0,0.0,0.0,0.0,0.0,0.0,0.0,0.0,0.0,0.0,0.0,0.0,0.0,0.0,0.0,0.0,0.0,0.0,0.0,0.0,0.0,0.0,0.0,0.0,0.0,0.0,0.0,0.0,0.0,0.0,0.0,0.0,0.0,0.0,0.0,0.0,0.0,0.0,0.0,0.0,0.0,0.0,0.0,0.0,0.0,0.0,0.0,0.0,0.0,0.0,0.0,0.0,0.0,0.0,0.0,0.0,0.0,0.0,0.0,0.0,0.0,0.0,0.0,0.0,0.0,0.0,0.0,0.0,0.0,0.0,0.0,0.0,0.0,0.0,0.0,0.0,0.0,0.0,0.0,0.0,0.0,0.0,0.0,0.0,0.0,0.0,0.0,0.0,0.0,0.0,0.0,0.0,0.0,0.0,0.0,0.0,0.0,0.0,0.0,0.0,0.0,0.0,0.0,0.0,0.0,0.0,0.0,0.0,0.0,0.0,0.0,0.0,0.0,0.0,0.0,0.0,0.0,0.0,0.0,0.0,0.0,0.0,0.0,0.0,0.0,0.0,0.0,0.0,0.0,0.0,0.0,0.0,0.0,0.0,0.0,0.0,0.0,0.0,0.0,0.0,0.0,0.0,0.0,0.0,0.0,0.0,0.0,0.0,0.0,0.0,0.0,0.0,0.0,0.0,0.0,0.0,0.0,0.0,0.0,0.0,0.0,0.0,0.0,0.0,0.0,0.0,0.0,0.0,0.0,0.0,0.0,0.0,0.0,0.0,0.0,0.0,0.0,0.0,0.0,0.0,0.0,0.0,0.0,0.0,0.0,0.0,0.0,0.0,0.0,0.0,0.0,0.0,0.0,0.0,0.0,0.0,0.0,0.0,0.0,0.0,0.0,0.0,0.0,0.0,0.0,0.0,0.0,0.0,0.0,0.0,0.0,0.0,0.0,0.0,0.0,0.0,0.0,0.0,0.0,0.0,0.0,0.0,0.0,0.0,0.0,0.0,0.0,0.0,0.0,0.0,0.0,0.0,0.0,0.0,0.0,0.0,0.0,0.0,0.0,0.0,0.0,0.0,0.0,0.0,0.0,0.0,0.0,0.0,0.0,0.0,0.0,0.0,0.0,0.0,0.0,0.0,0.0,0.0,0.0,0.0,0.0,0.0,0.0,0.0,0.0,0.0,0.0,0.0,0.0,0.0,0.0,0.0,0.0,0.0,0.0,0.0,0.0,0.0,0.0,0.0,0.0,0.0,0.0,0.0,0.0,0.0,0.0,0.0,0.0,0.0,0.0,0.0,0.0,0.0,0.0,0.0,0.0,0.0,0.0,0.0,0.0,0.0,0.0,0.0,0.0,0.0,0.0,0.0,0.0,0.0,0.0,0.0,0.0,0.0,0.0,0.0,0.0,0.0,0.0,0.0,0.0,0.0,0.0,0.0,0.0,0.0,0.0,0.0,0.0,0.0,0.0,0.0,0.0,0.0,0.0,0.0,0.0,0.0,0.0,0.0,0.0,0.0,0.0,0.0,0.0,0.0,0.0,0.0,0.0,0.0,0.0,0.0,0.0,0.0,0.0,0.0,0.0,0.0,0.0,0.0,0.0,0.0,0.0,0.0,0.0,0.0,0.0,0.0,0.0,0.0,0.0,0.0,0.0,0.0,0.0,0.0,0.0,0.0,0.0,0.0,0.0,0.0,0.0,0.0,0.0,0.0,0.0,0.0,0.0,0.0,0.0,0.0,0.0,0.0,0.0,0.0,0.0,0.0,0.0,0.0,0.0,0.0,0.0,0.0,0.0,0.0,0.0,0.0,0.0,0.0,0.0,0.0,0.0,0.0,0.0,0.0,0.0,0.0,0.0,0.0,0.0,0.0,0.0,0.0,0.0,0.0,0.0,0.0,0.0,0.0,0.0,0.0,0.0,0.0,0.0,0.0,0.0,0.0,0.0,0.0,0.0,0.0,0.0,0.0,0.0,0.0,0.0,0.0,0.0,0.0,0.0,0.0,0.0,0.0,0.0,0.0,0.0,0.0,0.0,0.0,0.0,0.0,0.0,0.0,0.0,0.0,0.0,0.0,0.0,0.0,0.0,0.0,0.0,0.0,0.0,0.0,0.0,0.0,0.0,0.0,0.0,0.0,0.0,0.0,0.0,0.0,0.0,0.0,0.0,0.0,0.0,0.0,0.0,0.0,0.0,0.0,0.0,0.0,0.0,0.0,0.0,0.0,0.0,0.0,0.0,0.0,0.0,0.0,0.0,0.0,0.0,0.0,0.0,0.0,0.0,0.0,0.0,0.0,0.0,0.0,0.0,0.0,0.0,0.0,0.0,0.0,0.0,0.0,0.0,0.0,0.0,0.0,0.0,0.0,0.0,0.0,0.0,0.0,0.0,0.0,0.0,0.0,0.0,0.0,0.0,0.0,0.0,0.0,0.0,0.0,0.0,0.0,0.0,0.0,0.0,0.0,0.0,0.0,0.0,0.0,0.0,0.0,0.0,0.0,0.0,0.0,0.0,0.0,0.0,0.0,0.0,0.0,0.0,0.0,0.0,0.0,0.0,0.0,0.0,0.0,0.0,0.0,0.0,0.0,0.0,0.0,0.0,0.0,0.0,0.0,0.0,0.0,0.0,0.0,0.0,0.0,0.0,0.0,0.0,0.0,0.0,0.0,0.0,0.0,0.0,0.0,0.0,0.0,0.0,0.0,0.0,0.0,0.0,0.0,0.0,0.0,0.0,0.0,0.0,0.0,0.0,0.0,0.0,0.0,0.0,0.0,0.0,0.0,0.0,0.0,0.0,0.0,0.0,0.0,0.0,0.0,0.0,0.0,0.0,0.0,0.0,0.0,0.0,0.0,0.0,0.0,0.0,0.0,0.0,0.0,0.0,0.0,0.0,0.0,0.0,0.0,0.0,0.0,0.0,0.0,0.0,0.0,0.0,0.0,0.0,0.0,0.0,0.0,0.0,0.0,0.0,0.0,0.0,0.0,0.0,0.0,0.0,0.0,0.0,0.0,0.0,0.0,0.0,0.0,0.0,0.0,0.0,0.0,0.0,0.0,0.0,0.0,0.0,0.0,0.0,0.0,0.0,0.0,0.0,0.0,0.0,0.0,0.0,0.0,0.0,0.0,0.0,0.0,0.0,0.0,0.0,0.0,0.0,0.0,0.0,0.0,0.0,0.0,0.0,0.0,0.0,0.0,0.0,0.0,0.0,0.0,0.0,0.0,0.0,0.0,0.0,0.0,0.0,0.0,0.0,0.0,0.0,0.0,0.0,0.0,0.0,0.0,0.0,0.0,0.0,0.0,0.0,0.0,0.0,0.0,0.0,0.0,0.0,0.0,0.0,0.0,0.0,0.0,0.0,0.0,0.0,0.0,0.0,0.0,0.0,0.0,0.0,0.0,0.0,0.0,0.0,0.0,0.0,0.0,0.0,0.0,0.0,0.0,0.0,0.0,0.0,0.0,0.0,0.0,0.0,0.0,0.0,0.0,0.0,0.0,0.0,0.0,0.0,0.0,0.0,0.0,0.0,0.0,0.0,0.0,0.0,0.0,0.0,0.0,0.0,0.0,0.0,0.0,0.0,0.0,0.0,0.0,0.0,0.0,0.0,0.0,0.0,0.0,0.0,0.0,0.0,0.0,0.0,0.0,0.0,0.0,0.0,0.0,0.0,0.0,0.0,0.0,0.0,0.0,0.0,0.0,0.0,0.0,0.0,0.0,0.0,0.0,0.0,0.0,0.0,0.0,0.0,0.0,0.0,0.0,0.0,0.0,0.0,0.0,0.0,0.0,0.0,0.0,0.0,0.0,0.0,0.0,0.0,0.0,0.0,0.0,0.0,0.0,0.0,0.0,0.0,0.0,0.0,0.0,0.0,0.0,0.0,0.0,0.0,0.0,0.0,0.0,0.0,0.0,0.0,0.0,0.0,0.0,0.0,0.0,0.0,0.0,0.0,0.0,0.0,0.0,0.0,0.0,0.0,0.0,0.0,0.0,0.0,0.0,0.0,0.0,0.0,0.0,0.0,0.0,0.0,0.0,0.0,0.0,0.0,0.0,0.0,0.0,0.0,0.0,0.0,0.0,0.0,0.0,0.0,0.0,0.0,0.0,0.0,0.0,0.0,0.0,0.0,0.0,0.0,0.0,0.0,0.0,0.0,0.0,0.0,0.0,0.0,0.0,0.0,0.0,0.0,0.0,0.0,0.0,0.0,0.0,0.0,0.0,0.0,0.0,0.0,0.0,0.0,0.0,0.0,0.0,0.0,0.0,0.0,0.0,0.0,0.0,0.0,0.0,0.0,0.0,0.0,0.0,0.0,0.0,0.0,0.0,0.0,0.0,0.0,0.0,0.0,0.0,0.0,0.0,0.0,0.0,0.0,0.0,0.0,0.0,0.0,0.0,0.0,0.0,0.0,0.0,0.0,0.0,0.0,0.0,0.0,0.0,0.0,0.0,0.0,0.0,0.0,0.0,0.0,0.0,0.0,0.0,0.0,0.0,0.0,0.0,0.0,0.0,0.0,0.0,0.0,0.0,0.0,0.0,0.0,0.0,0.0,0.0,0.0,0.0,0.0,0.0,0.0,0.0,0.0,0.0,0.0,0.0,0.0,0.0,0.0,0.0,0.0,0.0,0.0,0.0,0.0,0.0,0.0,0.0,0.0,0.0,0.0,0.0,0.0,0.0,0.0,0.0,0.0,0.0,0.0,0.0,0.0,0.0,0.0,0.0,0.0,0.0,0.0,0.0,0.0,0.0,0.0,0.0,0.0,0.0,0.0,0.0,0.0,0.0,0.0,0.0,0.0,0.0,0.0,0.0,0.0,0.0,0.0,0.0,0.0,0.0,0.0,0.0,0.0,0.0,0.0,0.0,0.0,0.0,0.0,0.0,0.0,0.0,0.0,0.0,0.0,0.0,0.0,0.0,0.0,0.0,0.0,0.0,0.0,0.0,0.0,0.0,0.0,0.0,0.0,0.0,0.0,0.0,0.0,0.0,0.0,0.0,0.0,0.0,0.0,0.0,0.0,0.0,0.0,0.0,0.0,0.0,0.0,0.0,0.0,0.0,0.0,0.0,0.0,0.0,0.0,0.0,0.0,0.0,0.0,0.0,0.0,0.0,0.0,0.0,0.0,0.0,0.0,0.0,0.0,0.0,0.0,0.0,0.0,0.0,0.0,0.0,0.0,0.0,0.0,0.0,0.0,0.0,0.0,0.0,0.0,0.0,0.0,0.0,0.0,0.0,0.0,0.0,0.0,0.0,0.0,0.0,0.0,0.0,0.0,0.0,0.0,0.0,0.0,0.0,0.0,0.0,0.0,0.0,0.0,0.0,0.0,0.0,0.0,0.0,0.0,0.0,0.0,0.0,0.0,0.0,0.0,0.0,0.0,0.0,0.0,0.0,0.0,0.0,0.0,0.0,0.0,0.0,0.0,0.0,0.0,0.0,0.0,0.0,0.0,0.0,0.0,0.0,0.0,0.0,0.0,0.0,0.0,0.0,0.0,0.0,0.0,0.0,0.0,0.0,0.0,0.0,0.0,0.0,0.0,0.0,0.0,0.0,0.0,0.0,0.0,0.0,0.0,0.0,0.0,0.0,0.0,0.0,0.0,0.0,0.0,0.0,0.0,0.0,0.0,0.0,0.0,0.0,0.0,0.0,0.0,0.0,0.0,0.0,0.0,0.0,0.0,0.0,0.0,0.0,0.0,0.0,0.0,0.0,0.0,0.0,0.0,0.0,0.0,0.0,0.0,0.0,0.0,0.0,0.0,0.0,0.0,0.0,0.0,0.0,0.0,0.0,0.0,0.0,0.0,0.0,0.0,0.0,0.0,0.0,0.0,0.0,0.0,0.0,0.0,0.0,0.0,0.0,0.0,0.0,0.0,0.0,0.0,0.0,0.0,0.0,0.0,0.0,0.0,3.9702,3.9373,0.0,0.0,0.0,0.0,0.0,0.0,0.0,0.0,0.0,0.0,0.0,0.0,0.0,0.0,0.0,0.0,0.0,0.0,0.0,0.0,0.0,0.0,0.0,0.0,0.0,0.0,0.0,0.0,0.0,0.0,0.0,0.0,0.0,0.0,0.0,0.0,0.0,0.0,5.1882,5.1882,5.1882,5.1882,5.1373,5.0397,0.0,0.0,0.0,0.0,0.0,0.0,0.0,0.0,0.0,0.0,0.0,0.0,0.0,0.0,0.0,0.0,0.0,0.0,0.0,0.0,0.0,0.0,0.0,0.0,0.0,0.0,0.0,0.0,0.0,0.0,0.0,0.0,0.0,0.0,0.0,0.0,0.0,0.0,0.0,0.0,0.0,0.0,0.0,0.0,0.0,0.0,0.0,0.0,0.0,0.0,0.0,0.0,0.0,0.0,0.0,0.0,0.0,0.0,0.0,0.0,0.0,0.0,0.0,0.0,0.0,0.0,0.0,0.0,0.0,0.0,4.0413,3.9809,0.0,0.0,0.0,0.0,0.0,0.0,0.0,0.0,0.0,0.0,0.0,0.0,0.0,0.0,0.0,0.0,0.0,0.0,0.0,0.0,0.0,0.0,0.0,0.0,5.1266,5.2134,5.2205,5.2205,0.0,0.0,0.0,0.0,0.0,0.0,0.0,5.3518,5.3518,5.3518,5.3518,5.3518,5.3518,5.3518,5.2557,5.1,5.1813,0.0,0.0,0.0,0.0,0.0,0.0,0.0,0.0,0.0,0.0,0.0,0.0,0.0,0.0,0.0,0.0,0.0,0.0,0.0,0.0,0.0,0.0,0.0,0.0,0.0,0.0,0.0,0.0,0.0,0.0,0.0,0.0,0.0,0.0,0.0,0.0,0.0,0.0,0.0,0.0,0.0,0.0,0.0,0.0,0.0,0.0,0.0,0.0,0.0,0.0,0.0,0.0,0.0,0.0,0.0,0.0,0.0,0.0,0.0,0.0,0.0,0.0,0.0,4.1117,4.1281,4.1574,4.2138,4.2462,4.2559,4.1683,4.078,3.9915,4.0622,0.0,0.0,0.0,0.0,0.0,0.0,0.0,0.0,0.0,0.0,0.0,0.0,0.0,0.0,0.0,0.0,0.0,0.0,0.0,0.0,0.0,5.3144,5.3144,5.328,5.3314,5.3314,5.3314,0.0,0.0,0.0,0.0,0.0,5.3518,5.3518,5.3518,5.3518,5.3518,5.3518,5.3518,5.3518,5.3348,5.311,5.3246,5.3247,5.3112,0.0,0.0,0.0,0.0,0.0,0.0,0.0,0.0,0.0,0.0,0.0,0.0,0.0,0.0,0.0,0.0,0.0,0.0,0.0,0.0,0.0,0.0,0.0,0.0,0.0,0.0,0.0,0.0,0.0,0.0,0.0,0.0,0.0,0.0,0.0,0.0,0.0,0.0,0.0,0.0,0.0,4.527,4.5172,0.0,0.0,0.0,0.0,0.0,0.0,0.0,0.0,0.0,0.0,0.0,0.0,0.0,4.1981,4.1981,4.1917,4.2172,4.2779,4.2779,4.3525,4.4849,4.4203,4.4301,4.5007,4.4258,0.0,4.169,4.1756,0.0,0.0,0.0,0.0,0.0,0.0,0.0,0.0,0.0,0.0,0.0,0.0,0.0,0.0,0.0,0.0,0.0,0.0,0.0,0.0,0.0,5.3518,5.3518,5.3518,5.3518,5.3518,5.3518,5.3518,0.0,0.0,0.0,5.3518,5.3518,5.3518,5.3518,5.3518,5.3518,5.3518,5.3518,5.3518,5.3518,5.3518,5.3518,5.3518,5.3484,5.3112,0.0,0.0,0.0,0.0,0.0,0.0,0.0,0.0,0.0,0.0,0.0,0.0,0.0,0.0,0.0,0.0,0.0,0.0,0.0,0.0,0.0,0.0,0.0,0.0,0.0,0.0,0.0,0.0,0.0,0.0,0.0,0.0,0.0,0.0,0.0,0.0,0.0,0.0,0.0,4.7111,4.6876,4.6876,4.6814,4.6532,0.0,0.0,0.0,0.0,0.0,0.0,0.0,0.0,0.0,4.4693,4.4693,4.4693,4.4693,4.4227,4.4136,4.443,4.443,4.4849,4.5525,4.5588,4.587,4.6207,4.5905,4.536,4.4596,4.3282,4.2237,4.1429,0.0,0.0,0.0,0.0,4.1429,4.1462,0.0,0.0,0.0,0.0,0.0,0.0,0.0,0.0,0.0,0.0,0.0,0.0,5.3518,5.3518,5.3518,5.3518,5.3518,5.3518,5.3518,5.3518,0.0,0.0,5.3518,5.3518,5.3518,5.3518,5.3518,5.3518,5.3518,5.3518,5.3518,5.3518,5.3518,5.3518,5.3518,5.3518,5.3518,5.3518,5.3518,5.345,0.0,0.0,0.0,0.0,0.0,0.0,0.0,0.0,0.0,0.0,0.0,0.0,0.0,0.0,0.0,0.0,0.0,0.0,0.0,0.0,0.0,0.0,0.0,0.0,0.0,0.0,0.0,0.0,0.0,0.0,0.0,0.0,0.0,0.0,0.0,0.0,0.0,4.8545,4.8206,4.8206,4.7699,4.7293,0.0,0.0,0.0,0.0,0.0,0.0,4.6786,4.6786,4.6786,4.6786,4.6786,4.6887,4.709,4.6447,4.6271,4.6701,4.6701,4.6801,4.6967,4.7625,4.78,4.7631,4.7428,4.7259,4.6925,4.4987,4.3664,4.288,4.288,4.2752,4.259,4.259,4.2622,4.2621,0.0,0.0,0.0,0.0,0.0,0.0,0.0,0.0,0.0,0.0,0.0,5.3518,5.3518,5.3518,5.3518,5.3518,5.3518,5.3518,5.3518,5.3518,5.3518,5.3518,5.3518,5.3518,5.3518,5.3518,5.3518,5.3518,5.3518,5.3518,5.3518,5.3518,5.3518,5.3518,5.3518,5.3518,5.3518,5.3518,5.3518,5.3518,5.345,0.0,0.0,0.0,0.0,0.0,0.0,0.0,0.0,0.0,0.0,0.0,0.0,0.0,0.0,0.0,0.0,0.0,0.0,0.0,0.0,0.0,0.0,0.0,0.0,0.0,0.0,0.0,0.0,0.0,0.0,0.0,0.0,0.0,0.0,0.0,0.0,0.0,0.0,4.8951,4.8917,0.0,0.0,0.0,0.0,4.6853,4.6786,4.6786,4.6786,4.6786,4.6786,4.6786,4.6786,4.7124,4.7838,4.7808,4.8483,4.9866,4.9866,5.024,5.0916,5.0948,5.0608,4.9898,4.9187,4.8511,4.777,4.6959,4.6109,4.5331,4.5331,4.4821,4.4102,4.4229,4.428,4.4304,0.0,0.0,0.0,0.0,0.0,0.0,0.0,0.0,5.3518,5.3518,5.3518,5.3518,5.3518,5.3518,5.3518,5.3518,5.3518,5.3518,5.3518,5.3518,5.3518,5.3518,5.3518,5.3518,5.3518,5.3518,5.3518,5.3518,5.3518,5.3518,5.3518,5.3518,5.3518,5.3518,5.3518,5.3518,5.3518,5.3518,5.3518,5.3518,5.3518,5.3348,0.0,0.0,0.0,0.0,0.0,0.0,0.0,0.0,0.0,0.0,0.0,0.0,0.0,0.0,0.0,0.0,0.0,0.0,0.0,0.0,0.0,0.0,0.0,0.0,0.0,0.0,0.0,0.0,0.0,0.0,0.0,0.0,0.0,0.0,0.0,0.0,0.0,4.9018,4.9018,0.0,4.8646,4.8612,4.8511,4.824,4.8206,4.8409,4.8883,4.8917,4.912,4.9627,4.9627,4.9763,5.0002,5.0002,5.0304,5.0811,5.0811,5.0947,5.1185,5.1185,5.1082,5.0811,5.0541,4.9999,4.9289,4.9018,4.7885,4.6331,4.6331,4.6149,4.5868,4.5909,4.5962,4.5958,0.0,0.0,0.0,0.0,0.0,0.0,0.0,0.0,5.3518,5.3518,5.3518,5.3518,5.3518,5.3518,5.3518,5.3518,5.3518,5.3518,5.3518,5.3518,5.3518,5.3518,5.3518,5.3518,5.3518,5.3518,5.3518,5.3518,5.3518,5.3518,5.3518,5.3518,5.3518,5.3518,5.3518,5.3518,5.3518,5.3518,5.3518,5.3518,5.3518,5.3518,5.3518,0.0,0.0,0.0,0.0,0.0,0.0,0.0,0.0,0.0,0.0,0.0,0.0,0.0,0.0,0.0,0.0,0.0,0.0,0.0,0.0,0.0,0.0,0.0,0.0,0.0,0.0,0.0,0.0,0.0,0.0,0.0,0.0,0.0,0.0,4.9018,4.9018,4.9018,4.9018,4.9018,4.9018,4.9221,4.9357,4.9357,4.9593,4.9965,5.0439,5.0473,5.071,5.1151,5.1185,5.132,5.1589,5.1589,5.1725,5.1995,5.1995,5.1995,5.1995,5.1995,5.1826,5.1589,5.1589,5.115,5.0473,5.0473,4.9593,4.824,4.7733,4.753,4.7496,4.7259,4.7158,4.7124,0.0,0.0,0.0,0.0,0.0,0.0,0.0,5.3518,5.3518,5.3518,5.3518,5.3518,5.3518,5.3518,5.3518,5.3518,5.3518,5.3518,5.3518,5.3518,5.3518,5.3518,5.3518,5.3518,5.3518,5.3518,5.3518,5.3518,5.3518,5.3518,5.3518,5.3518,5.3518,5.3518,5.3518,5.3518,5.3518,5.3518,5.3518,5.3518,5.3518,5.3518,5.3518,0.0,0.0,0.0,0.0,0.0,0.0,0.0,0.0,0.0,0.0,0.0,0.0,0.0,0.0,0.0,0.0,0.0,0.0,0.0,0.0,0.0,0.0,0.0,0.0,0.0,0.0,0.0,0.0,0.0,0.0,0.0,0.0,0.0,4.9018,4.9018,4.9018,4.9052,4.9052,4.9052,4.9086,4.9695,5.0135,5.0135,5.0811,5.1185,5.1219,5.1219,5.1219,5.1252,5.1252,5.1623,5.2334,5.2334,5.2739,5.3518,5.3518,5.3518,5.3518,5.3518,5.3078,5.2334,5.2334,5.1928,5.1219,5.1219,5.1219,5.105,4.9627,4.9052,4.8951,4.824,4.7939,4.7804,0.0,0.0,0.0,0.0,0.0,0.0,0.0,5.3518,5.3518,5.3518,5.3518,5.3518,5.3518,5.3518,5.3518,5.3518,5.3518,5.3518,5.3518,5.3518,5.3518,5.3518,5.3518,5.3518,5.3518,5.3518,5.3518,5.3518,5.3518,5.3518,5.3518,5.3518,5.3518,5.3518,5.3518,5.3518,5.3518,5.3518,5.3518,5.3518,5.3518,5.3518,5.3518,0.0,0.0,0.0,0.0,0.0,0.0,0.0,0.0,0.0,0.0,0.0,0.0,0.0,0.0,0.0,0.0,0.0,0.0,0.0,0.0,0.0,0.0,0.0,0.0,0.0,0.0,0.0,0.0,0.0,0.0,0.0,4.9018,4.9018,4.9018,4.9018,4.9187,4.9729,4.9796,4.9999,5.0541,5.0777,5.0913,5.0913,5.1116,5.1454,5.1961,5.1995,5.2266,5.2841,5.2875,5.2976,5.3179,5.3179,5.3281,5.3518,5.3518,5.3518,5.3518,5.3518,5.3382,5.3179,5.3179,5.2739,5.1995,5.1995,5.1691,5.1151,5.0745,5.027,4.9763,4.956,4.9154,4.868,0.0,0.0,0.0,0.0,0.0,0.0,0.0,5.3518,5.3518,5.3518,5.3518,5.3518,5.3518,5.3518,5.3518,5.3518,5.3518,5.3518,5.3518,5.3518,5.3518,5.3518,5.3518,5.3518,5.3518,5.3518,5.3518,5.3518,5.3518,5.3518,5.3518,5.3518,5.3518,5.3518,5.3518,5.3518,5.3518,5.3518,5.3518,5.3518,5.3518,5.3518,5.3518,5.3518,5.3518,5.345,5.2976,5.2334,5.1555,5.0811,0.0,0.0,0.0,0.0,0.0,0.0,0.0,0.0,0.0,0.0,0.0,0.0,0.0,0.0,0.0,0.0,0.0,0.0,0.0,0.0,0.0,0.0,0.0,0.0,4.9255,4.9458,4.9458,4.9458,4.9729,5.0473,5.0574,5.0744,5.1183,5.1488,5.1657,5.1657,5.1995,5.2367,5.2773,5.2807,5.301,5.3484,5.3518,5.3518,5.3518,5.3518,5.3518,5.3518,5.3518,5.3518,5.3518,5.3518,5.3518,5.3518,5.3518,5.3247,5.2807,5.2807,5.257,5.2097,0.0,0.0,0.0,0.0,5.0304,4.9932,0.0,0.0,0.0,0.0,0.0,0.0,0.0,5.3416,5.3518,5.3518,5.3518,5.3518,5.3518,5.3518,5.3518,5.3518,5.3518,5.3518,5.3518,5.3518,5.3518,5.3518,5.3518,5.3518,5.3518,5.3518,5.3518,5.3518,5.3518,5.3518,5.3518,5.3518,5.3518,5.3518,5.3518,5.3518,5.3518,5.3518,5.3518,5.3518,5.3518,5.3518,5.3518,5.3518,5.3518,5.3518,5.3518,5.2976,5.2198,5.1454,0.0,0.0,0.0,0.0,0.0,0.0,0.0,0.0,0.0,0.0,0.0,0.0,0.0,0.0,0.0,0.0,0.0,0.0,0.0,0.0,0.0,0.0,0.0,0.0,4.9729,5.0236,5.0338,5.0338,5.0574,5.1251,5.132,5.1386,5.1454,5.2063,5.2435,5.2435,5.3112,5.3518,5.3518,5.3518,0.0,0.0,0.0,5.3518,5.3518,5.3518,5.3518,5.3518,5.3518,5.3518,5.3518,5.3518,5.3518,5.3518,5.3518,5.3518,5.3518,5.3518,5.3518,5.3382,5.1894,5.132,5.1319,5.1219,5.1185,5.1185,0.0,0.0,0.0,0.0,0.0,0.0,0.0,5.2939,5.3518,5.3518,5.3518,5.3518,5.3518,5.3518,5.3518,5.3518,5.3518,5.3518,5.3518,5.3518,5.3518,5.3518,5.3518,5.3518,5.3518,5.3518,5.3518,5.3518,5.3518,5.3518,5.3518,5.3518,5.3518,5.3518,5.3518,5.3518,5.3518,5.3518,5.3518,5.3518,5.3518,5.3518,5.3518,5.3518,5.3518,5.3518,5.3518,5.2976,5.2198,5.1454,5.071,4.9965,4.9221,4.9018,0.0,0.0,0.0,0.0,0.0,0.0,0.0,0.0,0.0,0.0,0.0,0.0,0.0,0.0,0.0,0.0,0.0,0.0,0.0,4.9864,5.0507,5.1217,5.1792,5.186,5.1928,5.2063,5.2097,5.2334,5.301,5.3179,5.3281,5.3281,5.3416,5.3518,5.3518,5.3518,5.3518,5.3518,5.3518,5.3518,5.3518,5.3518,5.3518,5.3518,5.3518,0.0,5.3518,5.3518,5.3518,5.3518,5.3518,5.3518,5.3518,5.3518,5.3518,5.3416,5.2469,5.2097,5.2029,5.142,5.1185,5.1185,0.0,0.0,0.0,0.0,0.0,0.0,0.0,5.1594,5.2134,5.2627,5.2697,5.2904,5.3416,5.3518,5.3518,5.3518,5.3518,5.3518,5.3518,5.3518,5.3518,5.3518,5.3518,5.3518,5.3518,5.3518,5.3518,5.3518,5.3518,5.3518,5.3518,5.3518,5.3518,5.3518,5.3518,5.3518,5.3518,5.3518,5.3518,5.3518,5.3518,5.3518,5.3518,5.3518,5.3518,5.3518,5.3518,5.3247,5.2739,5.1589,5.098,5.0473,4.9357,4.9018,4.9018,0.0,0.0,0.0,0.0,0.0,0.0,0.0,0.0,0.0,0.0,0.0,0.0,0.0,0.0,4.912,4.9492,0.0,5.0202,5.0574,5.1285,5.1894,5.2266,5.2638,5.2909,5.2909,5.2909,5.3078,5.345,5.3518,5.3518,5.3518,5.3518,5.3518,5.3518,5.3518,5.3518,5.3518,5.3518,5.3518,5.3518,5.3518,5.3518,5.3518,5.3518,5.3518,5.3518,5.3518,5.3518,5.3518,5.3518,5.3518,5.3518,5.3518,5.3518,5.345,5.3078,5.2909,5.2875,5.2503,5.2367,5.2367,0.0,0.0,0.0,0.0,0.0,0.0,0.0,5.0281,5.0703,5.1488,5.1631,5.1993,5.3076,5.3179,5.328,5.3484,5.3314,5.328,5.3518,5.3518,5.3518,5.3518,5.3518,5.3518,5.3518,5.3518,5.3518,5.3518,5.3518,5.3518,5.3518,5.3518,5.3518,5.3518,5.3518,5.3518,5.3518,5.3518,5.3518,5.3518,5.3518,5.3518,5.3518,5.3518,5.3518,5.3518,5.3518,5.3518,5.3281,5.1725,5.1185,5.0914,4.9458,4.9018,4.9018,4.9018,4.9018,0.0,0.0,0.0,0.0,0.0,0.0,0.0,0.0,4.9018,4.9052,4.9187,4.9221,4.9424,5.0168,5.0439,5.071,5.1319,5.2063,5.2536,5.2536,5.3078,5.3518,5.3518,5.3518,5.3518,5.3518,5.3518,5.3518,5.3518,5.3518,5.3518,5.3518,5.3518,5.3518,5.3518,5.3518,5.3518,5.3518,5.3518,5.3518,5.3518,5.3518,5.3518,5.3518,5.3518,5.3518,5.3518,5.3518,5.3518,5.3518,5.3518,5.3518,5.3518,5.3518,5.3518,5.3518,5.3518,5.3518,5.3518,0.0,0.0,0.0,0.0,0.0,0.0,0.0,0.0,5.0435,5.055,5.055,5.093,5.1957,5.2065,5.2487,5.3416,5.2627,5.2487,5.3416,5.3518,5.3518,5.3518,5.3518,5.3518,5.3518,5.3518,5.3518,5.3518,5.3518,5.3518,5.3518,5.3518,5.3518,5.3518,5.3518,5.3518,5.3518,5.3518,5.3518,5.3518,5.3518,5.3518,5.3518,5.3518,5.3518,5.3518,5.3518,5.3518,5.3281,5.1725,5.1185,5.0914,4.9458,4.9018,4.9018,4.9018,4.9018,4.9018,4.9018,4.9018,4.9018,4.9018,4.9018,4.9018,0.0,4.9018,4.9187,4.983,4.9965,5.0202,5.0947,5.1623,5.2097,5.2164,5.2841,5.3382,5.3382,5.345,5.3518,5.3518,5.3518,5.3518,5.3518,5.3518,5.3518,5.3518,5.3518,5.3518,5.3518,5.3518,5.3518,5.3518,5.3518,5.3518,5.3518,5.3518,5.3518,5.3518,5.3518,5.3518,5.3518,5.3518,5.3518,5.3518,5.3518,5.3518,5.3518,5.3518,5.3518,5.3518,5.3518,5.3518,5.3518,5.3518,5.3518,5.3518,0.0,0.0,0.0,0.0,0.0,0.0,0.0,0.0,0.0,4.9376,4.9456,4.9891,5.093,5.1005,5.1447,5.2487,5.1631,5.1225,5.1667,5.2241,5.2557,5.2557,5.3144,5.3518,5.3518,5.3518,5.3518,5.3518,5.3518,5.3518,5.3518,5.3518,5.3518,5.3518,5.3518,5.3518,5.3518,5.3518,5.3518,5.3518,5.3518,5.3518,5.3518,5.3518,5.3518,5.3518,5.3518,5.3518,0.0,0.0,5.1185,5.0914,4.9458,4.9018,4.9018,4.9018,4.9018,4.9018,4.9018,4.9018,4.9018,4.9018,4.9018,4.912,4.9526,4.9627,4.983,5.0608,5.0744,5.098,5.1725,5.2097,5.2469,5.2909,5.3281,5.3518,5.3518,5.3518,5.3518,5.3518,5.3518,5.3518,5.3518,5.3518,5.3518,5.3518,5.3518,5.3518,5.3518,5.3518,5.3518,5.3518,5.3518,5.3518,5.3518,5.3518,5.3518,5.3518,5.3518,5.3518,5.3518,5.3518,5.3518,5.3518,5.3518,5.3518,5.3518,5.3518,5.3518,5.3518,5.3518,5.3518,5.3518,5.3518,5.3518,5.3518,0.0,0.0,0.0,0.0,0.0,0.0,0.0,0.0,0.0,0.0,4.8377,4.88,4.9852,4.997,5.0397,5.1377,5.055,5.0087,5.0358,5.108,5.1521,5.1521,5.2205,5.2765,5.3076,5.3076,5.3179,5.3518,5.3518,5.3518,5.3518,5.3518,5.3518,5.3518,5.3518,5.3518,5.3518,5.3518,5.3518,5.3518,5.3518,5.3518,5.3518,5.3518,5.3518,5.3518,5.3518,5.3382,0.0,0.0,5.1082,5.0676,4.939,4.9018,4.9018,4.9018,4.9018,4.9018,4.9018,4.9018,4.9052,4.9255,4.9289,4.9492,5.0236,5.0405,5.0608,5.1352,5.1522,5.1725,5.2503,5.2638,5.2807,5.3416,5.3518,5.3518,5.3518,5.3518,5.3518,5.3518,5.3518,5.3518,5.3518,5.3518,5.3518,5.3518,5.3518,5.3518,5.3518,5.3518,5.3518,5.3518,5.3518,5.3518,5.3518,5.3518,5.3518,5.3518,5.3518,5.3518,5.3518,5.3518,5.3518,5.3518,5.3518,5.3518,5.3518,5.3518,5.3518,5.3518,5.3518,5.3518,5.3518,5.3518,5.3518,5.3518,0.0,0.0,0.0,0.0,0.0,0.0,0.0,0.0,0.0,0.0,0.0,0.0,0.0,4.8851,4.9296,5.0358,4.9456,4.9296,5.032,5.0435,5.0435,5.0435,5.0474,5.093,5.1921,5.1957,5.2487,5.3518,5.3518,5.3518,5.3518,5.3518,5.3518,5.3518,5.3518,5.3518,5.3518,5.3518,5.3518,5.3518,5.3518,5.3518,5.3518,5.3518,5.3518,5.3518,5.3518,0.0,0.0,5.1488,5.0744,4.9999,4.9255,4.9018,4.9018,4.9018,4.9018,4.9018,4.9018,4.9018,4.9187,4.9864,5.0067,5.0236,5.1014,5.1183,5.1386,5.2131,5.2266,5.2503,5.3315,5.345,5.3484,5.3518,5.3518,5.3518,5.3518,5.3518,5.3518,5.3518,5.3518,5.3518,5.3518,5.3518,5.3518,5.3518,5.3518,5.3518,5.3518,5.3518,5.3518,5.3518,5.3518,5.3518,5.3518,5.3518,5.3518,5.3518,5.3518,5.3518,5.3518,5.3518,5.3518,5.3518,5.3518,5.3518,5.3518,5.3518,5.3518,5.3518,5.3518,5.3518,5.3518,5.3518,5.3518,5.3518,0.0,0.0,0.0,0.0,0.0,0.0,0.0,0.0,0.0,0.0,0.0,0.0,0.0,0.0,0.0,0.0,4.8418,4.7946,4.8324,4.8963,4.9336,4.9336,5.0009,5.055,5.0892,5.0892,5.141,5.2418,5.2418,5.28,5.3518,5.3518,5.3518,5.3518,5.3518,5.3518,5.3518,5.3518,5.3518,5.3518,5.3518,5.3179,5.2706,5.2706,5.2401,5.1995,0.0,0.0,0.0,5.0879,5.0304,4.9965,4.9221,4.9018,4.9018,4.9018,4.9018,4.912,4.9593,4.9729,4.9898,5.0642,5.0845,5.1014,5.1758,5.1928,5.2164,5.2942,5.3112,5.3179,5.345,5.3518,5.3518,5.3518,5.3518,5.3518,5.3518,5.3518,5.3518,5.3518,5.3518,5.3518,5.3518,5.3518,5.3518,5.3518,5.3518,5.3518,5.3518,5.3518,5.3518,5.3518,5.3518,5.3518,5.3518,5.3518,5.3518,5.3518,5.3518,5.3518,5.3518,5.3518,5.3518,5.3518,5.3518,5.3518,5.3518,5.3518,5.3518,5.3518,5.3518,5.3518,5.3518,5.3518,5.3518,5.3518,0.0,0.0,0.0,0.0,0.0,0.0,0.0,0.0,0.0,0.0,0.0,0.0,0.0,0.0,0.0,0.0,0.0,4.7309,4.7309,4.7904,4.8252,4.8252,4.8922,4.9362,4.9465,4.9472,4.9847,5.0631,5.0892,5.1526,5.2571,5.2838,5.3144,5.3484,5.3213,5.3078,5.3044,5.2807,5.2706,5.2706,5.2706,5.2367,5.1928,5.1928,5.1623,0.0,0.0,0.0,5.1352,5.0405,4.9898,4.9627,4.9154,4.9018,4.9018,4.9018,4.9187,4.9492,4.9965,5.027,5.0676,5.142,5.1589,5.1792,5.257,5.2739,5.2875,5.3382,5.3518,5.3518,5.3518,5.3518,5.3518,5.3518,5.3518,5.3518,5.3518,5.3518,5.3518,5.3518,5.3518,5.3518,5.3518,5.3518,5.3518,5.3518,5.3518,5.3518,5.3518,5.3518,5.3518,5.3518,5.3518,5.3518,5.3518,5.3518,5.3518,5.3518,5.3518,5.3518,5.3518,5.3518,5.3518,5.3518,5.3518,5.3518,5.3518,5.3518,5.3518,5.3518,5.3518,5.3518,5.3518,5.3518,5.3518,5.3518,0.0,0.0,0.0,0.0,0.0,0.0,0.0,0.0,0.0,0.0,0.0,0.0,0.0,0.0,0.0,0.0,0.0,0.0,4.7309,4.7309,4.7309,4.7309,4.7279,4.7431,4.7698,4.7707,4.7887,4.8327,4.9,4.9839,5.0874,5.1531,5.2389,5.3348,5.257,5.2232,5.2198,5.1522,5.1185,5.1185,5.1185,5.1151,5.115,5.115,5.115,0.0,5.0304,5.0033,5.0033,5.0033,4.9593,4.9018,4.9018,4.9018,4.9018,4.9052,4.956,5.0101,5.0168,5.071,5.1454,5.2198,5.2367,5.257,5.3348,5.3518,5.3518,5.3518,5.3518,5.3518,5.3518,5.3518,5.3518,5.3518,5.3518,5.3518,5.3518,5.3518,5.3518,5.3518,5.3518,5.3518,5.3518,5.3518,5.3518,5.3518,5.3518,5.3518,5.3518,5.3518,5.3518,5.3518,5.3518,5.3518,5.3518,5.3518,5.3518,5.3518,5.3518,5.3518,5.3518,5.3518,5.3518,5.3518,5.3518,5.3518,5.3518,5.3518,5.3518,5.3518,5.3518,5.3518,5.3518,5.3518,5.3518,5.3518,0.0,0.0,0.0,0.0,0.0,0.0,0.0,0.0,0.0,0.0,0.0,0.0,0.0,0.0,0.0,0.0,0.0,0.0,4.7309,4.7309,4.7309,4.7309,4.683,4.6599,4.6713,4.6199,4.6376,4.73,4.8179,4.9091,5.008,5.0994,5.1529,5.1792,5.1589,5.1488,5.1488,5.1285,5.1185,5.1185,5.1185,5.0879,5.0371,5.0371,5.0033,4.956,4.9357,4.9289,4.9289,4.9289,4.9154,4.9018,4.9018,4.9018,4.912,4.9661,4.9932,5.0338,5.142,5.1894,5.2232,5.301,5.3179,5.3247,5.345,5.3518,5.3518,5.3518,5.3518,5.3518,5.3518,5.3518,5.3518,5.3518,5.3518,5.3518,5.3518,5.3518,5.3518,5.3518,5.3518,5.3518,5.3518,5.3518,5.3518,5.3518,5.3518,5.3518,5.3518,5.3518,5.3518,5.3518,5.3518,5.3518,5.3518,5.3518,5.3518,5.3518,5.3518,5.3518,5.3518,5.3518,5.3518,5.3518,5.3518,5.3518,5.3518,5.3518,5.3518,5.3518,5.3518,5.3518,5.3518,5.3518,5.3518,5.3518,0.0,0.0,0.0,0.0,0.0,0.0,0.0,0.0,0.0,0.0,0.0,0.0,0.0,0.0,0.0,0.0,0.0,0.0,0.0,4.7309,4.7309,4.7309,4.6681,4.613,4.5873,4.5214,4.5031,4.5336,4.6129,4.732,4.8733,4.9546,5.0359,5.1217,5.0879,5.071,5.071,5.0371,5.0236,0.0,0.0,4.9999,4.9627,4.9627,4.9357,4.9018,4.9018,4.9018,4.9018,4.9018,4.9018,4.9018,4.9018,4.9018,4.9154,4.9864,5.0338,5.0845,5.1995,5.257,5.2942,5.3382,5.3518,5.3518,5.3518,5.3518,5.3518,5.3518,5.3518,5.3518,5.3518,5.3518,5.3518,5.3518,5.3518,5.3518,5.3518,5.3518,5.3518,5.3518,5.3518,5.3518,5.3518,5.3518,5.3518,5.3518,5.3518,5.3518,5.3518,5.3518,5.3518,5.3518,5.3518,5.3518,5.3518,5.3518,5.3518,5.3518,5.3518,5.3518,5.3518,5.3518,5.3518,5.3518,5.3518,5.3518,5.3518,5.3518,5.3518,5.3518,5.3518,5.3518,5.3518,5.3518,5.3518,5.3518,0.0,0.0,0.0,0.0,0.0,0.0,0.0,0.0,0.0,0.0,0.0,0.0,0.0,0.0,0.0,0.0,0.0,0.0,0.0,0.0,0.0,4.7309,4.6591,4.5903,4.5304,4.4556,4.3858,4.329,4.4018,4.5256,4.6989,4.7814,4.9104,5.0718,5.0204,4.9932,4.9898,4.9255,4.9018,4.9018,4.9018,4.9018,4.9018,0.0,0.0,4.9018,4.9018,4.9018,4.9018,4.9018,4.9018,4.9018,4.9018,4.9018,4.9154,4.9999,5.071,5.1386,5.2232,5.2976,5.3518,5.3518,5.3518,5.3518,5.3518,5.3518,5.3518,5.3518,5.3518,5.3518,5.3518,5.3518,5.3518,5.3518,5.3518,5.3518,5.3518,5.3518,5.3518,5.3518,5.3518,5.3518,5.3518,5.3518,5.3518,5.3518,5.3518,5.3518,5.3518,5.3518,5.3518,5.3518,5.3518,5.3518,5.3518,5.3518,5.3518,5.3518,5.3518,5.3518,5.3518,5.3518,5.3518,5.3518,5.3518,5.3518,5.3518,5.3518,5.3518,5.3518,5.3518,5.3518,5.3518,5.3518,5.3518,5.3518,0.0,0.0,0.0,0.0,0.0,0.0,0.0,0.0,0.0,0.0,4.7309,4.7309,0.0,0.0,0.0,0.0,0.0,0.0,0.0,0.0,0.0,0.0,4.6142,4.5424,4.5304,4.4107,4.3409,4.329,4.425,4.4922,4.5266,4.6915,4.7901,4.8233,4.8908,4.9187,4.9187,4.9052,4.9018,4.9018,4.9018,4.9018,4.9018,0.0,0.0,0.0,4.9018,4.9018,4.9018,4.9018,4.9018,4.9018,4.9018,4.9018,4.9255,5.0608,5.1083,5.1522,5.2909,5.3382,5.3518,5.3518,5.3518,5.3518,5.3518,5.3518,5.3518,5.3518,5.3518,5.3518,5.3518,5.3518,5.3518,5.3518,5.3518,5.3518,5.3518,5.3518,5.3518,5.3518,5.3518,5.3518,5.3518,5.3518,5.3518,5.3518,5.3518,5.3518,5.3518,5.3518,5.3518,5.3518,5.3518,5.3518,5.3518,5.3518,5.3518,5.3518,5.3518,5.3518,5.3518,5.3518,5.3518,5.3518,5.3518,5.3518,5.3518,5.3518,5.3518,5.3518,5.3518,5.3518,5.3518,5.3518,5.3518,5.3518,0.0,0.0,0.0,0.0,0.0,0.0,0.0,4.7309,4.7309,4.7309,4.7309,4.7309,4.7309,4.7309,4.7309,0.0,0.0,0.0,0.0,0.0,0.0,0.0,0.0,0.0,4.5304,4.4347,4.3648,4.329,0.0,4.4548,4.5561,4.6454,4.7373,4.8353,4.8798,4.9018,4.9018,4.9018,4.9018,4.9018,4.9018,4.9018,0.0,0.0,0.0,0.0,0.0,4.9018,4.9018,4.9018,4.9018,4.9018,4.9018,4.9018,4.9289,5.0777,5.1185,5.1555,5.3078,5.3518,5.3518,5.3518,5.3518,5.3518,5.3518,5.3518,5.3382,5.2976,5.3213,5.3382,5.2942,5.3213,5.3518,5.3518,5.3518,5.3518,5.3518,5.3518,5.3518,5.3518,5.3518,5.3518,5.3518,5.3518,5.3518,5.3518,5.3518,5.3518,5.3518,5.3518,5.3518,5.3518,5.3518,5.3518,5.3518,5.3518,5.3518,5.3518,5.3518,5.3687,5.4059,5.4059,5.4296,5.4668,5.4668,5.4668,5.4634,5.4228,5.4059,5.4025,5.3653,5.3518,5.3518,5.3518,5.3518,5.3518,0.0,0.0,0.0,0.0,0.0,0.0,0.0,4.7309,4.7309,4.7309,4.7309,4.7309,4.7309,4.7309,4.7309,0.0,0.0,0.0,0.0,0.0,0.0,0.0,0.0,0.0,0.0,0.0,0.0,4.329,4.329,0.0,0.0,0.0,0.0,0.0,4.8829,4.9018,4.9018,4.9018,4.9018,0.0,0.0,4.9018,0.0,0.0,0.0,0.0,0.0,4.9018,4.9018,4.9018,4.9018,4.9018,4.9018,4.9018,4.9255,5.0574,5.1082,5.1522,5.2875,5.3382,5.3518,5.3518,5.3518,5.3518,5.3518,5.3382,5.3078,5.2435,5.2672,5.2875,5.2401,5.2807,5.3315,5.3484,5.3518,5.3518,5.3518,5.3518,5.3518,5.3518,5.3518,5.3518,5.3518,5.3518,5.3518,5.3518,5.3518,5.3518,5.3518,5.3518,5.3518,5.3518,5.3518,5.3518,5.3518,5.3518,5.3585,5.3754,5.3754,5.4126,5.4837,5.4837,5.5141,5.5681,5.5681,5.5681,5.5683,5.5074,5.4837,5.4769,5.4194,5.3991,5.3991,5.3991,5.3991,5.3991,0.0,0.0,0.0,0.0,0.0,0.0,0.0,4.7309,4.7309,4.7309,4.7309,4.7309,4.7309,4.7309,4.7309,0.0,0.0,0.0,0.0,0.0,0.0,0.0,0.0,0.0,0.0,0.0,0.0,4.329,4.329,0.0,0.0,0.0,0.0,0.0,0.0,4.9018,4.9018,4.9018,0.0,0.0,0.0,0.0,0.0,0.0,0.0,0.0,0.0,4.9018,4.9018,4.9018,4.9018,4.9018,4.9018,4.9018,4.9154,4.9965,5.0676,5.1386,5.2198,5.2942,5.3518,5.3518,5.3518,5.3518,5.3518,5.2942,5.2401,5.2334,5.1826,5.1589,5.2198,5.2367,5.2638,5.3382,5.3518,5.3518,5.3518,5.3518,5.3518,5.3518,5.3518,5.3518,5.3518,5.3518,5.3518,5.3518,5.3518,5.3518,5.3518,5.3518,5.3518,5.3518,5.3518,5.3518,5.3518,5.3518,5.3822,5.4499,5.4499,5.4905,5.5615,5.5615,5.5649,5.5681,5.5681,5.5681,5.5681,5.5649,5.5615,5.5615,5.5547,5.5513,5.5513,5.5513,5.5513,5.5513,0.0,0.0,0.0,0.0,0.0,0.0,4.7309,4.7309,4.7309,4.7309,4.7309,4.7309,4.7309,4.7309,4.7309,4.7309,0.0,0.0,0.0,0.0,0.0,0.0,0.0,0.0,0.0,0.0,4.4586,4.3888,4.3499,0.0,0.0,0.0,0.0,0.0,0.0,4.9018,4.9018,4.9018,0.0,0.0,0.0,0.0,0.0,0.0,0.0,0.0,0.0,0.0,4.9018,4.9018,4.9018,4.9018,4.9018,4.9018,4.9154,4.9864,5.0304,5.0811,5.1995,5.2536,5.2909,5.3382,5.3518,5.3382,5.2875,5.2536,5.2063,5.115,5.1116,5.1286,5.1589,5.1995,5.257,5.3382,5.3518,5.3518,5.3518,5.3518,5.3518,5.3518,5.3518,5.3518,5.3518,5.3518,5.3518,5.3518,5.3518,5.3518,5.3518,5.3518,5.3518,5.3518,5.3518,5.3518,5.3518,5.3923,5.4296,5.46,5.504,5.5649,5.6359,5.6359,5.6596,5.7036,5.7036,5.7036,5.7002,5.6562,5.6359,5.6325,5.5886,5.5681,5.5681,5.5681,5.5681,5.5681,0.0,0.0,0.0,0.0,0.0,4.7309,4.7309,4.7309,4.7309,4.7309,4.7309,4.7309,4.7309,4.7309,4.7309,4.7309,4.7309,0.0,0.0,0.0,0.0,0.0,0.0,0.0,0.0,0.0,4.4975,4.4317,4.3618,4.3654,0.0,0.0,4.6558,4.7239,0.0,0.0,0.0,0.0,0.0,0.0,0.0,0.0,0.0,0.0,0.0,0.0,0.0,0.0,0.0,0.0,0.0,4.9018,4.9018,4.9018,4.912,4.9627,4.9932,5.0304,5.1352,5.1826,5.2131,5.2672,5.2841,5.2672,5.2097,5.1826,5.1352,5.0304,5.0338,5.071,5.115,5.1623,5.2334,5.3348,5.3518,5.3518,5.3518,5.3518,5.3518,5.3518,5.3518,5.3518,5.3518,5.3518,5.3518,5.3518,5.3518,5.3518,5.3518,5.3518,5.3518,5.3518,5.3518,5.3619,5.3822,5.4329,5.4803,5.5243,5.5784,5.6427,5.7137,5.7137,5.7408,5.7881,5.7881,5.7881,5.7848,5.734,5.7137,5.707,5.6562,5.6359,5.6359,5.6359,5.6359,5.6359,0.0,0.0,0.0,0.0,0.0,0.0,4.7309,4.7309,4.7309,4.7309,4.7309,4.7309,4.7309,4.7309,4.7309,4.7309,4.7309,0.0,0.0,0.0,0.0,0.0,0.0,0.0,0.0,0.0,4.4975,4.4317,4.3618,4.329,4.3369,4.5274,4.6208,4.6279,0.0,0.0,0.0,0.0,0.0,0.0,0.0,0.0,0.0,0.0,0.0,0.0,0.0,0.0,0.0,0.0,0.0,0.0,0.0,4.9018,4.9018,4.9018,4.9526,5.0101,5.0101,5.0676,5.1185,5.1219,5.1219,5.1219,5.1185,5.0642,5.0101,5.0101,4.9526,4.9492,5.0947,5.1217,5.1725,5.3247,5.3518,5.3518,5.3518,5.3518,5.3518,5.3518,5.3518,5.3518,5.3518,5.3518,5.3518,5.3518,5.3518,5.3518,5.3518,5.3518,5.3518,5.3518,5.3518,5.3856,5.4566,5.46,5.531,5.6799,5.6799,5.7171,5.7881,5.7881,5.7881,5.7881,5.7881,5.7881,5.7881,5.7881,5.7881,5.7881,5.7881,5.7881,5.7881,5.7881,5.7881,5.7881,0.0,0.0,0.0,0.0,0.0,0.0,0.0,4.7309,4.7309,4.7309,4.7309,4.7309,4.7309,4.7309,4.7309,4.7309,4.7309,0.0,0.0,0.0,0.0,0.0,0.0,0.0,0.0,0.0,4.5185,4.4975,4.3828,4.329,4.3329,4.5306,4.6208,4.6279,4.8161,4.9018,0.0,0.0,0.0,0.0,0.0,0.0,4.9018,0.0,0.0,0.0,0.0,0.0,0.0,0.0,0.0,0.0,0.0,0.0,0.0,4.9018,4.9187,4.9458,4.9965,5.027,5.0574,5.1082,5.1185,5.1082,5.0574,5.027,4.9965,4.9458,4.9154,4.9458,5.0947,5.1185,5.1692,5.3247,5.3518,5.3518,5.3518,5.3518,5.3518,5.3518,5.3518,5.3518,5.3518,5.3518,5.3518,5.3518,5.3518,5.3518,5.3518,5.3518,5.3518,5.3518,5.3991,5.4363,5.46,5.5581,5.6325,5.6799,5.7306,5.7679,5.7881,5.7881,5.7881,5.7881,5.7881,5.7881,5.7881,5.7881,5.7881,5.7881,5.7881,5.7881,5.7881,5.7881,5.7881,5.7881,0.0,0.0,0.0,0.0,0.0,0.0,0.0,4.7309,4.7309,4.7309,4.7309,4.7309,4.7309,4.7309,4.7309,4.7309,4.7309,0.0,0.0,0.0,0.0,0.0,0.0,0.0,4.7309,4.6232,4.5544,4.5304,4.4227,4.3529,4.3329,4.5306,4.6208,4.6279,4.8161,4.9018,0.0,0.0,0.0,0.0,0.0,0.0,4.9018,0.0,0.0,0.0,0.0,0.0,0.0,0.0,0.0,0.0,0.0,0.0,0.0,0.0,4.9018,4.9086,4.956,4.9661,4.9796,5.027,5.0371,5.027,4.9796,4.9661,4.956,4.9086,4.9018,4.9458,5.0947,5.1185,5.1692,5.3247,5.3518,5.3518,5.3518,5.3518,5.3518,5.3518,5.3518,5.3518,5.3518,5.3518,5.3518,5.3518,5.3518,5.3518,5.3518,5.3518,5.3619,5.3923,5.4363,5.4871,5.5412,5.6325,5.6934,5.7205,5.7679,5.7881,5.7881,5.7881,5.7881,5.7881,5.7881,5.7881,0.0,5.7881,5.7881,5.7881,5.7881,5.7881,5.7881,5.7881,5.7881,5.7881,0.0,0.0,0.0,0.0,0.0,0.0,0.0,4.7309,4.7309,4.7309,4.7309,4.7309,4.7309,4.7309,4.7309,4.7309,0.0,0.0,0.0,0.0,0.0,0.0,0.0,0.0,4.7309,4.6651,4.5992,4.5304,4.4646,4.3947,4.3329,4.5232,4.6138,4.6279,4.8096,4.8923,4.9018,4.9018,4.9018,4.9018,4.9018,4.9018,0.0,0.0,0.0,0.0,0.0,0.0,0.0,0.0,0.0,0.0,0.0,0.0,0.0,0.0,0.0,0.0,0.0,4.9015,4.9018,4.9018,4.9015,4.9077,4.9077,4.9077,0.0,4.9077,4.9015,4.9458,5.0947,5.1185,5.1692,5.3247,5.3518,5.3518,5.3518,5.3518,5.3518,5.3518,5.3518,5.3518,5.3518,5.3518,5.3518,5.3518,5.3518,5.3518,5.3518,5.3518,5.3856,5.4634,5.4668,5.5344,5.6799,5.6867,5.7205,5.7881,5.7881,5.7881,5.7881,5.7881,5.7881,5.7881,5.7881,5.7881,5.7881,5.7881,5.7881,5.7881,5.7881,5.7881,5.7881,5.7881,5.7881,5.7881,0.0,0.0,0.0,0.0,0.0,0.0,0.0,0.0,0.0,0.0,4.7309,4.7309,4.7309,4.7309,4.7309,0.0,0.0,0.0,0.0,0.0,0.0,0.0,0.0,0.0,4.7309,4.6651,4.5992,4.5304,4.4646,4.3947,4.3329,4.4586,4.5525,4.6244,4.7406,4.8321,4.9018,4.9018,4.9018,4.9018,4.9018,4.9018,0.0,0.0,0.0,0.0,4.9018,4.9018,0.0,0.0,0.0,0.0,0.0,0.0,0.0,0.0,4.9342,4.978,4.978,0.0,4.9018,4.9018,4.9406,4.978,0.0,4.978,4.978,4.978,4.9376,4.9458,5.0947,5.1185,5.1692,5.3247,5.3518,5.3518,5.3518,5.3518,5.3518,5.3518,5.3518,5.3518,5.3518,5.3518,5.3518,5.3518,5.3518,5.3518,5.3518,5.3518,5.4093,5.5412,5.5446,5.5886,5.6799,5.734,5.7712,5.7881,5.7881,5.7881,5.7881,5.7881,5.7881,5.7881,5.7881,5.7881,5.7881,5.7881,5.7881,5.7881,5.7881,5.7881,5.7881,5.7881,5.7881,5.7881,0.0,0.0,0.0,0.0,0.0,0.0,0.0,0.0,0.0,0.0,0.0,4.7309,4.7309,4.7309,0.0,0.0,0.0,0.0,0.0,0.0,0.0,0.0,0.0,4.7538,4.7988,4.7623,4.7201,4.6678,4.6307,4.5627,4.4637,4.5634,4.6381,4.6867,4.7836,4.8513,4.9018,4.9018,4.9018,4.9018,4.9018,0.0,0.0,0.0,0.0,0.0,4.9018,4.9018,0.0,4.9018,4.9018,4.9018,0.0,0.0,0.0,0.0,4.9462,5.0004,5.0004,4.9751,4.9462,4.9462,4.9722,5.0004,5.0004,5.0004,5.0004,5.0004,4.9736,4.9864,5.1014,5.1488,5.2097,5.3315,5.3518,5.3518,5.3518,5.3518,5.3518,5.3518,5.3518,5.3518,5.3518,5.3518,5.3518,5.3518,5.3518,5.3518,5.3518,5.3518,5.4025,5.5175,5.5547,5.6224,5.7273,5.7679,5.7881,5.7881,5.7881,5.7881,5.7881,5.7881,5.7881,5.7881,5.7881,5.7881,5.7881,5.7881,5.7881,5.7881,5.7881,5.7881,5.7881,5.7881,5.7881,5.7881,0.0,0.0,0.0,0.0,0.0,0.0,0.0,0.0,0.0,0.0,0.0,0.0,0.0,0.0,0.0,0.0,0.0,0.0,0.0,0.0,0.0,0.0,4.7764,4.8198,4.9013,4.9054,4.8867,4.8482,4.8349,4.7613,4.6369,4.7069,4.744,4.7671,4.8576,4.9018,4.9018,4.9018,4.9018,4.9018,4.9018,0.0,0.0,0.0,0.0,0.0,0.0,0.0,0.0,4.9018,4.9018,4.9018,4.9018,0.0,0.0,0.0,0.0,0.0,5.0307,5.0307,5.0279,5.0167,5.0223,5.0307,5.0307,5.0223,5.0202,5.0446,5.041,5.0558,5.141,5.2055,5.2735,5.3416,5.3518,5.3518,5.3518,5.3518,5.3518,5.3518,5.3518,5.3518,5.3518,5.3518,5.3518,5.3518,5.3518,5.3518,5.3518,5.3518,5.3822,5.4566,5.5344,5.6359,5.7712,5.7814,5.7881,5.7881,5.7881,5.7881,5.7881,5.7881,5.7881,5.7881,5.7881,5.7881,5.7881,5.7881,5.7881,5.7881,5.7881,5.7881,5.7881,5.7881,5.7881,5.7881,0.0,0.0,0.0,0.0,0.0,0.0,0.0,0.0,0.0,0.0,0.0,0.0,0.0,0.0,0.0,0.0,0.0,0.0,0.0,0.0,0.0,4.9931,4.9891,5.0009,5.0165,5.0165,4.9828,4.9224,4.861,4.7906,4.7105,4.6638,4.6833,4.7671,4.8576,4.9018,4.9018,4.9018,4.9018,4.9018,4.9018,0.0,0.0,0.0,0.0,0.0,0.0,0.0,0.0,4.9018,4.9018,4.9018,4.9018,0.0,0.0,0.0,0.0,0.0,5.1765,5.1765,5.1643,5.1086,5.1368,5.1765,5.1765,5.1343,5.1289,5.2552,5.1915,5.1543,5.2896,5.3211,5.3373,5.3482,5.3518,5.3518,5.3518,5.3518,5.3518,5.3518,5.3518,5.3518,5.3518,5.3518,5.3518,5.3518,5.3518,5.3518,5.3518,5.3518,5.3822,5.4566,5.5344,5.6122,5.6968,5.7577,5.7881,5.7881,5.7881,5.7881,5.7881,5.7881,5.7881,5.7881,5.7881,5.7881,5.7881,5.7881,5.7881,5.7881,5.7881,5.7881,5.7881,5.7881,5.7881,5.7881,0.0,0.0,0.0,0.0,0.0,0.0,0.0,0.0,0.0,0.0,0.0,0.0,0.0,0.0,0.0,0.0,0.0,0.0,0.0,0.0,5.1192,5.1192,5.1773,5.1776,5.1229,5.1192,5.1128,5.0942,5.0248,4.9521,4.8794,4.8068,4.7933,4.8353,4.8798,4.9018,4.9018,4.9018,4.9018,4.9018,0.0,0.0,0.0,0.0,0.0,0.0,0.0,0.0,0.0,0.0,4.9018,4.9018,4.9018,0.0,0.0,0.0,0.0,0.0,5.2112,5.2381,5.2599,5.2289,5.1898,5.1544,5.1544,5.1317,5.1402,5.2519,5.2573,5.2634,5.3346,5.384,5.3946,5.355,5.3518,5.3518,5.3518,5.3518,5.3518,5.3518,5.3518,5.3518,5.3518,5.3518,5.3518,5.3518,5.3518,5.3518,5.3518,5.3518,5.3653,5.3991,5.5108,5.5886,5.6224,5.734,5.7881,5.7881,5.7881,5.7881,5.7881,5.7881,5.7881,5.7881,5.7881,5.7881,5.7881,5.7881,5.7881,5.7881,5.7881,5.7881,5.7881,5.7881,5.7881,5.7881,0.0,0.0,0.0,0.0,0.0,0.0,0.0,0.0,0.0,0.0,0.0,0.0,0.0,0.0,0.0,0.0,0.0,0.0,0.0,0.0,5.2277,5.2277,5.3076,5.311,5.2277,5.2277,5.2362,5.257,5.1826,5.098,5.0067,4.9357,4.9018,4.9018,4.9018,4.9018,4.9018,4.9018,4.9018,4.9018,0.0,0.0,0.0,0.0,0.0,0.0,0.0,0.0,0.0,0.0,0.0,0.0,0.0,0.0,0.0,5.0251,5.1266,5.2358,5.2358,5.2769,5.3203,5.3203,5.2394,5.1604,5.1604,5.1586,5.1841,5.2659,5.3274,5.3697,5.3753,5.4071,5.4171,5.3584,5.3518,5.3518,5.3518,5.3518,5.3518,5.3518,5.3518,5.3518,5.3518,5.3518,5.3518,5.3518,5.3518,5.3518,5.3518,5.3518,5.3518,5.3518,5.4769,5.5547,5.5681,5.7002,5.7712,5.7881,5.7881,5.7881,5.7881,5.7881,5.7881,5.7881,5.7881,5.7881,5.7881,5.7881,5.7881,5.7881,5.7881,5.7881,5.7881,5.7881,5.7881,5.7881,0.0,0.0,0.0,0.0,0.0,0.0,0.0,0.0,0.0,0.0,0.0,0.0,0.0,0.0,0.0,0.0,0.0,0.0,0.0,0.0,5.3382,5.3382,5.3484,5.345,5.3382,5.3382,5.3382,5.3416,5.2604,5.1488,5.0067,4.9357,4.9018,4.9018,4.9018,4.9018,4.9018,4.9018,4.9018,4.9018,4.9018,0.0,0.0,0.0,0.0,0.0,0.0,0.0,0.0,0.0,0.0,0.0,0.0,0.0,5.1008,5.1008,5.203,5.3124,5.3124,5.3146,5.3203,5.3203,5.3124,5.306,5.306,5.3113,5.3363,5.4179,5.4437,5.4501,5.4517,5.4008,5.3551,5.3518,5.3518,5.3518,5.3518,5.3518,5.3518,5.3518,5.3518,5.3518,5.3518,5.3518,5.3518,5.3518,5.3518,5.3518,5.3518,5.3518,5.3518,5.3518,5.4262,5.5006,5.5681,5.6494,5.7205,5.7881,5.7881,5.7881,5.7881,5.7881,5.7881,5.7881,5.7881,5.7881,5.7881,5.7881,5.7881,5.7881,5.7881,5.7881,5.7881,5.7881,5.7881,5.7881,0.0,0.0,0.0,0.0,0.0,0.0,0.0,0.0,0.0,0.0,0.0,0.0,0.0,0.0,0.0,0.0,0.0,0.0,0.0,5.328,5.3518,5.3518,5.3518,5.3518,5.3518,5.3518,5.3518,5.3518,5.2232,5.1116,5.0067,4.9357,4.9018,4.9018,4.9018,4.9018,4.9018,4.9018,4.9018,4.9018,4.9018,4.9018,0.0,0.0,0.0,0.0,0.0,0.0,0.0,0.0,4.9018,4.9018,4.9018,4.9982,5.1086,5.1086,5.2101,5.3203,5.3203,5.3203,5.3203,5.3203,5.3592,5.3836,5.3349,5.3277,5.3689,5.5024,5.5292,5.5268,5.5296,5.4296,5.3651,5.4106,5.3816,5.3518,5.3518,5.3518,5.3518,5.3518,5.3518,5.3518,5.3518,5.3518,5.3518,5.3518,5.3518,5.3518,5.3518,5.3518,5.3518,5.3518,5.4228,5.4938,5.5681,5.6427,5.7171,5.7881,5.7881,5.7881,5.7881,5.7881,5.7881,5.7881,5.7881,5.7881,5.7881,5.7881,5.7881,5.7881,5.7881,5.7881,5.7881,5.7881,5.7881,5.7881,0.0,0.0,0.0,0.0,0.0,0.0,0.0,0.0,0.0,0.0,0.0,0.0,0.0,0.0,0.0,0.0,0.0,0.0,5.287,5.3314,5.3518,5.3518,5.3518,5.3518,5.3518,5.3518,5.3518,5.3518,5.2198,5.1183,5.0439,4.9695,4.9221,4.9018,4.9018,4.9018,4.9018,4.9018,4.9018,4.9018,4.9018,4.9018,0.0,0.0,0.0,0.0,0.0,0.0,0.0,0.0,4.9018,4.9018,4.9018,4.9982,5.1086,5.1086,5.1922,5.2915,5.3124,5.3039,5.2915,5.3124,5.3812,5.4327,5.409,5.4215,5.4652,5.5605,5.5749,5.5643,5.5389,5.4513,5.3946,5.42,5.3815,5.3518,5.3518,5.3518,5.3518,5.3518,5.3518,5.3518,5.3518,5.3518,5.3518,5.3518,5.3518,5.3518,5.3518,5.3518,5.3518,5.3518,5.3991,5.46,5.5344,5.6089,5.6833,5.7543,5.778,5.7881,5.7881,5.7881,5.7881,5.7881,5.7881,5.7881,5.7881,5.7881,5.7881,5.7881,5.7881,5.7881,5.7881,5.7881,5.7881,5.7881,0.0,0.0,0.0,0.0,0.0,0.0,0.0,0.0,0.0,0.0,0.0,0.0,0.0,0.0,0.0,0.0,0.0,0.0,5.1849,5.2904,5.3518,5.3518,5.3518,5.3518,5.3518,5.3518,5.3518,5.3518,5.2706,5.1928,5.1185,5.0439,4.9695,4.9018,4.9018,4.9018,4.9018,4.9018,4.9018,4.9018,4.9018,4.9018,4.9018,0.0,0.0,0.0,0.0,0.0,0.0,0.0,4.9018,4.9018,4.9018,4.9982,5.1086,5.1086,5.1569,5.2289,5.298,5.268,5.2289,5.3039,5.3812,5.462,5.5427,5.6235,5.6603,5.5846,5.5687,5.5495,5.4757,5.4572,5.4391,5.3651,5.3518,5.3518,5.3518,5.3518,5.3518,5.3518,5.3518,5.3518,5.3518,5.3518,5.3518,5.3518,5.3518,5.3518,5.3518,5.3518,5.3518,5.3518,5.3518,5.3856,5.4566,5.5344,5.6089,5.6799,5.7543,5.7881,5.7881,5.7881,5.7881,5.7881,5.7881,5.7881,5.7881,5.7881,5.7881,5.7881,5.7881,5.7881,5.7881,5.7881,5.7881,5.7881,0.0,0.0,0.0,0.0,0.0,0.0,0.0,0.0,0.0,0.0,0.0,0.0,0.0,0.0,0.0,0.0,0.0,0.0,5.2904,5.3314,5.3518,5.3518,5.3518,5.3518,5.3518,5.3518,5.3518,5.3518,5.2706,5.2198,5.1961,5.0676,4.9965,4.9729,4.9221,4.9018,4.9018,4.9018,4.9018,4.9018,4.9018,4.9018,4.9018,0.0,0.0,0.0,0.0,0.0,0.0,0.0,0.0,0.0,4.9018,4.9982,5.1086,5.1086,5.1922,5.2915,5.3124,5.306,5.2937,5.3124,5.4216,5.5317,5.5559,5.6235,5.6749,5.657,5.6551,5.6313,5.5524,5.4969,5.4544,5.4328,5.3815,5.3518,5.3518,5.3518,5.3518,5.3518,5.3518,5.3518,5.3518,5.3518,5.3518,5.3518,5.3518,5.3518,5.3518,5.3518,5.3518,5.3518,5.3518,5.3856,5.4566,5.5344,5.6089,5.6799,5.7543,5.7881,5.7881,5.7881,5.7881,5.7881,5.7881,5.7881,5.7881,5.7881,5.7881,5.7881,5.7881,5.7881,5.7881,5.7881,5.7881,5.7881,0.0,0.0,0.0,0.0,0.0,0.0,0.0,0.0,0.0,0.0,0.0,0.0,0.0,0.0,0.0,0.0,0.0,0.0,0.0,5.328,5.3518,5.3518,5.3518,5.3518,5.3518,5.3518,5.3518,5.3518,5.301,5.2604,5.2266,5.1386,5.0642,5.0067,4.9627,4.9255,4.9018,4.9018,4.9018,4.9018,4.9018,4.9018,4.9018,0.0,0.0,0.0,0.0,0.0,0.0,0.0,0.0,0.0,4.9018,4.9982,5.1034,5.0743,5.1444,5.2417,5.2702,5.2554,5.2486,5.306,5.4399,5.578,5.6381,5.6932,5.7294,5.7316,5.7351,5.6978,5.592,5.535,5.4848,5.4264,5.3783,5.3518,5.3518,5.3518,5.3518,5.3518,5.3518,5.3518,5.3518,5.3518,5.3518,5.3518,5.3518,5.3518,5.3518,5.3518,5.3518,5.3518,5.3518,5.3856,5.4566,5.5344,5.6089,5.6799,5.7543,5.7881,5.7881,5.7881,5.7881,5.7881,5.7881,5.7881,5.7881,5.7881,5.7881,5.7881,5.7881,5.7881,5.7881,5.7881,5.7881,5.7881,0.0,0.0,0.0,0.0,0.0,0.0,0.0,0.0,0.0,0.0,0.0,0.0,0.0,0.0,0.0,0.0,0.0,0.0,0.0,0.0,5.3518,5.3518,5.3518,5.3518,5.3518,5.3518,5.3518,5.3518,5.3518,5.3145,5.2401,5.2334,5.1589,5.0304,5.0236,4.9796,4.9086,4.9086,4.9052,4.9018,4.9018,4.9018,4.9018,4.9018,0.0,0.0,0.0,0.0,0.0,0.0,0.0,0.0,4.9018,4.9982,5.0955,5.023,5.0554,5.1317,5.191,5.1643,5.1494,5.2872,5.4399,5.6014,5.7629,5.7997,5.7997,5.7997,5.7997,5.7546,5.6004,5.5724,5.5203,5.3717,5.3518,5.3518,5.3518,5.3518,5.3518,5.3518,5.3518,5.3518,5.3518,5.3518,5.3518,5.3518,5.3518,5.3518,5.3518,5.3518,5.3518,5.3518,5.3518,5.3856,5.4566,5.5344,5.6089,5.6799,5.7543,5.7881,5.7881,5.7881,5.7881,5.7881,5.7881,5.7881,5.7881,5.7881,5.7881,5.7881,5.7881,5.7881,5.7881,5.7881,5.7881,5.7881,0.0,0.0,0.0,0.0,0.0,0.0,0.0,0.0,0.0,0.0,0.0,0.0,0.0,0.0,0.0,0.0,0.0,0.0,0.0,0.0,5.3518,5.3518,5.3518,5.3518,5.3518,5.3518,5.3518,5.3518,5.3518,5.3416,5.3247,5.2604,5.2131,5.1792,5.1217,5.0541,4.9864,4.9864,4.9526,4.9018,4.9018,4.9018,4.9018,4.9018,4.9018,0.0,0.0,0.0,0.0,0.0,0.0,0.0,4.9018,4.9982,5.0955,5.023,5.0867,5.1946,5.2065,5.2018,5.2089,5.2959,5.4399,5.6014,5.7629,5.7997,5.7997,5.7997,5.7997,5.7546,5.6004,5.5724,5.5203,5.3717,5.3518,5.3518,5.3518,5.3518,5.3518,5.3518,5.3518,5.3518,5.3518,5.3518,5.3518,5.3518,5.3518,5.3518,5.3518,5.3518,5.3518,5.3518,5.3518,5.3856,5.4566,5.5344,5.6089,5.6799,5.7543,5.7881,5.7881,5.7881,5.7881,5.7881,5.7881,5.7881,5.7881,5.7881,5.7881,5.7881,5.7881,5.7881,5.7881,5.7881,5.7881,5.7881,0.0,0.0,0.0,0.0,0.0,0.0,0.0,0.0,0.0,0.0,0.0,0.0,0.0,0.0,0.0,0.0,0.0,0.0,0.0,0.0,5.3518,5.3518,5.3518,5.3518,5.3518,5.3518,5.3518,5.3518,5.3518,5.3518,5.3484,5.3078,5.2672,5.2266,5.1894,5.1319,5.0608,5.0236,4.9864,4.9492,4.9154,4.9018,4.9018,4.9018,4.9018,4.9018,4.9018,0.0,0.0,0.0,0.0,0.0,0.0,0.0,5.0417,4.9722,5.05,5.1544,5.118,5.1593,5.247,5.3954,5.4987,5.6014,5.7629,5.7997,5.7997,5.7997,5.7997,5.7546,5.6004,5.5724,5.5203,5.3717,5.3518,5.3518,5.3518,5.3518,5.3518,5.3518,5.3518,5.3518,5.3518,5.3518,5.3518,5.3518,5.3518,5.3518,5.3518,5.3518,5.3518,5.3518,5.3518,5.4025,5.5108,5.5513,5.6258,5.734,5.7712,5.7881,5.7881,5.7881,5.7881,5.7881,5.7881,5.7881,5.7881,5.7881,5.7881,5.7881,5.7881,5.7881,5.7881,5.7881,5.7881,5.7881,0.0,0.0,0.0,0.0,0.0,0.0,0.0,0.0,0.0,0.0,0.0,0.0,0.0,0.0,0.0,0.0,0.0,0.0,0.0,0.0,0.0,5.3518,5.3518,5.3518,5.3518,5.3518,5.3518,5.3518,5.3518,5.3518,5.3518,5.3518,5.3145,5.2503,5.2503,5.2097,5.1352,5.0744,5.0405,5.0236,4.9492,4.9187,4.9187,4.9052,4.9018,4.9018,4.9018,4.9018,4.9018,4.9018,0.0,0.0,0.0,0.0,4.9861,4.9229,4.9925,5.0796,5.0307,5.1102,5.2627,5.4866,5.544,5.5843,5.7431,5.7927,5.7997,5.7997,5.7904,5.7364,5.5976,5.561,5.5089,5.3717,5.3518,5.3518,5.3518,5.3518,5.3518,5.3518,5.3518,5.3518,5.3518,5.3518,5.3518,5.3518,5.3518,5.3518,5.3518,5.3518,5.3518,5.3518,5.3518,5.4228,5.5716,5.5681,5.6461,5.7881,5.7881,5.7881,5.7881,5.7881,5.7881,5.7881,5.7881,5.7881,5.7881,5.7881,5.7881,5.7881,5.7881,5.7881,5.7881,5.7881,5.7881,5.7881,0.0,0.0,0.0,0.0,0.0,0.0,0.0,0.0,0.0,0.0,5.1488,0.0,0.0,0.0,0.0,0.0,0.0,0.0,0.0,0.0,0.0,5.3518,5.3518,5.3518,5.3518,5.3518,5.3518,5.3518,5.3518,5.3518,5.3518,5.3518,5.345,5.3348,5.3348,5.2909,5.2164,5.2063,5.1657,5.1014,5.0236,4.9932,4.9864,4.9255,4.9018,4.9018,4.9018,4.9018,4.9018,4.9018,4.9018,0.0,0.0,0.0,4.9861,4.9229,4.9551,5.0251,5.0796,5.1519,5.2509,5.4207,5.4689,5.5136,5.6678,5.7522,5.7997,5.7997,5.7474,5.6773,5.5865,5.5173,5.4451,5.3651,5.3518,5.3518,5.3518,5.3518,5.3518,5.3518,5.3518,5.3518,5.3518,5.3518,5.3518,5.3518,5.3518,5.3518,5.3518,5.3518,5.3518,5.3518,5.3518,5.4228,5.5716,5.5681,5.6461,5.7881,5.7881,5.7881,5.7881,5.7881,5.7881,5.7881,5.7881,5.7881,5.7881,5.7881,5.7881,5.7881,5.7881,5.7881,5.7881,5.7881,5.7881,5.7881,0.0,0.0,0.0,0.0,0.0,0.0,0.0,0.0,0.0,0.0,0.0,5.2312,0.0,0.0,0.0,0.0,0.0,0.0,0.0,0.0,0.0,5.3518,5.3518,5.3518,5.3518,5.3518,5.3518,5.3518,5.3518,5.3518,5.3518,5.3518,5.3518,5.3518,5.3518,5.3315,5.2942,5.2503,5.2131,5.1758,5.1014,5.071,5.0642,4.9898,4.9627,4.956,4.9154,4.9018,4.9018,4.9018,4.9018,4.9018,4.9018,0.0,0.0,0.0,4.9462,5.0174,5.0903,5.1317,5.183,5.2973,5.3957,5.4806,5.5436,5.6526,5.7376,5.7376,5.6421,5.561,5.5695,5.5084,5.4359,5.3618,5.3518,5.3518,5.3518,5.3518,5.3518,5.3518,5.3518,5.3518,5.3518,5.3518,5.3518,5.3518,5.3518,5.3518,5.3518,5.3518,5.3518,5.3518,5.389,5.4634,5.5716,5.6122,5.6867,5.7881,5.7881,5.7881,5.7881,5.7881,5.7881,5.7881,5.7881,5.7881,5.7881,5.7881,5.7881,5.7881,5.7881,5.7881,5.7881,5.7881,5.7881,5.7881,0.0,0.0,0.0,0.0,0.0,0.0,0.0,0.0,0.0,0.0,0.0,0.0,0.0,0.0,0.0,0.0,0.0,0.0,0.0,0.0,0.0,5.3518,5.3518,5.3518,5.3518,5.3518,5.3518,5.3518,5.3518,5.3518,5.3518,5.3518,5.3518,5.3518,5.3518,5.3518,5.345,5.2875,5.2604,5.2536,5.1792,5.1488,5.142,5.0676,5.0371,5.027,4.9526,4.9289,4.9255,4.9052,4.9018,4.9018,4.9018,4.9018,0.0,0.0,0.0,5.0118,5.0662,5.0823,5.0999,5.1836,5.3016,5.4099,5.4267,5.5497,5.6589,5.6589,5.5524,5.4757,5.532,5.4818,5.4139,5.3584,5.3518,5.3518,5.3518,5.3518,5.3518,5.3518,5.3518,5.3518,5.3518,5.3518,5.3518,5.3518,5.3518,5.3518,5.3518,5.3518,5.3518,5.3518,5.4228,5.4938,5.5681,5.663,5.734,5.7881,5.7881,5.7881,5.7881,5.7881,5.7881,5.7881,5.7881,5.7881,5.7881,5.7881,5.7881,5.7881,5.7881,5.7881,5.7881,5.7881,5.7881,5.7881,0.0,0.0,0.0,0.0,0.0,0.0,0.0,0.0,0.0,0.0,0.0,0.0,0.0,5.3518,5.3518,5.3518,0.0,0.0,0.0,0.0,0.0,5.3518,5.3518,0.0,5.3518,5.3518,5.3518,5.3518,5.3518,5.3518,5.3518,5.3518,5.3518,5.3518,5.3518,5.3518,5.3518,5.345,5.345,5.3382,5.257,5.2232,5.2164,5.142,5.115,5.1048,5.0304,5.0033,4.9932,4.9255,4.9018,4.9018,4.9018,4.9018,4.9018,0.0,0.0,0.0,5.0061,5.0061,5.0235,5.1032,5.1882,5.2705,5.338,5.4706,5.578,5.578,5.5144,5.4603,5.4634,5.4042,5.3517,5.3518,5.3518,5.3518,5.3518,5.3518,5.3518,5.3518,5.3518,5.3518,5.3518,5.3518,5.3518,5.3518,5.3518,5.3518,5.3518,5.3518,5.3518,5.3518,5.4228,5.4938,5.5681,5.7137,5.7848,5.7881,5.7881,5.7881,5.7881,5.7881,5.7881,5.7881,5.7881,5.7881,5.7881,5.7881,5.7881,5.7881,5.7881,5.7881,5.7881,5.7881,5.7881,5.7881,0.0,0.0,0.0,0.0,0.0,0.0,0.0,0.0,0.0,0.0,0.0,0.0,0.0,5.3518,5.3518,5.3518,5.3518,0.0,0.0,0.0,0.0,5.3518,5.3518,5.3518,5.3518,5.3518,5.3518,5.3518,5.3518,5.3518,5.3518,5.3518,5.3518,5.3518,5.3518,5.3518,5.3518,5.3518,5.3518,5.3484,5.3179,5.3078,5.2976,5.2198,5.1928,5.1826,5.1082,5.0811,5.071,4.9965,4.9695,4.9627,4.9154,4.9018,4.9018,4.9018,4.9462,4.989,4.9492,4.9664,4.9959,4.9804,5.1094,5.2334,5.2093,5.3552,5.4964,5.4964,5.4422,5.4042,5.4513,5.4011,5.3518,5.3518,5.3518,5.3518,5.3518,5.3518,5.3518,5.3518,5.3518,5.3518,5.3518,5.3518,5.3518,5.3518,5.3518,5.3518,5.3518,5.3518,5.3518,5.3518,5.4668,5.5886,5.7103,5.7645,5.7881,5.7881,5.7881,5.7881,5.7881,5.7881,5.7881,5.7881,5.7881,5.7881,5.7881,5.7881,5.7881,5.7881,5.7881,5.7881,5.7881,5.7881,5.7881,5.7881,0.0,0.0,0.0,0.0,0.0,0.0,0.0,0.0,0.0,0.0,0.0,0.0,0.0,0.0,5.3518,5.3518,5.3518,5.3518,5.3518,5.3518,5.3518,5.3518,5.3518,5.3518,5.3518,5.3247,5.3247,5.3518,5.3247,5.3247,5.3518,5.3518,5.3518,5.3518,5.3518,5.3518,5.3518,5.3518,5.3518,5.3518,5.3518,5.3518,5.345,5.2909,5.2706,5.2604,5.186,5.1589,5.1454,5.071,5.0304,4.9999,4.9526,4.9187,4.9018,4.9018,4.9316,4.958,4.9138,4.9346,4.958,4.9107,5.0503,5.1874,5.1312,5.2789,5.4232,5.4232,5.3815,5.3651,5.4139,5.3815,5.3518,5.3518,5.3518,5.3518,5.3518,5.3518,5.3518,5.3518,5.3518,5.3518,5.3518,5.3518,5.3518,5.3518,5.3518,5.3518,5.3518,5.3518,5.3721,5.4228,5.5209,5.6427,5.7881,5.7881,5.7881,5.7881,5.7881,5.7881,5.7881,5.7881,5.7881,5.7881,5.7881,5.7881,5.7881,5.7881,5.7881,5.7881,5.7881,5.7881,5.7881,5.7881,5.7881,5.7881,0.0,0.0,0.0,0.0,0.0,0.0,0.0,0.0,0.0,5.3518,0.0,0.0,0.0,0.0,0.0,5.3518,5.3518,5.3518,5.3518,5.3518,5.3518,5.3518,0.0,0.0,5.3518,5.2739,5.2706,5.3518,5.2706,5.2739,5.3518,5.3518,5.3518,5.3518,5.3518,5.3518,5.3518,5.3518,5.3518,5.3518,5.3518,5.3518,5.3518,5.3518,5.3518,5.3416,5.2604,5.2334,5.2232,5.1488,5.0777,5.0135,5.0101,4.9593,4.9052,4.9018,4.9018,4.9018,0.0,0.0,0.0,4.9018,5.0135,5.1217,5.1219,5.2435,5.3518,5.3518,5.3518,5.3518,5.3518,5.3518,5.3518,5.3518,5.3518,5.3518,5.3518,5.3518,5.3518,5.3518,5.3518,5.3518,5.3518,5.3518,5.3518,5.3518,5.3518,5.3518,5.3518,5.3518,5.4194,5.5683,5.575,5.6427,5.7881,5.7881,5.7881,5.7881,5.7881,5.7881,5.7881,5.7881,5.7881,5.7881,5.7881,5.7881,5.7881,5.7881,5.7881,5.7881,5.7881,5.7881,5.7881,5.7881,5.7881,5.7881,0.0,0.0,0.0,0.0,0.0,0.0,0.0,0.0,5.3518,0.0,0.0,0.0,5.3518,5.3518,5.3518,5.3518,5.3518,5.3518,5.3518,5.3518,5.3518,5.3518,5.3518,5.3518,5.3518,5.3281,5.3281,5.3518,5.3281,5.3281,5.3518,5.3518,5.3518,5.3518,5.3518,5.3518,5.3518,5.3518,5.3518,5.3518,5.3518,5.3518,5.3518,5.3518,5.3518,5.3484,5.3247,5.3179,5.3044,5.2266,5.186,5.1522,5.0439,4.9965,4.9695,4.9154,4.9018,4.9018,4.9018,0.0,0.0,0.0,0.0,0.0,5.1894,5.2773,5.3518,5.3518,5.3518,5.3518,5.3518,5.3518,5.3518,5.3518,5.3518,5.3518,5.3518,5.3518,5.3518,5.3518,5.3518,5.3518,5.3518,5.3518,5.3518,5.3518,5.3518,5.3518,5.3518,5.4025,5.4735,5.5683,5.6224,5.6934,5.7881,5.7881,5.7881,5.7881,5.7881,5.7881,5.7881,5.7881,5.7881,5.7881,5.7881,5.7881,5.7881,5.7881,5.7881,5.7881,5.7881,5.7881,5.7881,5.7881,5.7881,5.7881,0.0,0.0,0.0,0.0,0.0,0.0,5.3518,5.3518,5.3518,0.0,0.0,0.0,5.3518,5.3518,5.3518,5.3518,5.3518,5.3518,5.3518,5.3518,5.3518,5.3518,5.3518,5.3518,5.3518,5.3179,5.3179,5.3518,5.3179,5.3179,5.3518,5.3518,5.3518,5.3518,5.3518,5.3518,5.3518,5.3518,5.3518,5.3518,5.3518,5.3518,5.3518,5.3518,5.3518,5.3518,5.3518,5.3518,5.345,5.2976,5.257,5.2097,5.0947,5.0574,5.0473,5.0033,4.9932,4.9932,0.0,4.9932,5.0033,5.0439,0.0,0.0,5.2198,5.2909,5.3518,5.3518,5.3518,5.3518,5.3518,5.3518,5.3518,5.3518,5.3518,5.3518,5.3518,5.3518,5.3518,5.3518,5.3518,5.3518,5.3518,5.3518,5.3518,5.3518,5.3518,5.3518,5.3518,5.4194,5.4938,5.5647,5.6427,5.7137,5.7881,5.7881,5.7881,5.7881,5.7881,5.7881,5.7881,5.7881,5.7881,5.7881,5.7881,5.7881,5.7881,5.7881,5.7881,5.7881,5.7881,5.7881,5.7881,5.7881,5.7881,5.7881,0.0,0.0,0.0,5.3518,5.3518,5.3518,5.3518,5.3518,5.3518,0.0,5.3518,5.3518,5.3518,5.3518,5.3518,5.3518,5.3518,5.3518,5.3518,5.3518,5.3518,5.3518,5.3518,5.3518,5.3518,5.2807,5.2773,5.3518,5.2773,5.2807,5.3518,5.3518,5.3518,5.3518,5.3518,5.3518,5.3518,5.3518,5.3518,5.3518,5.3518,5.3518,5.3518,5.3518,5.3518,5.3518,5.3518,5.3518,5.3518,5.3518,5.301,5.23,5.1589,5.132,5.1319,5.1219,5.1185,5.1185,0.0,0.0,0.0,5.1286,5.1826,0.0,5.2401,5.2976,5.3518,5.3518,5.3551,5.3618,5.3618,5.3618,5.3618,5.3618,5.3551,5.3518,5.3518,5.3518,5.3518,5.3518,5.3518,5.3518,5.3518,5.3518,5.3518,5.3518,5.3518,5.3518,5.3518,5.4262,5.5006,5.5647,5.6494,5.7239,5.7881,5.7881,5.7881,5.7881,5.7881,5.7881,5.7881,5.7881,5.7881,5.7881,5.7881,5.7881,5.7881,5.7881,5.7881,5.7881,5.7881,5.7881,5.7881,5.7881,5.7881,5.7881,0.0,0.0,0.0,5.3518,5.3518,5.3518,5.3518,5.3518,5.3518,5.3518,5.3518,5.3518,5.3518,5.3518,5.3518,0.0,0.0,5.3518,5.3518,5.3518,5.3518,5.3518,5.3518,5.3518,5.3518,5.3348,5.3348,5.3518,5.3348,5.3348,5.3518,5.3518,5.3518,5.3518,5.3518,5.3518,5.3518,5.3518,5.3518,5.3518,5.3518,5.3518,5.3518,5.3518,5.3518,5.3518,5.3518,5.3518,5.3518,5.3518,5.3416,5.3145,5.2334,5.2097,5.1961,5.1354,5.1185,5.1185,5.1185,5.1185,5.132,5.1961,5.2198,0.0,5.3112,5.3382,5.3518,5.3518,5.3979,5.4391,5.4391,5.4391,5.4391,5.4391,5.3881,5.3518,5.3518,5.3518,5.3518,5.3518,5.3518,5.3518,5.3518,5.3518,5.3518,5.3518,5.3518,5.3518,5.3518,5.4769,5.5581,5.5681,5.7002,5.7746,5.7881,5.7881,5.7881,5.7881,5.7881,5.7881,5.7881,5.7881,5.7881,5.7881,5.7881,5.7881,5.7881,5.7881,5.7881,5.7881,5.7881,5.7881,5.7881,5.7881,5.7881,5.7881,0.0,0.0,0.0,0.0,5.3518,5.3518,5.3518,5.3518,5.3518,5.3518,5.3518,5.3518,5.3518,5.3518,5.3518,5.3518,0.0,0.0,0.0,5.3518,5.3518,5.3518,5.3518,5.3518,5.3518,5.3518,5.3518,5.3518,5.3518,5.3518,5.3518,5.3518,5.3518,5.3518,5.3518,5.3518,5.3518,5.3518,5.3518,5.3518,5.3518,5.3518,5.3518,5.3518,5.3518,5.3518,5.3518,5.3518,5.3518,5.3518,5.3518,5.345,5.3044,5.2909,5.2841,5.2469,5.2367,5.2367,5.2367,5.2367,5.2435,5.2807,5.2909,0.0,0.0,5.3518,5.3518,5.3518,5.3816,5.4042,5.4042,5.4359,5.4482,5.4106,5.4042,5.3913,5.3551,5.3518,5.3518,5.3518,5.3518,5.3518,5.3518,5.3518,5.3518,5.3518,5.3518,5.3518,5.3518,5.4566,5.5344,5.5716,5.6765,5.7509,5.7881,5.7881,5.7881,5.7881,5.7881,5.7881,5.7881,5.7881,5.7881,5.7881,5.7881,5.7881,5.7881,5.7881,5.7881,5.7881,5.7881,5.7881,5.7881,5.7881,5.7881,5.7949,0.0,0.0,0.0,0.0,5.3518,0.0,0.0,0.0,5.3518,5.3518,5.3518,5.3518,5.3518,5.3518,5.3518,5.3518,0.0,0.0,5.3518,5.3518,5.3518,5.3518,5.3518,5.3518,5.3518,5.3518,5.3518,5.3518,5.3518,5.3518,5.3518,5.3518,5.3518,5.3518,5.3518,5.3518,5.3518,5.3518,5.3518,5.3518,5.3518,5.3518,5.3518,5.3518,5.3518,5.3518,5.3518,5.3518,5.3518,5.3518,5.3518,5.3518,5.3518,5.3518,5.3518,5.3518,5.3518,5.3518,5.3518,5.3518,5.3518,5.3518,5.3518,5.3518,0.0,0.0,0.0,5.3518,5.3618,5.3717,5.3717,5.4328,5.4533,5.3601,5.4089,5.4316,5.3569,5.3481,5.3518,5.3518,5.3518,5.3518,5.3518,5.3518,5.3518,5.3518,5.3518,5.3518,5.3518,5.4194,5.4938,5.5647,5.6427,5.7137,5.7881,5.7881,5.7881,5.7881,5.7881,5.7881,5.7881,5.7881,5.7881,5.7881,5.7881,5.7881,5.7881,5.7881,5.7881,5.7881,5.7881,5.7881,5.7881,5.7881,5.7881,5.8017,5.3518,5.3518,0.0,0.0,0.0,0.0,0.0,0.0,5.3518,5.3518,5.3518,5.3518,5.3518,5.3518,5.3518,5.3518,5.3518,5.3518,5.3518,5.3518,5.3518,5.3518,5.3518,5.3518,5.3518,5.3518,5.3518,5.3518,5.3518,5.3518,5.3518,5.3518,5.3518,5.3518,5.3518,5.3518,5.3518,5.3518,5.3518,5.3518,5.3518,5.3518,5.3518,5.3518,5.3518,5.3518,5.3518,5.3518,5.3518,5.3518,5.3518,5.3518,5.3518,5.3518,5.3518,5.3518,5.3518,5.3518,5.3518,5.3518,5.3518,5.3518,5.3518,5.3518,5.3518,0.0,5.3518,5.3518,0.0,5.4482,5.4482,0.0,0.0,5.3549,5.4032,5.427,5.3464,5.3438,5.3518,5.3518,5.3518,5.3518,5.3518,5.3518,5.3518,5.3518,5.3518,5.3518,5.3518,5.4194,5.4938,5.5647,5.6427,5.7137,5.7881,5.7881,5.7881,5.7881,5.7881,5.7881,5.7881,5.7881,5.7881,5.7881,5.7881,5.7881,5.7881,5.7881,5.7881,5.7881,5.7881,5.7881,5.7881,5.7881,5.7881,5.8017,5.3518,5.3518,0.0,0.0,0.0,0.0,0.0,0.0,5.3518,5.3518,5.3518,5.3518,5.3518,5.3518,5.3518,5.3518,5.3518,5.3518,5.3518,5.3518,0.0,5.3518,5.3518,5.3518,5.3518,5.3518,5.3518,5.3518,5.3518,5.3518,5.3518,5.3518,5.3518,5.3518,5.3518,5.3518,5.3518,5.3518,5.3518,5.3518,5.3518,5.3518,5.3518,5.3518,5.3518,5.3518,5.3518,5.3518,5.3518,5.3518,5.3518,5.3518,5.3518,5.3518,5.3518,5.3518,5.3518,5.3518,5.3518,5.3518,5.3518,5.3518,5.3518,5.3518,5.3518,5.3518,5.3518,5.3518,0.0,0.0,0.0,0.0,0.0,0.0,5.51,5.5624,5.4811,5.4758,5.4606,5.4203,5.375,5.3518,5.3518,5.3518,5.3518,5.3518,5.3518,5.3518,5.3518,5.3788,5.4499,5.5647,5.6021,5.6731,5.7881,5.7881,5.7881,5.7881,5.7881,5.7881,5.7881,5.7881,5.7881,5.7881,5.7881,5.7881,5.7881,5.7881,5.7881,5.7881,5.7881,5.7881,5.7881,5.7881,5.8152,5.866,5.3518,0.0,5.3518,5.3518,5.3518,5.3518,5.3518,5.3518,5.3518,5.3518,5.3518,5.3518,5.3518,5.3518,5.3518,5.3518,5.3518,5.3518,5.3518,5.3518,5.3518,5.3518,5.3518,5.3518,5.3518,5.3518,5.3518,5.3518,5.3518,5.3518,5.3518,5.3518,5.3518,5.3518,5.3518,5.3518,5.3518,5.3518,5.3518,5.3518,5.3518,5.3518,5.3518,5.3518,5.3518,5.3518,5.3518,5.3518,5.3518,5.3518,5.3518,5.3518,5.3518,5.3518,5.3518,5.3518,5.3518,5.3518,5.3518,5.3518,5.3518,5.3518,5.3518,5.3518,5.3518,5.3518,5.3518,5.3518,5.3518,0.0,0.0,0.0,5.5151,5.4381,0.0,5.6357,5.5758,5.5692,5.5524,5.4969,5.4232,5.3717,5.3551,5.3518,5.3518,5.3518,5.3518,5.3518,5.3518,5.3518,5.4194,5.5683,5.5681,5.6427,5.7881,5.7881,5.7881,5.7881,5.7881,5.7881,5.7881,5.7881,5.7881,5.7881,5.7881,5.7881,5.7881,5.7881,5.7881,5.7881,5.7881,5.8017,5.8186,5.8186,5.8558,5.9167,5.3518,5.3518,5.3518,5.3518,5.3518,5.3518,5.3518,5.3518,5.3518,5.3518,5.3518,5.3518,5.3518,5.3518,5.3518,5.3518,5.3518,5.3518,5.3518,5.3518,5.3518,5.3518,5.3518,5.3518,5.3518,5.3518,5.3518,5.3518,5.3518,5.3518,5.3518,5.3518,5.3518,5.3518,5.3518,5.3518,5.3518,5.3518,5.3518,5.3518,5.3518,5.3518,5.3518,5.3518,5.3518,5.3518,5.3518,5.3518,5.3518,5.3518,5.3518,5.3518,5.3518,5.3518,5.3518,5.3518,5.3518,5.3518,5.3518,5.3518,5.3518,5.3518,5.3518,5.3518,5.3518,5.3518,5.3518,5.3518,5.3518,5.3518,5.3518,5.4139,0.0,0.0,0.0,0.0,0.0,5.5662,5.5695,5.5695,5.4994,5.4296,5.3551,5.3518,5.3518,5.3518,5.3518,5.3518,5.3518,5.3518,5.4194,5.5683,5.5681,5.6427,5.7881,5.7881,5.7881,5.7881,5.7881,5.7881,5.7881,5.7881,5.7881,5.7881,5.7881,5.7881,5.7881,5.7881,5.7881,5.7881,5.7881,5.8355,5.8964,5.8964,5.8998,5.9235,5.4969,5.4575,5.4074,5.3584,5.3518,5.3518,5.3518,5.3518,5.3518,5.3518,5.3518,5.3518,5.3518,5.3518,5.3518,5.3518,5.3518,5.3518,5.3518,5.3518,5.3518,5.3518,5.3518,5.3518,5.3518,5.3518,5.3518,5.3518,5.3518,5.3518,5.3518,5.3518,5.3518,5.3518,5.3518,5.3518,5.3518,5.3518,5.3518,5.3518,5.3518,5.3518,5.3518,5.3518,5.3518,5.3518,5.3518,5.3518,5.3518,5.3518,5.3518,5.3518,5.3518,5.3518,5.3518,5.3518,5.3518,5.3518,5.3518,5.3518,5.3518,5.3518,5.3518,5.3518,5.3518,5.3518,5.3518,5.3518,5.3518,5.3518,5.3518,5.4482,0.0,0.0,0.0,0.0,0.0,5.7182,5.7029,5.6527,5.535,5.4328,5.3551,5.3518,5.3518,5.3518,5.3518,5.3518,5.3518,5.3518,5.4194,5.5683,5.5681,5.6427,5.7881,5.7881,5.7881,5.7881,5.7881,5.7881,5.7881,5.7881,5.7881,5.7881,5.7881,5.7881,5.7881,5.7881,5.7881,5.7949,5.8457,5.8795,5.9032,5.9032,5.9674,6.0689,5.535,5.5114,5.4757,5.4009,5.3651,5.3518,5.3518,5.3518,5.3585,5.3856,5.389,5.3991,5.4262,5.4296,5.4296,5.4296,5.4059,5.389,5.389,5.3653,5.3518,5.3518,5.3518,5.3518,5.3518,5.3518,5.3518,5.3518,5.3518,5.3518,5.3518,5.3518,5.3518,5.3518,5.3518,5.3518,5.3518,5.3518,5.3518,5.3518,5.3518,5.3518,5.3518,5.3518,5.3518,5.3518,5.3518,5.3518,5.3518,5.3518,5.3518,5.3518,5.3518,5.3518,5.3518,5.3518,5.3518,5.3518,5.3518,5.3518,5.3518,5.3518,5.3518,5.3518,5.3518,5.3518,5.3518,5.3518,5.3518,5.3518,5.3518,5.4299,0.0,0.0,0.0,0.0,0.0,5.7821,5.7726,5.6989,5.5787,5.4695,5.3979,5.3651,5.3518,5.3518,5.3518,5.3518,5.3518,5.3518,5.4194,5.5683,5.5681,5.6427,5.7881,5.7881,5.7881,5.7881,5.7881,5.7881,5.7881,5.7881,5.7881,5.7881,5.7881,5.7881,5.7881,5.7881,5.8051,5.8355,5.8829,5.9336,5.9844,5.9844,6.0622,6.1772,5.4892,5.5343,5.5601,5.4892,5.4143,5.3618,5.3652,5.3652,5.3856,5.4601,5.4668,5.4905,5.5649,5.5681,5.5681,5.5681,5.5074,5.4634,5.4634,5.3957,5.3551,5.3551,5.3518,5.3518,5.3518,5.3518,5.3518,5.3518,5.3518,5.3518,5.3518,5.3518,5.3518,5.3518,5.3518,5.3518,5.3518,5.3518,5.3518,5.3518,5.3518,5.3518,5.3518,5.3518,5.3518,5.3518,5.3518,5.3518,5.3518,5.3518,5.3518,5.3518,5.3518,5.3518,5.3518,5.3518,5.3518,5.3518,5.3518,5.3518,5.3518,5.3518,5.3518,5.3518,5.3518,5.3518,5.3518,5.3518,5.3518,5.3518,5.3518,5.3517,5.3783,0.0,0.0,0.0,0.0,5.7498,5.7703,5.6989,5.6204,5.5408,5.4665,5.3946,5.3518,5.3518,5.3518,5.3518,5.3518,5.3518,5.4194,5.5683,5.5681,5.6427,5.7881,5.7881,5.7881,5.7881,5.7881,5.7881,5.7881,5.7881,5.7881,5.7881,5.7881,5.7881,5.7881,5.7915,5.8355,5.9032,5.9099,6.0047,6.1366,6.1366,6.1806,6.2381,5.7168,5.7317,5.7435,5.7287,5.6099,5.5324,5.5944,5.5532,5.5398,5.6221,5.5792,5.5513,5.5647,5.5681,5.5681,5.5681,5.5547,5.5446,5.5446,5.4735,5.4329,5.4329,5.3788,5.3518,5.3518,5.3518,5.3518,5.3518,5.3518,5.3518,5.3518,5.3518,5.3518,5.3518,5.3518,5.3518,5.3518,5.3518,5.3518,5.3518,5.3518,5.3518,5.3518,5.3518,5.3518,5.3518,5.3518,5.3518,5.3518,5.3518,5.3518,5.3518,5.3518,5.3518,5.3518,5.3518,5.3518,5.3518,5.3518,5.3518,5.3518,5.3518,5.3518,5.3518,5.3518,5.3518,5.3518,5.3518,5.3518,5.3518,5.3518,5.3946,5.4391,5.4575,0.0,0.0,5.6747,5.7065,5.7091,5.6912,5.6204,5.5408,5.4665,5.3946,5.3518,5.3518,5.3518,5.3518,5.3518,5.3518,5.4194,5.5683,5.5681,5.6427,5.7881,5.7881,5.7881,5.7881,5.7881,5.7881,5.7881,5.7881,5.7881,5.7881,5.7881,5.7881,5.7915,5.849,5.8829,5.9133,6.0283,6.1298,6.211,6.211,6.2245,6.2381,5.8096,5.8616,5.9123,5.915,5.8087,5.7178,5.6932,5.6235,5.5992,5.6746,5.6438,5.6325,5.663,5.6664,5.6664,5.6664,5.6393,5.619,5.619,5.548,5.5074,5.5074,5.4363,5.3991,5.3991,5.3653,5.3518,5.3518,5.3518,5.3518,5.3518,5.3518,5.3518,5.3518,5.3518,5.3518,5.3518,5.3518,5.3518,5.3518,5.3518,5.3687,0.0,5.3991,5.4194,5.4465,5.4465,5.4059,5.3518,5.3518,5.3518,5.3551,5.389,5.3991,5.3991,5.3991,5.3991,5.3923,5.3585,5.3518,5.3518,5.3518,5.3518,5.3518,5.3518,5.3518,5.3518,5.3518,5.3518,5.3518,5.3518,5.3815,5.42,5.4544,5.4969,5.561,5.6721,5.6912,5.6912,5.6912,5.6204,5.5408,5.4665,5.3946,5.3518,5.3518,5.3518,5.3518,5.3518,5.3822,5.4499,5.5647,5.6021,5.6731,5.7881,5.7881,5.7881,5.7881,5.7881,5.7881,5.7881,5.7881,5.7881,5.7881,5.7881,5.8084,5.8423,5.8829,5.9404,6.0114,6.1332,6.2009,6.2381,6.2381,6.2381,6.2381,5.8497,5.9547,6.0616,6.0689,5.9953,5.893,5.7583,5.6609,5.6264,5.7011,5.7006,5.7171,5.7814,5.7881,5.7881,5.7881,5.7306,5.6934,5.6934,5.6258,5.5817,5.5817,5.5141,5.4735,5.4735,5.4025,5.3653,5.3653,5.3551,5.3518,5.3518,5.3518,5.3518,5.3518,5.3518,5.3518,5.3518,5.3518,5.3551,5.3653,5.3653,5.4093,5.4735,5.4735,5.5141,5.5681,5.5681,5.4905,5.3788,5.3788,5.3788,5.389,5.4532,5.4735,5.4735,5.4735,5.4735,5.46,5.3957,5.3788,5.3788,5.3788,5.3788,5.3754,5.3687,5.3653,5.3619,5.3518,5.3518,5.3518,5.3518,5.3518,5.3717,5.4359,5.4451,5.4939,5.6403,5.6589,5.6589,5.6589,5.6095,0.0,5.4665,5.3946,5.3518,5.3518,5.3518,5.3518,5.3518,5.4194,5.4938,5.5647,5.6427,5.7137,5.7881,5.7881,5.7881,5.7881,5.7881,5.7881,5.7881,5.7881,5.7881,5.7881,5.7983,5.8423,5.9032,5.9235,6.0148,6.1501,6.2144,6.2381,6.2381,6.2381,6.2381,6.2381,5.9885,6.0748,6.1587,6.2265,6.1179,6.0099,5.9823,5.8505,5.7806,5.8598,5.8112,5.7746,5.7881,5.7881,5.7881,5.7881,5.778,5.7712,5.7712,5.7036,5.6596,5.6596,5.5919,5.5513,5.5513,5.4769,5.4397,5.4397,5.3788,5.3518,5.3518,5.3518,5.3518,5.3518,5.3518,5.3518,5.3518,5.3518,5.3856,5.4397,5.4397,5.4837,5.5513,5.5513,5.5615,5.5681,5.5681,5.5547,5.531,5.531,5.531,5.5344,5.548,5.5513,5.5513,5.5513,5.5513,5.548,5.5378,5.531,5.531,5.531,5.531,5.5175,5.4532,5.4397,5.4228,5.3619,5.3518,5.3518,5.3518,5.3518,5.3517,5.3651,5.3684,5.4011,5.4878,5.4999,5.4999,5.4999,5.5408,5.5408,5.4665,5.3946,5.3518,5.3518,5.3518,5.3518,5.3518,5.4194,5.4938,5.5647,5.6427,5.7137,5.7881,5.7881,5.7881,5.7881,5.7881,5.7881,5.7881,5.7881,5.7881,5.7915,5.8558,5.8896,5.9133,6.0385,6.14,6.2212,6.2347,6.2381,6.2381,6.2381,6.2381,6.2381,6.0938,6.1314,6.1604,6.1548,6.0549,5.9736,5.9736,5.8666,5.8048,5.8425,5.8137,5.7881,5.7881,5.7881,5.7881,5.7881,5.7881,5.7881,5.7881,5.7577,5.7374,5.7374,5.6664,5.6292,5.6292,5.5547,5.5175,5.5175,5.4431,5.4059,5.4059,5.3687,5.3518,5.3518,5.389,5.4059,5.4093,5.4499,5.4871,5.5175,5.5175,5.5615,5.6292,5.6292,5.6528,5.6833,5.6833,5.6833,5.6731,5.5987,5.5681,5.5749,5.6156,5.6292,5.6292,5.6292,5.6292,5.619,5.5783,5.5681,5.5681,5.5681,5.5681,5.5615,5.5243,5.5175,5.5074,5.4735,5.4329,5.3957,5.3585,5.3518,5.3618,5.4009,5.375,5.3881,5.5029,5.4848,5.4606,5.4606,5.4909,5.4848,5.4106,5.4042,5.4074,5.4074,5.3717,5.3518,5.3518,5.4566,5.5344,5.5716,5.6799,5.7543,5.7881,5.7881,5.7881,5.7881,5.7881,5.7881,5.7881,5.7881,5.7881,5.7915,5.8693,5.9235,5.9708,6.1231,6.2076,6.2381,6.2381,6.2381,6.2381,6.2381,6.2381,6.2381,6.1615,6.1846,6.1818,6.1016,6.0161,5.9597,5.9597,5.8901,5.8254,5.7915,5.7881,5.7881,5.7881,5.7881,5.7881,5.7881,5.7881,5.7881,5.7881,5.7881,5.7881,5.7881,5.734,5.7036,5.7036,5.6325,5.5953,5.5953,5.5209,5.4839,5.4805,5.4228,5.3991,5.3991,5.4566,5.4837,5.4871,5.5446,5.5818,5.5953,5.5953,5.6393,5.7036,5.7036,5.7374,5.7881,5.7881,5.7881,5.7712,5.6562,5.619,5.6292,5.6867,5.7036,5.7036,5.7036,5.7036,5.69,5.6325,5.619,5.619,5.619,5.619,5.6156,5.5987,5.5953,5.5919,5.5715,5.5243,5.4668,5.4059,5.3991,5.4126,5.4539,5.412,5.4084,5.5089,5.4726,5.4391,5.4391,5.4513,5.4391,5.3783,5.4264,5.4606,5.4606,5.4042,5.3719,5.3721,5.5006,5.5749,5.5953,5.7205,5.7881,5.7881,5.7881,5.7881,5.7881,5.7881,5.7881,5.7881,5.7881,5.7983,5.8152,5.893,5.9742,6.0689,6.1907,6.2381,6.2381,6.2381,6.2381,6.2381,6.2381,6.2381,6.2381,6.1568,6.2644,6.3405,6.2581,6.1736,6.1155,6.1155,6.0474,5.9404,5.8051,5.7881,5.7881,5.7881,5.7881,5.7881,5.7881,5.7881,5.7881,5.7881,5.7881,5.7881,5.7881,5.7814,5.778,5.778,5.707,5.6697,5.6697,5.5953,5.5621,5.5593,5.5553,5.5478,5.5513,5.5581,5.5615,5.5615,5.5683,5.6089,5.6697,5.6697,5.7137,5.778,5.778,5.7814,5.7881,5.7881,5.7881,5.7881,5.7712,5.7679,5.7712,5.778,5.778,5.778,5.778,5.778,5.778,5.7712,5.7679,5.7679,5.7679,5.7679,5.7509,5.6867,5.6697,5.6528,5.5817,5.5683,5.5581,5.5478,5.5478,5.5277,5.4703,5.4533,5.433,5.3786,5.3651,5.3618,5.3618,5.4168,5.4575,5.4513,5.4575,5.4606,5.4606,5.4544,5.451,5.4499,5.5277,5.6021,5.6697,5.7476,5.7881,5.7881,5.7881,5.7881,5.7881,5.7881,5.7881,5.7881,5.7881,5.8254,5.8964,5.9674,6.0825,6.2178,6.2347,6.2381,6.2381,6.2381,6.2381,6.2381,6.2381,6.2381,6.2381,6.1571,6.1946,6.2112,6.1222,6.0827,6.0606,6.0606,6.0343,5.9877,5.9302,5.9201,5.9201,5.9201,5.8829,5.8558,5.8558,5.8152,5.7881,5.7881,5.7881,5.7881,5.7881,5.7881,5.7881,5.7881,5.7611,5.7442,5.7442,5.6731,5.6366,5.6372,5.589,5.5681,5.575,5.6156,5.6359,5.6393,5.6833,5.7171,5.7442,5.7442,5.7645,5.7881,5.7881,5.7881,5.7881,5.7881,5.7881,5.7881,5.7881,5.7881,5.7881,5.7881,5.7881,5.7881,5.7881,5.7881,5.7881,5.7881,5.7881,5.7881,5.7881,5.7881,5.7814,5.7509,5.7442,5.7374,5.707,5.6664,5.6224,5.5784,5.5681,5.5615,5.531,5.5277,5.5175,5.4871,5.4837,5.4837,5.4837,5.5077,5.5245,5.5245,5.5671,5.5736,5.5279,5.4869,5.46,5.4601,5.5716,5.6494,5.6799,5.7509,5.7881,5.7881,5.7881,5.7881,5.7881,5.7881,5.7881,5.7915,5.8355,5.9235,6.0419,6.0689,6.14,6.2381,6.2381,6.2381,6.2381,6.2381,6.2381,6.2381,6.2381,6.2381,6.2381,6.1875,6.1877,6.1769,6.0947,6.0791,6.0791,6.0791,6.0791,6.0791,6.0791,6.0791,6.0588,6.0148,5.9641,5.9268,5.9032,5.8524,5.8118,5.7915,5.7881,5.7881,5.7881,5.7881,5.7881,5.7881,5.7881,5.7881,5.7881,5.7374,5.7145,5.712,5.6609,5.6368,5.6393,5.69,5.7137,5.7171,5.7679,5.7881,5.7881,5.7881,5.7881,5.7881,5.7881,5.7881,5.7881,5.7881,5.7881,5.7881,5.7881,5.7881,5.7881,5.7881,5.7881,5.7881,5.7881,5.7881,5.7881,5.7881,5.7881,5.7881,5.7881,5.7881,5.7881,5.7881,5.7881,5.7881,5.7881,5.7476,5.6968,5.6461,5.6359,5.6292,5.6089,5.6021,5.5953,5.5715,5.5681,5.5681,5.5681,5.5681,5.5681,5.5681,5.6167,5.6268,5.5751,5.5412,5.5243,5.5243,5.6224,5.69,5.7103,5.7611,5.7881,5.7881,5.7881,5.7881,5.7881,5.7881,5.7881,5.7915,5.8896,6.0047,6.1332,6.1535,6.1907,6.2381,6.2381,6.2381,6.2381,6.2381,6.2381,6.2381,6.2381,6.2381,6.2381,6.2547,6.309,6.339,6.2542,6.2347,6.2347,6.2347,6.2347,6.2347,6.2347,6.2347,6.1772,6.0283,6.008,5.981,5.9066,5.8998,5.8693,5.7949,5.7881,5.7881,5.7881,5.7881,5.7881,5.7881,5.7881,5.7881,5.7881,5.7881,5.7871,5.787,5.787,5.7844,5.7848,5.7881,5.7881,5.7881,5.7881,5.7881,5.7881,5.7881,5.7881,5.7881,5.7881,5.7881,5.7881,5.7881,5.7881,5.7881,5.7881,5.7881,5.7881,5.7881,5.7881,5.7881,5.7881,5.7881,5.7881,5.7881,5.7881,5.7881,5.7881,5.7881,5.7881,5.7881,5.7881,5.7881,5.7881,5.7881,5.7881,5.7881,5.7848,5.7611,5.69,5.6799,5.6528,5.5783,5.5681,5.5681,5.5681,5.5681,5.5681,5.5681,5.5716,5.5716,5.5681,5.6393,5.6765,5.6765,5.6799,5.7137,5.7848,5.7881,5.7881,5.7881,5.7881,5.7881,5.7881,5.7881,5.7881,5.7949,5.9404,6.052,6.1332,6.2076,6.2381,6.2381,6.2381,6.2381,6.2381,6.2381,6.2381,6.2381,6.2381,6.2381,6.2381,6.2459,6.262,6.2736,6.2459,6.2381,6.2381,6.2381,6.2381,6.2381,6.2381,6.2381,6.2212,6.1704,6.1231,6.0825,6.0588,6.008,5.9438,5.8693,5.866,5.8423,5.7915,5.7881,5.7881,5.7881,5.7881,5.7881,5.7881,5.7881,5.7891,5.7905,5.7905,5.7899,5.7881,5.7881,5.7881,5.7881,5.7881,5.7881,5.7881,5.7881,5.7881,5.7881,5.7881,5.7881,5.7881,5.7881,5.7881,5.7881,5.7881,5.7881,5.7881,5.7881,5.7881,5.7881,5.7881,5.7881,5.7881,5.7881,5.7881,5.7881,5.7881,5.7881,5.7881,5.7881,5.7881,5.7881,5.7881,5.7881,5.7881,5.7881,5.7881,5.7814,5.7577,5.7543,5.7476,5.7239,5.7205,5.7205,5.7205,5.7205,5.7205,5.7205,5.7205,5.7205,5.7205,5.7408,5.734,5.6833,5.7273,5.7645,5.7881,5.7881,5.7881,5.7881,5.7881,5.7881,5.7881,5.7881,5.8423,5.9438,6.0452,6.1332,6.2042,6.2279,6.2381,6.2381,6.2381,6.2381,6.2381,6.2381,6.2381,6.2381,6.2381,6.2381,6.2381,6.2381,6.2381,6.2381,6.2381,6.2381,6.2381,6.2381,6.2381,6.2381,6.2381,6.2381,6.2381,6.2381,6.1975,6.1603,6.1332,6.0858,6.0216,5.9471,5.9438,5.9099,5.8355,5.8321,5.8186,5.7881,5.7881,5.7881,5.7881,5.7881,5.7881,5.7881,5.7881,5.7881,5.7881,5.7881,5.7881,5.7881,5.7881,5.7881,5.7881,5.7881,5.7881,5.7881,5.7881,5.7881,5.7881,5.7881,5.7881,5.7881,5.7881,5.7881,5.7881,5.7881,5.7881,5.7881,5.7881,5.7881,5.7881,5.7881,5.7881,5.7881,5.7881,5.7881,5.7881,5.7881,5.7881,5.7881,5.7881,5.7881,5.7881,5.7881,5.7881,5.7881,5.7881,5.7881,5.7881,5.7881,5.7881,5.7881,5.7881,5.7881,5.7881,5.7881,5.7881,5.7881,5.7881,5.7881,5.7679,5.7239,5.7645,5.7881,5.7881,5.7881,5.7881,5.7881,5.7881,5.7881,5.7881,5.8186,5.893,6.0148,6.0926,6.1704,6.2381,6.2381,6.2381,6.2381,6.2381,6.2381,6.2381,6.2381,6.2381,6.2381,6.2381,6.2381,6.2381,6.2381,6.2381,6.2381,6.2381,6.2381,6.2381,6.2381,6.2381,6.2381,6.2381,6.2381,6.2381,6.2381,6.2381,6.211,6.1434,6.1366,6.1028,6.025,6.0182,5.9844,5.9133,5.9099,5.8761,5.8051,5.7983,5.7949,5.7881,5.7881,5.7881,5.7881,5.7881,5.7881,5.7881,5.7881,5.7881,5.7881,5.7881,5.7881,5.7881,5.7881,5.7881,5.7881,5.7881,5.7881,5.7881,5.7949,5.7983,5.7983,5.8017,5.8051,5.8051,5.8051,5.8051,5.8017,5.7915,5.7881,5.7881,5.7881,5.7881,5.7881,5.7881,5.7881,5.7881,5.7881,5.7881,5.7881,5.7881,5.7881,5.7881,5.7881,5.7881,5.7881,5.7881,5.7881,5.7881,5.7881,5.7881,5.7881,5.7881,5.7881,5.7881,5.7881,5.7881,5.7881,5.7881,5.7881,5.7881,5.7881,5.7881,5.7881,5.7881,5.7881,5.7881,5.7881,5.7881,5.7915,5.7983,5.8727,5.9471,6.0216,6.1028,6.1738,6.2381,6.2381,6.2381,6.2381,6.2381,6.2381,6.2381,6.2381,6.2381,6.2381,6.2381,6.2381,6.2381,6.2381,6.2381,6.2381,6.2381,6.2381,6.2381,6.2381,6.2381,6.2381,6.2381,6.2381,6.2381,6.2381,6.2381,6.2313,6.2144,6.2144,6.1806,6.1061,6.1028,6.0655,5.9877,5.9844,5.9776,5.9573,5.9032,5.8457,5.7881,5.7881,5.7881,5.7881,5.7881,5.7881,5.7881,5.7881,5.7881,5.7881,5.7881,5.7881,5.7881,5.7881,5.7881,5.7881,5.7881,5.7881,5.7949,5.8558,5.8761,5.8829,5.9404,5.9573,5.9573,5.9573,5.9573,5.937,5.822,5.7881,5.7881,5.7881,5.7881,5.7881,5.7881,5.7881,5.7881,5.7881,5.7881,5.7881,5.7881,5.7881,5.7881,5.7881,5.7881,5.7881,5.7881,5.7881,5.7881,5.7881,5.7881,5.7881,5.7881,5.7881,5.7881,5.7881,5.7881,5.7881,5.7881,5.7881,5.7881,5.7881,5.7881,5.7881,5.7881,5.7881,5.7881,5.7881,5.7881,5.8186,5.8761,5.9505,6.025,6.1028,6.1806,6.2212,6.2381,6.2381,6.2381,6.2381,6.2381,6.2381,6.2381,6.2381,6.2381,6.2381,6.2381,6.2381,6.2381,6.2448,6.2381,6.2381,6.2381,6.2381,6.2381,6.2381,6.2381,6.2381,6.2381,6.2381,6.2381,6.2381,6.2381,6.2381,6.2381,6.2381,6.2212,6.1839,6.1806,6.1467,6.0689,6.0655,6.0486,6.0114,5.9708,5.9302,5.8896,5.8896,5.8896,5.8896,5.8896,5.8896,5.8896,5.8896,5.8896,5.8896,5.8896,5.8896,5.8896,5.8896,5.8896,5.8896,5.8896,5.8896,5.8964,5.937,5.9505,5.9573,5.9979,6.0114,6.0114,6.0114,6.0114,5.9945,5.9133,5.8896,5.8896,5.8896,5.8896,5.8896,5.8896,5.8896,5.8896,5.8896,5.8896,5.8795,5.8457,5.8389,5.8287,5.7949,5.7881,5.7881,5.7881,5.7881,5.7881,5.7881,5.7881,5.7881,5.7881,5.7881,5.7881,5.7881,5.7881,5.7881,5.7881,5.7881,5.7881,5.7881,5.7881,5.7881,5.7881,5.7881,5.7881,5.7881,5.822,5.8592,5.9032,6.0114,6.0892,6.1332,6.2042,6.2381,6.2381,6.2381,6.2381,6.2381,6.2381,6.2381,6.2381,6.2381,6.2381,6.2381,6.2381,6.2381,6.2381,6.2719,6.255,6.2516,6.2415,6.2381,6.2381,6.2381,6.2381,6.2381,6.2381,6.2381,6.2381,6.2381,6.2381,6.2381,6.2381,6.2381,6.2381,6.2381,6.2381,6.211,6.1501,6.1467,6.1163,6.0452,6.0351,6.0216,6.0114,6.0114,6.0114,6.0114,6.0114,6.0114,6.0114,6.0114,6.0114,6.0114,6.0114,6.0114,6.0114,6.0114,6.0114,6.0114,6.0114,6.0114,6.0114,6.025,6.0283,6.0283,6.0419,6.0452,6.0452,6.0452,6.0452,6.0452,6.0452,6.0452,6.0385,6.0148,6.0114,6.0114,6.0114,6.0114,6.0114,6.0114,6.0114,5.9911,5.9302,5.9167,5.8964,5.8355,5.822,5.8186,5.8084,5.8051,5.8017,5.7915,5.7881,5.7881,5.7881,5.7881,5.7881,5.7881,5.7881,5.7881,5.7881,5.7881,5.7881,5.7881,5.7881,5.7949,5.8051,5.7949,5.7949,5.8051,5.8795,5.9235,5.937,6.0689,6.1366,6.1501,6.211,6.2381,6.2381,6.2381,6.2381,6.2381,6.2381,6.2381,6.2381,6.2381,6.2381,6.2381,6.2381,6.2381,6.2381,6.3497,6.3328,6.3125,6.2516,6.2381,6.2381,6.2381,6.2381,6.2381,6.2381,6.2381,6.2381,6.2381,6.2381,6.2381,6.2381,6.2381,6.2381,6.2381,6.2381,6.2347,6.2212,6.2212,6.2144,6.2042,6.1434,6.0791,6.0114,6.0114,6.0114,6.0114,6.0114,6.0114,6.0114,6.0114,6.0114,6.0114,6.0114,6.0114,6.0114,6.0114,6.0114,6.0114,6.0114,6.0114,6.0182,6.0858,6.1129,6.1197,6.1806,6.2042,6.2042,6.2042,6.2042,6.2042,6.2042,6.2042,6.1738,6.0452,6.0114,6.0114,6.0114,6.0114,6.0114,6.0114,6.0114,6.008,5.9945,5.9945,5.9877,5.9776,5.9742,5.9539,5.893,5.8829,5.8626,5.7983,5.7881,5.7881,5.7881,5.7881,5.7881,5.7881,5.7881,5.7881,5.7881,5.7881,5.7881,5.7881,5.7881,5.8186,5.8829,5.822,5.8186,5.8829,5.9573,6.0283,6.096,6.1197,6.1637,6.2212,6.2347,6.2381,6.2381,6.2381,6.2381,6.2381,6.2381,6.2381,6.2381,6.2381,6.2381,6.2381,6.2381,6.2381,6.2381,6.4241,6.4106,6.3869,6.3125,6.299,6.2854,6.2448,6.2381,6.2381,6.2381,6.2381,6.2381,6.2381,6.2381,6.2381,6.2381,6.2381,6.2381,6.2381,6.2381,6.2381,6.2381,6.2381,6.2381,6.2381,6.2076,6.1704,6.1332,6.1332,6.1332,6.1332,6.1332,6.1332,6.1332,6.1332,6.1332,6.1332,6.1332,6.1332,6.1332,6.1332,6.1332,6.1332,6.1332,6.1332,6.14,6.1772,6.1873,6.1941,6.2279,6.2381,6.2381,6.2381,6.2381,6.2381,6.2381,6.2381,6.2245,6.1535,6.1332,6.1332,6.1332,6.1332,6.1332,6.1332,6.1332,6.1231,6.0825,6.0757,6.0622,6.0182,6.0114,5.9979,5.9641,5.9607,5.9471,5.9133,5.9066,5.9066,5.9066,5.9066,5.9066,5.9066,5.9066,5.9066,5.9066,5.9066,5.9066,5.9066,5.9066,5.9235,5.9573,5.9268,5.9235,5.9607,6.0351,6.0926,6.1298,6.1704,6.2076,6.2381,6.2381,6.2381,6.2381,6.2381,6.2381,6.2381,6.2381,6.2381,6.2381,6.2381,6.2381,6.2381,6.2381,6.2381,6.2381,6.4986,6.485,6.4613,6.3903,6.3768,6.3531,6.2753,6.2651,6.2584,6.2415,6.2381,6.2381,6.2381,6.2381,6.2381,6.2381,6.2381,6.2381,6.2381,6.2381,6.2381,6.2381,6.2381,6.2381,6.2381,6.2381,6.2381,6.2381,6.2381,6.2381,6.2381,6.2381,6.2381,6.2381,6.2381,6.2381,6.2381,6.2381,6.2381,6.2381,6.2381,6.2381,6.2381,6.2381,6.2381,6.2381,6.2381,6.2381,6.2381,6.2381,6.2381,6.2381,6.2381,6.2381,6.2381,6.2381,6.2381,6.2381,6.2381,6.2381,6.2381,6.2381,6.2381,6.2381,6.2381,6.2381,6.2245,6.167,6.1569,6.1366,6.0757,6.0622,6.0588,6.0419,6.0385,6.0317,6.0148,6.0114,6.0114,6.0114,6.0114,6.0114,6.0114,6.0114,6.0114,6.0114,6.0114,6.0114,6.0114,6.0114,6.0182,6.0385,6.0385,6.0385,6.0385,6.1163,6.1569,6.1569,6.211,6.2381,6.2381,6.2381,6.2381,6.2381,6.2381,6.2381,6.2381,6.2381,6.2381,6.2381,6.2381,6.2381,6.2381,6.2381,6.2381,6.2381,6.5764,6.5595,6.5392,6.4647,6.4512,6.4275,6.3531,6.3429,6.3193,6.2482,6.2381,6.2381,6.2381,6.2381,6.2381,6.2381,6.2381,6.2381,6.2381,6.2381,6.2381,6.2381,6.2381,6.2381,6.2381,6.2381,6.2381,6.2381,6.2381,6.2381,6.2381,6.2381,6.2381,6.2381,6.2381,6.2381,6.2381,6.2381,6.2381,6.2381,6.2381,6.2381,6.2381,6.2381,6.2381,6.2381,6.2381,6.2381,6.2381,6.2381,6.2381,6.2381,6.2381,6.2381,6.2381,6.2381,6.2381,6.2381,6.2381,6.2381,6.2381,6.2381,6.2381,6.2381,6.2381,6.2381,6.2381,6.2313,6.2313,6.2279,6.2245,6.2212,6.2009,6.1332,6.1231,6.096,6.0216,6.0114,6.0114,6.0114,6.0114,6.0114,6.0114,6.0114,6.0114,6.0114,6.0114,6.0114,6.0114,6.0114,6.0452,6.1197,6.1231,6.1231,6.1231,6.1941,6.2313,6.2313,6.2347,6.2381,6.2381,6.2381,6.2381,6.2381,6.2381,6.2381,6.2381,6.2381,6.2381,6.2381,6.2381,6.2381,6.2381,6.2381,6.2381,6.2381,6.644,6.6373,6.6136,6.5392,6.5256,6.5019,6.4309,6.4174,6.3937,6.3193,6.3091,6.2922,6.2448,6.2381,6.2381,6.2381,6.2381,6.2381,6.2381,6.2381,6.2381,6.2381,6.2381,6.2381,6.2381,6.2381,6.2381,6.2381,6.2381,6.2381,6.2381,6.2381,6.2381,6.2381,6.2381,6.2381,6.2381,6.2381,6.2381,6.2381,6.2381,6.2381,6.2381,6.2381,6.2381,6.2381,6.2381,6.2381,6.2381,6.2381,6.2381,6.2381,6.2381,6.2381,6.2381,6.2381,6.2381,6.2381,6.2381,6.2381,6.2381,6.2381,6.2381,6.2381,6.2381,6.2381,6.2381,6.2381,6.2381,6.2381,6.2381,6.2381,6.2313,6.2009,6.1975,6.1873,6.1569,6.1535,6.1535,6.1535,6.1535,6.1535,6.1535,6.1535,6.1535,6.1535,6.1535,6.1535,6.1535,6.1535,6.167,6.1975,6.1975,6.1975,6.1975,6.2245,6.2381,6.2381,6.2381,6.2381,6.2381,6.2381,6.2381,6.2381,6.2381,6.2381,6.2381,6.2381,6.2381,6.2381,6.2381,6.2381,6.2381,6.2381,6.2381,6.2381,6.6812,6.6812,6.6643,6.6136,6.6034,6.5797,6.5053,6.4952,6.4681,6.3937,6.3666,6.3328,6.2787,6.2516,6.2381,6.2381,6.2381,6.2381,6.2381,6.2381,6.2381,6.2381,6.2381,6.2381,6.2381,6.2381,6.2381,6.2381,6.2381,6.2381,6.2381,6.2381,6.2381,6.2381,6.2381,6.2381,6.2381,6.2381,6.2381,6.2381,6.2381,6.2381,6.2381,6.2381,6.2381,6.2381,6.2381,6.2381,6.2381,6.2381,6.2381,6.2381,6.2381,6.2381,6.2381,6.2381,6.2381,6.2381,6.2381,6.2381,6.2381,6.2381,6.2381,6.2381,6.2381,6.2381,6.2381,6.2381,6.2381,6.2381,6.2381,6.2381,6.2381,6.2381,6.2381,6.2381,6.2381,6.2381,6.2381,6.2381,6.2381,6.2381,6.2381,6.2381,6.2381,6.2381,6.2381,6.2381,6.2381,6.2381,6.2381,6.2381,6.2381,6.2381,6.2381,6.2381,6.2381,6.2381,6.2381,6.2381,6.2381,6.2381,6.2381,6.2381,6.2381,6.2381,6.2381,6.2381,6.2381,6.2381,6.2381,6.2381,6.2381,6.2381,6.2381,6.2381,6.6812,6.6812,6.6812,6.6812,6.6812,6.6542,6.5797,6.5696,6.5425,6.4715,6.3971,6.3531,6.3531,6.2854,6.2415,6.2415,6.2415,6.2381,6.2381,6.2381,6.2381,6.2381,6.2381,6.2381,6.2381,6.2381,6.2381,6.2381,6.2381,6.2381,6.2381,6.2381,6.2381,6.2381,6.2381,6.2381,6.2381,6.2381,6.2381,6.2381,6.2381,6.2381,6.2381,6.2381,6.2381,6.2381,6.2381,6.2381,6.2381,6.2381,6.2381,6.2381,6.2381,6.2381,6.2381,6.2381,6.2381,6.2381,6.2381,6.2381,6.2381,6.2381,6.2381,6.2381,6.2381,6.2381,6.2381,6.2381,6.2381,6.2381,6.2381,6.2381,6.2381,6.2381,6.2381,6.2381,6.2381,6.2381,6.2381,6.2381,6.2381,6.2381,6.2381,6.2381,6.2381,6.2381,6.2381,6.2381,6.2381,6.2381,6.2381,6.2381,6.2381,6.2381,6.2381,6.2381,6.2381,6.2381,6.2381,6.2381,6.2381,6.2381,6.2381,6.2381,6.2381,6.2381,6.2381,6.2381,6.2381,6.2381,6.2381,6.2381,6.2381,6.2381,6.2381,6.2381,6.6812,6.6812,6.6812,6.6812,6.6812,6.6745,6.6508,6.6474,6.6203,6.5459,6.5189,6.485,6.4343,6.4072,6.3734,6.3226,6.3193,6.2956,6.2415,6.2381,6.2381,6.2381,6.2381,6.2381,6.2381,6.2381,6.2381,6.2381,6.2381,6.2381,6.2381,6.2381,6.2381,6.2381,6.2381,6.2381,6.2381,6.2381,6.2381,6.2381,6.2381,6.2381,6.2381,6.2381,6.2381,6.2381,6.2381,6.2381,6.2381,6.2381,6.2381,6.2381,6.2381,6.2381,6.2381,6.2381,6.2381,6.2381,6.2381,6.2381,6.2381,6.2381,6.2381,6.2381,6.2381,6.2381,6.2381,6.2381,6.2381,6.2381,6.2381,6.2381,6.2381,6.2381,6.2381,6.2381,6.2381,6.2381,6.2381,6.2381,6.2381,6.2381,6.2381,6.2381,6.2381,6.2381,6.2381,6.2381,6.2381,6.2381,6.2381,6.2381,6.2381,6.2381,6.2381,6.2381,6.2381,6.2381,6.2381,6.2381,6.2381,6.2381,6.2381,6.2381,6.2381,6.2381,6.2381,6.2381,6.2381,6.2381,6.2381,6.2381,6.2381,6.2381,6.2381,6.2381,6.6812,6.6812,6.6812,6.6812,6.6812,6.6812,6.6812,6.6812,6.6643,6.6203,6.5865,6.5527,6.5087,6.4783,6.441,6.3971,6.3666,6.3328,6.2854,6.255,6.2381,6.2381,6.2381,6.2381,6.2381,6.2381,6.2381,6.2381,6.2381,6.2381,6.2381,6.2381,6.2381,6.2381,6.2381,6.2381,6.2381,6.2381,6.2381,6.2381,6.2381,6.2381,6.2381,6.2381,6.2381,6.2381,6.2381,6.2381,6.2381,6.2381,6.2381,6.2381,6.2381,6.2381,6.2381,6.2381,6.2381,6.2381,6.2381,6.2381,6.2381,6.2381,6.2381,6.2381,6.2381,6.2381,6.2381,6.2381,6.2381,6.2381,6.2381,6.2381,6.2381,6.2381,6.2381,6.2381,6.2381,6.2381,6.2381,6.2381,6.2381,6.2381,6.2381,6.2381,6.2381,6.2381,6.2381,6.2381,6.2381,6.2381,6.2381,6.2381,6.2381,6.2381,6.2381,6.2381,6.2381,6.2381,6.2381,6.2381,6.2381,6.2381,6.2381,6.2381,6.2381,6.2381,6.2381,6.2381,6.2381,6.2381,6.2381,6.2381,6.2381,6.2381,6.2381,6.2381,6.6812,6.6812,6.6812,6.6812,6.6812,6.6812,6.6812,6.6812,6.6812,6.6812,6.6203,6.5797,6.5797,6.5189,6.4783,6.4715,6.4038,6.3599,6.3599,6.2956,6.255,6.2482,6.2482,6.2448,6.2381,6.2381,6.2381,6.2381,6.2381,6.2381,6.2381,6.2381,6.2381,6.2381,6.2381,6.2381,6.2381,6.2381,6.2381,6.2381,6.2381,6.2381,6.2381,6.2381,6.2381,6.2381,6.2381,6.2381,6.2381,6.2381,6.2381,6.2381,6.2381,6.2381,6.2381,6.2381,6.2381,6.2381,6.2381,6.2381,6.2381,6.2381,6.2381,6.2381,6.2381,6.2381,6.2381,6.2381,6.2381,6.2381,6.2381,6.2381,6.2381,6.2381,6.2381,6.2381,6.2381,6.2381,6.2381,6.2381,6.2381,6.2381,6.2381,6.2381,6.2381,6.2381,6.2381,6.2381,6.2381,6.2381,6.2381,6.2381,6.2381,6.2381,6.2381,6.2381,6.2381,6.2381,6.2381,6.2381,6.2381,6.2381,6.2381,6.2381,6.2381,6.2381,6.2381,6.2381,6.2381,6.2381,6.2381,6.2381,6.2381,6.2381,6.2381,6.2381,6.6812,6.6812,6.6812,6.6812,6.6812,6.6812,6.6812,6.6812,6.6812,6.6812,6.6677,6.6576,6.6576,6.644,6.6102,6.5493,6.4783,6.4377,6.4377,6.4208,6.3869,6.3294,6.326,6.299,6.2415,6.2381,6.2381,6.2381,6.2381,6.2381,6.2381,6.2381,6.2381,6.2381,6.2381,6.2381,6.2381,6.2381,6.2381,6.2381,6.2381,6.2381,6.2381,6.2381,6.2381,6.2381,6.2381,6.2381,6.2381,6.2381,6.2381,6.2381,6.2381,6.2381,6.2381,6.2381,6.2381,6.2381,6.2381,6.2381,6.2381,6.2381,6.2381,6.2381,6.2381,6.2381,6.2381,6.2381,6.2381,6.2381,6.2381,6.2381,6.2381,6.2381,6.2381,6.2381,6.2381,6.2381,6.2381,6.2381,6.2381,6.2381,6.2381,6.2381,6.2381,6.2381,6.2381,6.2381,6.2381,6.2381,6.2381,6.2381,6.2381,6.2381,6.2381,6.2381,6.2381,6.2381,6.2381,6.2381,6.2381,6.2381,6.2381,6.2381,6.2381,6.2381,6.2381,6.2381,6.2381,6.2381,6.2381,6.2381,6.2381,6.2381,6.2381,6.2381,6.6812,6.6812,6.6812,6.6812,6.6812,6.6812,6.6812,6.6812,6.6812,6.6812,6.6812,6.6812,6.6812,6.6812,6.6643,6.6271,6.5561,6.5121,6.5121,6.4783,6.4444,6.4038,6.4038,6.3835,6.3463,6.3091,6.2753,6.2381,6.2381,6.2381,6.2381,6.2381,6.2381,6.2381,6.2381,6.2381,6.2381,6.2381,6.2381,6.2381,6.2381,6.2381,6.2381,6.2381,6.2381,6.2381,6.2381,6.2381,6.2381,6.2381,6.2381,6.2381,6.2381,6.2381,6.2381,6.2381,6.2381,6.2381,6.2381,6.2381,6.2381,6.2381,6.2381,6.2381,6.2381,6.2381,6.2381,6.2381,6.2381,6.2381,6.2381,6.2381,6.2381,6.2381,6.2381,6.2381,6.2381,6.2381,6.2381,6.2381,6.2381,6.2381,6.2381,6.2381,6.2381,6.2381,6.2381,6.2381,6.2381,6.2381,6.2381,6.2381,6.2381,6.2381,6.2381,6.2381,6.2381,6.2381,6.2381,6.2381,6.2381,6.2381,6.2381,6.2381,6.2381,6.2381,6.2381,6.2381,6.2381,6.2381,6.2381,6.2381,6.2381,6.2381,6.2381,6.2381,6.6812,6.6812,6.6812,6.6812,6.6812,6.6812,6.6812,6.6812,6.6812,6.6812,6.6812,6.6812,6.6812,6.6812,6.6812,6.6812,6.6237,6.5865,6.5865,6.5324,6.4918,6.4783,6.4783,6.4715,6.4613,6.4005,6.3328,6.2584,6.2448,6.2381,6.2381,6.2381,6.2381,6.2381,6.2381,6.2381,6.2381,6.2381,6.2381,6.2381,6.2381,6.2381,6.2381,6.2381,6.2381,6.2381,6.2381,6.2381,6.2381,6.2381,6.2381,6.2381,6.2381,6.2381,6.2381,6.2381,6.2381,6.2381,6.2381,6.2381,6.2381,6.2381,6.2381,6.2381,6.2381,6.2381,6.2381,6.2381,6.2381,6.2381,6.2381,6.2381,6.2381,6.2381,6.2381,6.2381,6.2381,6.2381,6.2381,6.2381,6.2381,6.2381,6.2381,6.2381,6.2381,6.2381,6.2381,6.2381,6.2381,6.2381,6.2381,6.2381,6.2381,6.2381,6.2381,6.2381,6.2381,6.2381,6.2381,6.2381,6.2381,6.2381,6.2381,6.2381,6.2381,6.2381,6.2381,6.2381,6.2381,6.2381,6.2381,6.2381,6.2381,6.2381,6.2381,6.2381,6.6812,6.6812,6.6812,6.6812,6.6812,6.6812,6.6812,6.6812,6.6812,6.6812,6.6812,6.6812,6.6812,6.6812,6.6812,6.6812,6.6711,6.6677,6.6677,6.6576,6.6237,6.5561,6.5527,6.5256,6.4613,6.4512,6.4106,6.3362,6.2719,6.2381,6.2381,6.2381,6.2381,6.2381,6.2381,6.2381,6.2381,6.2381,6.2381,6.2381,6.2381,6.2381,6.2381,6.2381,6.2381,6.2381,6.2381,6.2381,6.2381,6.2381,6.2381,6.2381,6.2381,6.2381,6.2381,6.2381,6.2381,6.2381,6.2381,6.2381,6.2381,6.2381,6.2381,6.2381,6.2381,6.2381,6.2381,6.2381,6.2381,6.2381,6.2381,6.2381,6.2381,6.2381,6.2381,6.2381,6.2381,6.2381,6.2381,6.2381,6.2381,6.2381,6.2381,6.2381,6.2381,6.2381,6.2381,6.2381,6.2381,6.2381,6.2381,6.2381,6.2381,6.2381,6.2381,6.2381,6.2381,6.2381,6.2381,6.2381,6.2381,6.2381,6.2381,6.2381,6.2381,6.2381,6.2381,6.2381,6.2381,6.2381,6.2381,6.2381,6.2381,6.2381,6.2381,6.2381,6.6812,6.6812,6.6812,6.6812,6.6812,6.6812,6.6812,6.6812,6.6812,6.6812,6.6812,6.6812,6.6812,6.6812,6.6812,6.6812,6.6812,6.6812,6.6812,6.6812,6.6677,6.6339,6.6305,6.617,6.5831,6.5425,6.5053,6.4715,6.4005,6.3429,6.3024,6.3024,6.2787,6.2381,6.2381,6.2381,6.2381,6.2381,6.2381,6.2381,6.2381,6.2381,6.2381,6.2381,6.2381,6.2381,6.2381,6.2381,6.2381,6.2381,6.2381,6.2381,6.2381,6.2381,6.2381,6.2381,6.2381,6.2381,6.2381,6.2381,6.2381,6.2381,6.2381,6.2381,6.2381,6.2381,6.2381,6.2381,6.2381,6.2381,6.2381,6.2381,6.2381,6.2381,6.2381,6.2381,6.2381,6.2381,6.2381,6.2381,6.2381,6.2381,6.2381,6.2381,6.2381,6.2381,6.2381,6.2381,6.2381,6.2381,6.2381,6.2381,6.2381,6.2381,6.2381,6.2381,6.2381,6.2381,6.2381,6.2381,6.2381,6.2381,6.2381,6.2381,6.2381,6.2381,6.2381,6.2381,6.2381,6.2381,6.2381,6.2381,6.2381,6.2381,6.2381,6.2381]}]]